[[{"header":{"parameterUnit":"m.s-1","parameterCategory":1,"la1":31.0,"la2":29.5877,"lo1":-88.7671,"lo2":-86.6584,"dy":0.0162,"dx":0.0185,"nx":115,"ny":88,"refTime":"2023-04-14T06:00:00:Z","depth":0,"parameterNumber":2,"parameterNumberName":"U-component_of_WINDS"},"data":[0.0,0.0,0.0,0.0,0.0,0.0,0.0,0.0,0.0,0.0,0.0,0.0,0.0,0.0,0.0,0.0,0.0,0.0,0.0,0.0,0.0,0.0,0.0,0.0,0.0,0.0,0.0,0.0,0.0,0.0,0.0,0.0,0.0,0.0,0.0,0.0,0.0,0.0,0.0,0.0,0.0,0.0,0.0,0.0,0.0,0.0,0.0,0.0,0.0,0.0,0.0,0.0,0.0,0.0,0.0,0.0,0.0,0.0,0.0,0.0,0.0,0.0,0.0,0.0,0.0,0.0,0.0,0.0,0.0,0.0,0.0,0.0,0.0,0.0,0.0,0.0,0.0,0.0,0.0,0.0,0.0,0.0,0.0,0.0,0.0,0.0,0.0,0.0,0.0,0.0,0.0,0.0,0.0,0.0,0.0,0.0,0.0,0.0,0.0,0.0,0.0,0.0,0.0,0.0,0.0,0.0,0.0,0.0,0.0,0.0,0.0,0.0,0.0,0.0,0.0,0.0,0.0,0.0,0.0,0.0,0.0,0.0,0.0,0.0,0.0,0.0,0.0,0.0,0.0,0.0,0.0,0.0,0.0,0.0,0.0,0.0,0.0,0.0,0.0,0.0,0.0,0.0,0.0,0.0,0.0,0.0,0.0,0.0,0.0,0.0,0.0,0.0,0.0,0.0,0.0,0.0,0.0,0.0,0.0,0.0,0.0,0.0,0.0,0.0,0.0,0.0,0.0,0.0,0.0,0.0,0.0,0.0,0.0,0.0,0.0,0.0,0.0,0.0,0.0,0.0,0.0,0.0,0.0,0.0,0.0,0.0,0.0,0.0,0.0,0.0,0.0,0.0,0.0,0.0,0.0,0.0,0.0,0.0,0.0,0.0,0.0,0.0,0.0,0.0,0.0,0.0,0.0,0.0,0.0,0.0,0.0,0.0,0.0,0.0,0.0,0.0,0.0,0.0,0.0,0.0,0.0,0.0,0.0,0.0,0.0,0.0,0.0,0.0,0.0,0.0,0.0,0.0,0.0,0.0,0.0,0.0,0.0,0.0,0.0,0.0,0.0,0.0,0.0,0.0,0.0,0.0,0.0,0.0,0.0,0.0,0.0,0.0,0.0,0.0,0.0,0.0,0.0,0.0,0.0,0.0,0.0,0.0,0.0,0.0,0.0,0.0,0.0,0.0,0.0,0.0,0.0,0.0,0.0,0.0,0.0,0.0,0.0,0.0,0.0,0.0,0.0,0.0,0.0,0.0,0.0,0.0,0.0,0.0,0.0,0.0,0.0,0.0,0.0,0.0,0.0,0.0,0.0,0.0,0.0,0.0,0.0,0.0,0.0,0.0,0.0,0.0,0.0,0.0,0.0,0.0,0.0,0.0,0.0,0.0,0.0,0.0,0.0,0.0,0.0,0.0,0.0,0.0,0.0,0.0,0.0,0.0,0.0,0.0,0.0,0.0,0.0,0.0,0.0,0.0,0.0,0.0,0.0,0.0,0.0,0.0,0.0,0.0,0.0,0.0,0.0,0.0,0.0,0.0,0.0,0.0,0.0,0.0,0.0,0.0,0.0,0.0,0.0,0.0,0.0,0.0,0.0,0.0,0.0,0.0,0.0,0.0,0.0,0.0,0.0,0.0,0.0,0.0,0.0,0.0,0.0,0.0,0.0,0.0,0.0,0.0,0.0,0.0,0.0,0.0,0.0,0.0,0.0,0.0,0.0,0.0,0.0,0.0,0.0,0.0,0.0,0.0,0.0,0.0,0.0,0.0,0.0,0.0,0.0,0.0,0.0,0.0,0.0,0.0,0.0,0.0,0.0,0.0,0.0,0.0,0.0,0.0,0.0,0.0,0.0,0.0,0.0,0.0,0.0,0.0,0.0,0.0,0.0,0.0,0.0,0.0,0.0,0.0,0.0,0.0,0.0,0.0,0.0,0.0,0.0,0.0,0.0,0.0,0.0,0.0,0.0,0.0,0.0,0.0,0.0,0.0,0.0,0.0,0.0,0.0,0.0,0.0,0.0,0.0,0.0,0.0,0.0,0.0,0.0,0.0,0.0,0.0,0.0,0.0,0.0,0.0,0.0,0.0,0.0,0.0,0.0,0.0,0.0,0.0,0.0,0.0,0.0,0.0,0.0,0.0,0.0,0.0,0.0,0.0,0.0,0.0,0.0,0.0,0.0,0.0,0.0,0.0,0.0,0.0,0.0,0.0,0.0,0.0,0.0,0.0,0.0,0.0,0.0,0.0,0.0,0.0,0.0,0.0,0.0,0.0,0.0,0.0,0.0,0.0,0.0,0.0,0.0,0.0,0.0,0.0,0.0,0.0,0.0,0.0,0.0,0.0,0.0,0.0,0.0,0.0,0.0,0.0,0.0,0.0,0.0,0.0,0.0,0.0,0.0,0.0,0.0,0.0,0.0,0.0,0.0,0.0,0.0,0.0,0.0,0.0,0.0,0.0,0.0,0.0,0.0,0.0,0.0,0.0,0.0,0.0,0.0,0.0,0.0,0.0,0.0,0.0,0.0,0.0,0.0,0.0,0.0,0.0,0.0,0.0,0.0,0.0,0.0,0.0,0.0,0.0,0.0,0.0,0.0,0.0,0.0,0.0,0.0,0.0,0.0,0.0,0.0,0.0,0.0,0.0,0.0,0.0,0.0,0.0,0.0,0.0,0.0,0.0,0.0,0.0,0.0,0.0,0.0,0.0,0.0,0.0,0.0,0.0,0.0,0.0,0.0,0.0,0.0,0.0,0.0,0.0,0.0,0.0,0.0,0.0,0.0,0.0,0.0,0.0,0.0,0.0,0.0,0.0,0.0,0.0,0.0,0.0,0.0,0.0,0.0,0.0,0.0,0.0,0.0,0.0,0.0,0.0,0.0,0.0,0.0,0.0,0.0,0.0,0.0,0.0,0.0,0.0,0.0,0.0,0.0,0.0,0.0,0.0,0.0,0.0,0.0,0.0,0.0,0.0,0.0,0.0,0.0,0.0,0.0,0.0,0.0,0.0,0.0,0.0,0.0,0.0,0.0,0.0,0.0,0.0,0.0,0.0,0.0,0.0,0.0,0.0,0.0,0.0,0.0,0.0,0.0,0.0,0.0,0.0,0.0,0.0,0.0,0.0,0.0,0.0,0.0,0.0,0.0,0.0,0.0,0.0,0.0,0.0,0.0,0.0,0.0,0.0,0.0,0.0,0.0,0.0,0.0,0.0,0.0,0.0,0.0,0.0,0.0,0.0,0.0,0.0,0.0,0.0,0.0,0.0,0.0,0.0,0.0,0.0,0.0,0.0,0.0,0.0,0.0,0.0,0.0,0.0,0.0,0.0,0.0,0.0,0.0,0.0,0.0,0.0,0.0,0.0,0.0,0.0,0.0,0.0,0.0,0.0,0.0,0.0,0.0,0.0,0.0,0.0,0.0,0.0,0.0,0.0,0.0,0.0,0.0,0.0,0.0,0.0,0.0,0.0,0.0,0.0,0.0,0.0,0.0,0.0,0.0,0.0,0.0,0.0,0.0,0.0,0.0,0.0,0.0,0.0,0.0,0.0,0.0,0.0,0.0,0.0,0.0,0.0,0.0,0.0,0.0,0.0,0.0,0.0,0.0,0.0,0.0,0.0,0.0,0.0,0.0,0.0,0.0,0.0,0.0,0.0,0.0,0.0,0.0,0.0,0.0,0.0,0.0,0.0,0.0,0.0,0.0,0.0,0.0,0.0,0.0,0.0,0.0,0.0,0.0,0.0,0.0,0.0,0.0,0.0,0.0,0.0,0.0,0.0,0.0,0.0,0.0,0.0,0.0,0.0,0.0,0.0,0.0,0.0,0.0,0.0,0.0,0.0,0.0,0.0,0.0,0.0,0.0,0.0,0.0,0.0,0.0,0.0,0.0,0.0,0.0,0.0,0.0,0.0,0.0,0.0,0.0,0.0,0.0,0.0,0.0,0.0,0.0,0.0,0.0,0.0,0.0,0.0,0.0,0.0,0.0,0.0,0.0,0.0,0.0,0.0,0.0,0.0,0.0,0.0,0.0,0.0,0.0,0.0,0.0,0.0,0.0,0.0,0.0,0.0,0.0,0.0,0.0,0.0,0.0,0.0,0.0,0.0,0.0,0.0,0.0,0.0,0.0,0.0,0.0,0.0,0.0,0.0,0.0,0.0,0.0,0.0,0.0,0.0,0.0,0.0,0.0,0.0,0.0,0.0,0.0,0.0,0.0,0.0,0.0,0.0,0.0,0.0,0.0,0.0,0.0,0.0,0.0,0.0,0.0,0.0,1.7083,0.0,0.0,0.0,0.0,0.0,0.0,0.0,0.0,0.0,0.0,0.0,0.0,0.0,0.0,0.0,0.0,0.0,0.0,0.0,0.0,0.0,0.0,0.0,0.0,0.0,0.0,0.0,0.0,0.0,0.0,0.0,0.0,0.0,0.0,0.0,0.0,0.0,0.0,0.0,0.0,0.0,0.0,0.0,0.0,0.0,0.0,0.0,0.0,0.0,0.0,0.0,0.0,0.0,0.0,0.0,0.0,0.0,0.0,0.0,0.0,0.0,0.0,0.0,0.0,0.0,0.0,0.0,0.0,0.0,0.0,0.0,0.0,0.0,0.0,0.0,0.0,0.0,0.0,0.0,0.0,0.0,0.0,0.0,0.0,0.0,0.0,0.0,0.0,0.0,0.0,0.0,0.0,0.0,0.0,0.0,0.0,0.0,0.0,0.0,0.0,0.0,0.0,0.0,0.0,0.0,0.0,0.0,0.0,0.0,0.0,1.7743,1.7081,1.7048,1.7057,1.7083,0.0,0.0,0.0,0.0,0.0,0.0,0.0,0.0,0.0,0.0,0.0,0.0,0.0,0.0,0.0,0.0,0.0,0.0,0.0,0.0,0.0,0.0,0.0,0.0,0.0,0.0,0.0,0.0,0.0,0.0,0.0,0.0,0.0,0.0,0.0,0.0,0.0,0.0,0.0,0.0,0.0,0.0,0.0,0.0,0.0,0.0,0.0,0.0,0.0,0.0,0.0,0.0,0.0,0.0,0.0,0.0,0.0,0.0,0.0,0.0,0.0,0.0,0.0,0.0,0.0,0.0,0.0,0.0,0.0,0.0,0.0,0.0,0.0,0.0,0.0,0.0,0.0,0.0,0.0,0.0,0.0,0.0,0.0,0.0,0.0,0.0,0.0,0.0,0.0,0.0,0.0,0.0,0.0,0.0,0.0,0.0,0.0,0.0,0.0,0.0,0.0,0.0,0.0,0.0,0.0,0.0,0.0,0.0,0.0,0.0,0.0,0.0,1.7023,1.7048,1.7083,0.0,0.0,0.0,0.0,0.0,0.0,0.0,0.0,0.0,0.0,0.0,0.0,0.0,0.0,0.0,0.0,0.0,0.0,0.0,0.0,0.0,0.0,0.0,0.0,0.0,0.0,0.0,0.0,0.0,0.0,0.0,0.0,0.0,0.0,0.0,0.0,0.0,0.0,0.0,0.0,0.0,0.0,0.0,0.0,0.0,0.0,0.0,0.0,0.0,0.0,0.0,0.0,0.0,0.0,0.0,0.0,0.0,0.0,0.0,0.0,0.0,0.0,0.0,0.0,0.0,0.0,0.0,0.0,0.0,0.0,0.0,0.0,0.0,0.0,0.0,0.0,0.0,0.0,0.0,0.0,0.0,0.0,0.0,0.0,0.0,0.0,0.0,0.0,0.0,0.0,0.0,0.0,0.0,0.0,0.0,0.0,0.0,0.0,0.0,0.0,0.0,0.0,0.0,0.0,0.0,0.0,0.0,0.0,0.0,0.0,1.7147,1.7083,1.7099,0.0,1.7083,0.0,0.0,0.0,0.0,0.0,0.0,0.0,0.0,0.0,0.0,0.0,0.0,0.0,0.0,0.0,0.0,0.0,0.0,0.0,0.0,0.0,0.0,0.0,0.0,0.0,0.0,0.0,0.0,0.0,0.0,0.0,0.0,0.0,0.0,0.0,0.0,0.0,0.0,0.0,0.0,0.0,0.0,0.0,0.0,0.0,0.0,0.0,0.0,0.0,0.0,0.0,0.0,0.0,0.0,0.0,0.0,0.0,0.0,0.0,0.0,0.0,0.0,0.0,0.0,0.0,0.0,0.0,0.0,0.0,0.0,0.0,0.0,0.0,0.0,0.0,0.0,0.0,0.0,0.0,0.0,0.0,0.0,0.0,0.0,0.0,0.0,0.0,0.0,0.0,0.0,0.0,0.0,0.0,0.0,0.0,0.0,0.0,0.0,0.0,0.0,0.0,0.0,0.0,0.0,0.0,0.0,0.0,0.0,0.0,0.0,1.7083,1.7083,1.7216,1.724,0.0,0.0,0.0,0.0,0.0,0.0,0.0,0.0,0.0,0.0,0.0,0.0,0.0,0.0,0.0,0.0,0.0,0.0,0.0,0.0,0.0,0.0,0.0,0.0,0.0,0.0,0.0,0.0,0.0,0.0,0.0,0.0,0.0,0.0,0.0,0.0,0.0,0.0,0.0,0.0,0.0,0.0,0.0,0.0,0.0,0.0,0.0,0.0,0.0,0.0,0.0,0.0,0.0,0.0,0.0,0.0,0.0,0.0,0.0,0.0,0.0,0.0,0.0,0.0,0.0,0.0,0.0,0.0,0.0,0.0,0.0,0.0,0.0,0.0,0.0,0.0,0.0,0.0,0.0,0.0,0.0,0.0,0.0,0.0,0.0,0.0,0.0,0.0,0.0,0.0,0.0,0.0,0.0,0.0,0.0,0.0,0.0,0.0,0.0,0.0,0.0,0.0,0.0,0.0,0.0,0.0,0.0,0.0,0.0,0.0,1.7476,1.7485,1.7593,1.7873,1.7848,1.751,0.0,0.0,0.0,0.0,0.0,0.0,0.0,0.0,0.0,0.0,0.0,0.0,0.0,0.0,0.0,0.0,0.0,0.0,0.0,0.0,0.0,0.0,0.0,0.0,0.0,0.0,0.0,0.0,0.0,0.0,0.0,0.0,0.0,0.0,0.0,0.0,0.0,0.0,0.0,0.0,0.0,0.0,0.0,0.0,0.0,0.0,0.0,0.0,0.0,0.0,0.0,0.0,0.0,0.0,0.0,0.0,0.0,0.0,0.0,0.0,0.0,0.0,0.0,0.0,0.0,0.0,0.0,0.0,0.0,0.0,0.0,0.0,0.0,0.0,0.0,0.0,0.0,0.0,0.0,0.0,0.0,0.0,0.0,0.0,0.0,0.0,0.0,0.0,0.0,0.0,0.0,0.0,0.0,0.0,0.0,0.0,0.0,0.0,0.0,0.0,0.0,0.0,0.0,0.0,0.0,0.0,0.0,0.0,1.8348,1.8348,1.8493,1.8802,1.9252,1.9216,0.0,0.0,0.0,0.0,0.0,0.0,0.0,0.0,0.0,0.0,0.0,0.0,0.0,0.0,0.0,0.0,0.0,0.0,0.0,0.0,0.0,0.0,0.0,0.0,0.0,0.0,0.0,0.0,0.0,0.0,0.0,0.0,0.0,0.0,0.0,0.0,0.0,0.0,0.0,0.0,0.0,0.0,0.0,0.0,0.0,0.0,0.0,0.0,0.0,0.0,0.0,0.0,0.0,0.0,0.0,0.0,0.0,0.0,0.0,0.0,0.0,0.0,0.0,0.0,0.0,0.0,0.0,0.0,0.0,0.0,0.0,0.0,0.0,0.0,0.0,0.0,0.0,0.0,0.0,0.0,0.0,0.0,0.0,0.0,0.0,0.0,0.0,0.0,0.0,0.0,0.0,0.0,0.0,0.0,0.0,0.0,0.0,0.0,0.0,0.0,0.0,0.0,0.0,0.0,0.0,0.0,0.0,0.0,0.0,1.9171,1.9395,1.9521,1.9604,1.9915,1.9924,0.0,0.0,0.0,0.0,0.0,0.0,0.0,0.0,0.0,0.0,0.0,0.0,0.0,0.0,0.0,0.0,0.0,0.0,0.0,0.0,0.0,0.0,0.0,0.0,0.0,0.0,0.0,0.0,0.0,0.0,0.0,0.0,0.0,0.0,0.0,0.0,0.0,0.0,0.0,0.0,0.0,0.0,0.0,0.0,0.0,0.0,0.0,0.0,0.0,0.0,0.0,0.0,0.0,0.0,0.0,0.0,0.0,0.0,0.0,0.0,0.0,0.0,0.0,0.0,0.0,0.0,0.0,0.0,0.0,0.0,0.0,0.0,0.0,0.0,0.0,0.0,0.0,0.0,0.0,0.0,0.0,0.0,0.0,0.0,0.0,0.0,0.0,0.0,0.0,0.0,0.0,0.0,0.0,0.0,0.0,0.0,0.0,0.0,0.0,0.0,0.0,0.0,0.0,0.0,0.0,0.0,0.0,0.0,0.0,2.013,0.0,2.0609,2.0609,2.0931,2.0923,0.0,0.0,0.0,0.0,0.0,0.0,0.0,0.0,0.0,0.0,0.0,0.0,0.0,0.0,0.0,0.0,0.0,0.0,0.0,0.0,0.0,0.0,0.0,0.0,0.0,0.0,0.0,0.0,0.0,0.0,0.0,0.0,0.0,0.0,0.0,0.0,0.0,0.0,0.0,0.0,0.0,0.0,0.0,0.0,0.0,0.0,0.0,0.0,0.0,0.0,0.0,0.0,0.0,0.0,0.0,0.0,0.0,0.0,0.0,0.0,0.0,0.0,0.0,0.0,0.0,0.0,0.0,0.0,0.0,0.0,0.0,0.0,0.0,0.0,0.0,0.0,0.0,0.0,0.0,0.0,0.0,0.0,0.0,0.0,0.0,0.0,0.0,0.0,0.0,0.0,0.0,0.0,0.0,0.0,0.0,0.0,0.0,0.0,0.0,0.0,0.0,0.0,0.0,0.0,0.0,0.0,0.0,0.0,2.0631,2.117,2.1523,2.1757,2.1901,2.2332,2.2263,0.0,0.0,0.0,0.0,0.0,0.0,0.0,0.0,0.0,0.0,0.0,0.0,0.0,0.0,0.0,0.0,0.0,0.0,0.0,0.0,0.0,0.0,0.0,0.0,0.0,0.0,0.0,0.0,0.0,0.0,0.0,0.0,0.0,0.0,0.0,0.0,0.0,0.0,0.0,0.0,0.0,0.0,0.0,0.0,0.0,0.0,0.0,0.0,0.0,0.0,0.0,0.0,0.0,0.0,0.0,0.0,0.0,0.0,0.0,0.0,0.0,0.0,0.0,0.0,0.0,0.0,0.0,0.0,0.0,0.0,0.0,0.0,0.0,0.0,0.0,0.0,0.0,0.0,0.0,0.0,0.0,0.0,0.0,0.0,0.0,0.0,0.0,0.0,0.0,0.0,0.0,0.0,0.0,0.0,0.0,0.0,0.0,0.0,0.0,0.0,0.0,0.0,0.0,0.0,0.0,0.0,0.0,0.0,0.0,2.2017,2.2358,2.2503,2.2538,2.2729,2.2746,0.0,0.0,0.0,0.0,0.0,0.0,0.0,0.0,0.0,0.0,0.0,0.0,0.0,0.0,0.0,0.0,0.0,0.0,0.0,0.0,0.0,0.0,0.0,0.0,0.0,0.0,0.0,0.0,0.0,0.0,0.0,0.0,0.0,0.0,0.0,0.0,0.0,0.0,0.0,0.0,0.0,0.0,0.0,0.0,0.0,0.0,0.0,0.0,0.0,0.0,0.0,0.0,0.0,0.0,0.0,0.0,0.0,0.0,0.0,0.0,0.0,0.0,0.0,0.0,0.0,0.0,0.0,0.0,0.0,0.0,0.0,0.0,0.0,0.0,0.0,0.0,0.0,0.0,0.0,0.0,0.0,0.0,0.0,0.0,0.0,0.0,0.0,0.0,0.0,0.0,0.0,0.0,0.0,0.0,0.0,0.0,0.0,0.0,0.0,0.0,0.0,0.0,0.0,0.0,0.0,0.0,0.0,0.0,0.0,2.2341,2.2634,2.2799,2.279,2.2919,2.297,2.2927,0.0,0.0,0.0,0.0,0.0,0.0,0.0,0.0,0.0,0.0,0.0,0.0,0.0,0.0,0.0,0.0,0.0,0.0,0.0,0.0,0.0,0.0,0.0,0.0,0.0,0.0,0.0,0.0,0.0,0.0,0.0,0.0,0.0,0.0,0.0,0.0,0.0,0.0,0.0,0.0,0.0,0.0,0.0,0.0,0.0,0.0,0.0,0.0,0.0,0.0,0.0,0.0,0.0,0.0,0.0,0.0,0.0,0.0,0.0,0.0,0.0,0.0,0.0,0.0,0.0,0.0,0.0,0.0,0.0,0.0,0.0,0.0,0.0,0.0,0.0,0.0,0.0,0.0,0.0,0.0,0.0,0.0,0.0,0.0,0.0,0.0,0.0,0.0,0.0,0.0,0.0,0.0,0.0,0.0,0.0,0.0,0.0,0.0,0.0,0.0,0.0,0.0,0.0,0.0,0.0,0.0,0.0,0.0,2.2237,2.2561,2.2738,2.279,2.2868,2.2927,0.0,0.0,0.0,0.0,0.0,0.0,0.0,0.0,0.0,0.0,0.0,0.0,0.0,0.0,0.0,0.0,0.0,0.0,0.0,0.0,0.0,0.0,0.0,0.0,0.0,0.0,0.0,0.0,0.0,0.0,0.0,0.0,0.0,0.0,0.0,0.0,0.0,0.0,0.0,0.0,0.0,0.0,0.0,0.0,0.0,0.0,0.0,0.0,0.0,0.0,0.0,0.0,0.0,0.0,0.0,0.0,0.0,0.0,0.0,0.0,0.0,0.0,0.0,0.0,0.0,0.0,0.0,0.0,0.0,0.0,0.0,0.0,0.0,0.0,0.0,0.0,0.0,0.0,0.0,0.0,0.0,0.0,0.0,0.0,0.0,0.0,0.0,0.0,0.0,0.0,0.0,0.0,0.0,0.0,0.0,0.0,0.0,0.0,0.0,0.0,0.0,0.0,0.0,0.0,0.0,0.0,0.0,0.0,0.0,2.2544,2.2659,2.2712,2.2738,2.279,2.2868,0.0,0.0,0.0,0.0,0.0,0.0,0.0,0.0,0.0,0.0,0.0,0.0,0.0,0.0,0.0,0.0,0.0,0.0,0.0,0.0,0.0,0.0,0.0,0.0,0.0,0.0,0.0,0.0,0.0,0.0,0.0,0.0,0.0,0.0,0.0,0.0,0.0,0.0,0.0,0.0,0.0,0.0,0.0,0.0,0.0,0.0,0.0,0.0,0.0,0.0,0.0,0.0,0.0,0.0,0.0,0.0,0.0,0.0,0.0,0.0,0.0,0.0,0.0,0.0,0.0,0.0,0.0,0.0,0.0,0.0,0.0,0.0,0.0,0.0,0.0,0.0,0.0,0.0,0.0,0.0,0.0,0.0,0.0,0.0,0.0,0.0,0.0,0.0,0.0,0.0,0.0,0.0,0.0,0.0,0.0,0.0,0.0,0.0,0.0,0.0,0.0,0.0,0.0,0.0,0.0,0.0,0.0,0.0,2.2963,2.3168,2.3488,2.3495,2.3177,2.292,2.2972,0.0,0.0,0.0,0.0,0.0,0.0,0.0,0.0,0.0,0.0,0.0,0.0,0.0,0.0,0.0,0.0,0.0,0.0,0.0,0.0,0.0,0.0,0.0,0.0,0.0,0.0,0.0,0.0,0.0,0.0,0.0,0.0,0.0,0.0,0.0,0.0,0.0,0.0,0.0,0.0,0.0,0.0,0.0,0.0,0.0,0.0,0.0,0.0,0.0,0.0,0.0,0.0,0.0,0.0,0.0,0.0,0.0,0.0,0.0,0.0,0.0,0.0,0.0,0.0,0.0,0.0,0.0,0.0,0.0,0.0,0.0,0.0,0.0,0.0,0.0,0.0,0.0,0.0,0.0,0.0,0.0,0.0,0.0,0.0,0.0,0.0,0.0,0.0,0.0,0.0,0.0,0.0,0.0,0.0,0.0,0.0,0.0,0.0,0.0,0.0,0.0,0.0,0.0,0.0,0.0,0.0,0.0,0.0,2.3822,2.3926,2.4643,2.466,2.3943,2.3283,2.3223,0.0,0.0,0.0,0.0,0.0,0.0,0.0,0.0,0.0,0.0,0.0,0.0,0.0,0.0,0.0,0.0,0.0,0.0,0.0,0.0,0.0,0.0,0.0,0.0,0.0,0.0,0.0,0.0,0.0,0.0,0.0,0.0,0.0,0.0,0.0,0.0,0.0,0.0,0.0,0.0,0.0,0.0,0.0,0.0,0.0,0.0,0.0,0.0,0.0,0.0,0.0,0.0,0.0,0.0,0.0,0.0,0.0,0.0,0.0,0.0,0.0,0.0,0.0,0.0,0.0,0.0,0.0,0.0,0.0,0.0,0.0,0.0,0.0,0.0,0.0,0.0,0.0,0.0,0.0,0.0,0.0,0.0,0.0,0.0,0.0,0.0,0.0,0.0,0.0,0.0,0.0,0.0,0.0,0.0,0.0,0.0,0.0,0.0,0.0,0.0,0.0,0.0,0.0,0.0,0.0,0.0,0.0,0.0,2.4098,2.4729,2.4919,2.4919,2.4747,2.3988,2.3688,0.0,0.0,0.0,0.0,0.0,0.0,0.0,0.0,0.0,0.0,0.0,0.0,0.0,0.0,0.0,0.0,0.0,0.0,0.0,0.0,0.0,0.0,0.0,0.0,0.0,0.0,0.0,0.0,0.0,0.0,0.0,0.0,0.0,0.0,0.0,0.0,0.0,0.0,0.0,0.0,0.0,0.0,0.0,0.0,0.0,0.0,0.0,0.0,2.5559,0.0,0.0,0.0,0.0,0.0,0.0,0.0,0.0,0.0,0.0,0.0,0.0,0.0,0.0,0.0,0.0,0.0,0.0,0.0,0.0,0.0,0.0,0.0,0.0,0.0,0.0,0.0,0.0,0.0,0.0,0.0,0.0,0.0,0.0,0.0,0.0,0.0,0.0,0.0,0.0,0.0,0.0,0.0,0.0,0.0,0.0,0.0,0.0,0.0,0.0,0.0,0.0,0.0,0.0,0.0,0.0,0.0,0.0,0.0,2.5092,2.5523,2.5885,2.5902,2.5523,2.5109,2.4902,0.0,0.0,0.0,0.0,0.0,0.0,0.0,0.0,0.0,0.0,0.0,0.0,0.0,0.0,0.0,0.0,0.0,0.0,0.0,0.0,0.0,0.0,0.0,0.0,0.0,0.0,0.0,0.0,0.0,0.0,0.0,0.0,0.0,0.0,0.0,0.0,0.0,0.0,0.0,0.0,0.0,0.0,0.0,0.0,0.0,0.0,0.0,0.0,0.0,0.0,0.0,0.0,0.0,0.0,0.0,0.0,0.0,0.0,0.0,0.0,0.0,0.0,0.0,0.0,0.0,0.0,0.0,0.0,0.0,0.0,0.0,0.0,0.0,0.0,0.0,0.0,0.0,0.0,0.0,0.0,0.0,0.0,0.0,0.0,0.0,0.0,0.0,0.0,0.0,0.0,0.0,0.0,0.0,0.0,0.0,0.0,0.0,0.0,0.0,0.0,0.0,0.0,0.0,0.0,0.0,0.0,0.0,2.6178,2.6178,2.6316,2.6954,2.6971,2.6316,2.6299,2.6299,2.6281,0.0,0.0,0.0,0.0,0.0,0.0,0.0,0.0,0.0,0.0,0.0,0.0,0.0,0.0,0.0,0.0,0.0,0.0,0.0,0.0,0.0,0.0,0.0,0.0,0.0,0.0,0.0,0.0,0.0,0.0,0.0,0.0,0.0,0.0,0.0,0.0,0.0,0.0,2.3874,2.5283,0.0,0.0,0.0,0.0,0.0,0.0,0.0,0.0,2.7345,0.0,0.0,0.0,0.0,0.0,0.0,0.0,0.0,0.0,0.0,0.0,0.0,0.0,0.0,0.0,0.0,0.0,0.0,0.0,0.0,0.0,0.0,0.0,0.0,0.0,0.0,0.0,0.0,0.0,0.0,0.0,0.0,0.0,0.0,0.0,0.0,0.0,0.0,0.0,0.0,0.0,0.0,0.0,0.0,0.0,0.0,0.0,0.0,0.0,0.0,0.0,0.0,0.0,0.0,0.0,0.0,2.7075,2.6437,2.6419,2.7092,2.723,2.723,2.7109,2.7092,2.7109,2.7075,0.0,0.0,0.0,0.0,0.0,0.0,0.0,0.0,0.0,0.0,0.0,0.0,0.0,0.0,0.0,0.0,0.0,0.0,0.0,0.0,0.0,0.0,0.0,0.0,0.0,0.0,0.0,0.0,0.0,0.0,0.0,0.0,0.0,0.0,0.0,0.0,0.0,0.0,0.0,2.6536,2.7141,0.0,0.0,0.0,0.0,0.0,0.0,0.0,0.0,2.7321,0.0,0.0,0.0,0.0,0.0,0.0,0.0,0.0,0.0,0.0,0.0,0.0,0.0,0.0,0.0,0.0,0.0,0.0,0.0,0.0,0.0,0.0,0.0,0.0,0.0,0.0,0.0,0.0,0.0,0.0,0.0,0.0,0.0,0.0,0.0,0.0,0.0,0.0,0.0,0.0,0.0,0.0,0.0,0.0,0.0,0.0,0.0,0.0,0.0,0.0,0.0,0.0,0.0,0.0,0.0,2.7782,2.7126,2.7282,2.8368,2.7696,2.7471,2.7833,2.7489,2.7299,0.0,0.0,0.0,0.0,0.0,0.0,0.0,0.0,0.0,0.0,0.0,0.0,0.0,0.0,0.0,0.0,0.0,0.0,0.0,0.0,0.0,0.0,0.0,0.0,0.0,0.0,0.0,0.0,0.0,0.0,0.0,0.0,0.0,0.0,0.0,0.0,0.0,0.0,0.0,0.0,2.712,2.7345,2.7393,0.0,0.0,0.0,0.0,0.0,0.0,2.86,2.8585,0.0,0.0,0.0,0.0,0.0,0.0,0.0,0.0,0.0,0.0,0.0,0.0,0.0,0.0,0.0,0.0,0.0,0.0,0.0,0.0,0.0,0.0,0.0,0.0,0.0,0.0,0.0,0.0,0.0,0.0,0.0,0.0,0.0,0.0,0.0,0.0,0.0,0.0,0.0,0.0,0.0,0.0,0.0,0.0,0.0,0.0,0.0,0.0,0.0,0.0,0.0,0.0,0.0,0.0,0.0,2.8351,2.7816,2.8161,2.9403,2.8351,2.8023,2.8575,2.792,2.7523,0.0,0.0,0.0,0.0,0.0,0.0,0.0,0.0,0.0,0.0,0.0,0.0,0.0,0.0,0.0,0.0,0.0,0.0,0.0,0.0,0.0,0.0,0.0,0.0,0.0,0.0,0.0,0.0,0.0,0.0,0.0,0.0,0.0,0.0,0.0,0.0,0.0,0.0,0.0,0.0,0.0,2.7632,2.7698,2.8273,0.0,0.0,0.0,0.0,2.9642,2.9693,0.0,0.0,0.0,0.0,0.0,0.0,0.0,0.0,0.0,0.0,0.0,0.0,0.0,0.0,0.0,0.0,0.0,0.0,0.0,0.0,0.0,0.0,0.0,0.0,0.0,0.0,0.0,0.0,0.0,0.0,0.0,0.0,0.0,0.0,0.0,0.0,0.0,0.0,0.0,0.0,0.0,0.0,0.0,0.0,0.0,0.0,0.0,0.0,0.0,0.0,0.0,0.0,0.0,0.0,0.0,0.0,2.8368,2.8316,2.8678,2.9455,2.9334,2.9299,2.9368,2.8644,2.8282,0.0,0.0,0.0,0.0,0.0,0.0,0.0,0.0,0.0,0.0,0.0,0.0,0.0,0.0,0.0,0.0,0.0,0.0,0.0,0.0,0.0,0.0,0.0,0.0,0.0,0.0,0.0,0.0,0.0,0.0,0.0,0.0,0.0,0.0,0.0,0.0,0.0,0.0,0.0,0.0,0.0,2.841,2.8508,2.9136,2.9589,0.0,0.0,2.981,2.976,2.9809,0.0,0.0,0.0,0.0,0.0,0.0,0.0,0.0,0.0,0.0,0.0,0.0,0.0,0.0,0.0,0.0,0.0,0.0,0.0,0.0,0.0,0.0,0.0,0.0,0.0,0.0,0.0,0.0,0.0,0.0,0.0,0.0,0.0,0.0,0.0,0.0,0.0,0.0,0.0,0.0,0.0,0.0,0.0,0.0,0.0,0.0,0.0,0.0,0.0,0.0,0.0,0.0,0.0,0.0,0.0,2.8282,2.8989,2.9023,2.961,3.0713,2.9955,2.973,3.0162,2.9023,2.842,0.0,0.0,0.0,0.0,0.0,0.0,0.0,0.0,0.0,0.0,0.0,0.0,0.0,0.0,0.0,0.0,0.0,0.0,0.0,0.0,0.0,0.0,0.0,0.0,0.0,0.0,0.0,0.0,0.0,0.0,0.0,0.0,0.0,0.0,0.0,0.0,0.0,0.0,0.0,0.0,0.0,0.0,2.9318,3.0016,0.0,0.0,0.0,3.1133,3.0994,0.0,0.0,0.0,0.0,0.0,0.0,0.0,0.0,0.0,0.0,0.0,0.0,0.0,0.0,0.0,0.0,0.0,0.0,0.0,0.0,0.0,0.0,0.0,0.0,0.0,0.0,0.0,0.0,0.0,0.0,0.0,0.0,0.0,0.0,0.0,0.0,0.0,0.0,0.0,0.0,0.0,0.0,0.0,0.0,0.0,0.0,0.0,0.0,0.0,0.0,0.0,0.0,0.0,0.0,0.0,0.0,0.0,2.9489,2.9696,3.0455,3.1696,3.0679,3.0386,3.1027,2.9713,0.0,0.0,0.0,0.0,0.0,0.0,0.0,0.0,0.0,0.0,0.0,0.0,0.0,0.0,0.0,0.0,0.0,0.0,0.0,0.0,0.0,0.0,0.0,0.0,0.0,0.0,0.0,2.4447,0.0,0.0,0.0,0.0,0.0,0.0,0.0,0.0,0.0,0.0,0.0,0.0,0.0,0.0,2.946,3.0066,3.0817,3.1375,0.0,0.0,3.2179,3.2038,3.2179,3.2267,0.0,0.0,0.0,0.0,0.0,0.0,0.0,0.0,0.0,0.0,0.0,0.0,0.0,0.0,0.0,0.0,0.0,0.0,0.0,0.0,0.0,0.0,0.0,0.0,0.0,0.0,0.0,0.0,0.0,0.0,0.0,0.0,0.0,0.0,0.0,0.0,0.0,0.0,0.0,0.0,0.0,0.0,0.0,0.0,0.0,0.0,0.0,0.0,0.0,0.0,0.0,0.0,0.0,0.0,0.0,2.9506,3.0248,3.0989,3.1765,3.1696,3.1789,3.2056,3.1097,3.0647,0.0,0.0,0.0,0.0,0.0,0.0,0.0,0.0,0.0,0.0,0.0,0.0,0.0,0.0,0.0,0.0,0.0,0.0,0.0,0.0,0.0,0.0,0.0,0.0,0.0,0.0,0.0,0.0,0.0,0.0,0.0,0.0,0.0,0.0,0.0,0.0,0.0,0.0,0.0,0.0,0.0,3.0802,3.0819,3.1533,3.2091,0.0,0.0,3.2249,3.2439,3.2473,3.2685,3.3283,0.0,0.0,0.0,0.0,0.0,0.0,0.0,0.0,0.0,0.0,0.0,0.0,0.0,0.0,0.0,0.0,0.0,0.0,0.0,0.0,0.0,0.0,0.0,0.0,0.0,0.0,0.0,0.0,0.0,0.0,0.0,0.0,0.0,0.0,0.0,0.0,0.0,0.0,0.0,0.0,0.0,0.0,0.0,0.0,0.0,0.0,0.0,0.0,0.0,0.0,0.0,0.0,0.0,2.9455,3.0231,3.0989,3.1524,3.1783,3.18,3.1929,3.2179,3.1377,3.106,0.0,0.0,0.0,0.0,0.0,0.0,0.0,0.0,0.0,0.0,0.0,0.0,0.0,0.0,0.0,0.0,0.0,0.0,0.0,0.0,0.0,0.0,0.0,0.0,0.0,0.0,0.0,0.0,2.6939,2.7251,2.795,0.0,0.0,0.0,0.0,0.0,0.0,0.0,0.0,0.0,0.0,3.1235,3.1792,3.216,0.0,0.0,3.3195,3.3284,3.3794,3.3882,3.3952,3.4088,3.401,0.0,0.0,0.0,0.0,0.0,0.0,0.0,0.0,0.0,0.0,0.0,0.0,0.0,0.0,0.0,0.0,0.0,0.0,0.0,0.0,0.0,0.0,0.0,0.0,0.0,0.0,0.0,0.0,0.0,0.0,0.0,0.0,0.0,0.0,0.0,0.0,0.0,0.0,0.0,0.0,0.0,0.0,0.0,0.0,0.0,0.0,0.0,0.0,0.0,0.0,0.0,0.0,3.0127,3.0696,3.142,3.18,3.18,3.18,3.1929,3.2179,3.1672,3.1561,0.0,0.0,0.0,0.0,0.0,0.0,0.0,0.0,0.0,0.0,0.0,0.0,0.0,0.0,0.0,0.0,0.0,0.0,0.0,0.0,0.0,0.0,0.0,0.0,0.0,0.0,0.0,0.0,2.7944,2.8288,2.8778,0.0,0.0,0.0,0.0,0.0,0.0,0.0,0.0,0.0,0.0,3.2022,3.2634,3.2932,3.3301,3.397,3.4023,3.4181,3.4692,3.4763,3.4796,3.4949,0.0,0.0,0.0,0.0,0.0,0.0,0.0,0.0,0.0,0.0,0.0,0.0,0.0,0.0,0.0,0.0,0.0,0.0,0.0,0.0,0.0,0.0,0.0,0.0,0.0,0.0,0.0,0.0,0.0,0.0,2.6434,0.0,0.0,0.0,0.0,0.0,0.0,0.0,0.0,0.0,0.0,0.0,0.0,0.0,0.0,0.0,0.0,0.0,0.0,0.0,0.0,0.0,0.0,3.0679,3.0713,3.1472,3.1817,3.1834,3.1817,3.1981,3.2231,3.2179,3.2335,3.2588,0.0,0.0,0.0,0.0,0.0,0.0,0.0,0.0,0.0,0.0,0.0,0.0,0.0,0.0,0.0,0.0,0.0,0.0,0.0,0.0,0.0,0.0,0.0,0.0,0.0,0.0,2.8401,2.9023,2.9437,0.0,0.0,0.0,0.0,0.0,0.0,0.0,0.0,0.0,0.0,3.2718,3.3314,3.3204,3.3905,3.4456,3.4582,3.4635,3.4726,3.4942,3.4763,3.4935,0.0,0.0,0.0,0.0,0.0,0.0,0.0,0.0,0.0,0.0,0.0,0.0,0.0,0.0,0.0,0.0,0.0,0.0,0.0,0.0,0.0,0.0,0.0,0.0,0.0,0.0,0.0,2.7773,2.768,0.0,0.0,0.0,0.0,0.0,0.0,0.0,0.0,0.0,0.0,0.0,3.008,3.0231,0.0,0.0,0.0,0.0,0.0,0.0,0.0,0.0,0.0,0.0,0.0,0.0,3.1179,3.211,3.2403,3.2783,3.33,3.3317,3.3453,3.3715,3.3916,3.4146,3.447,0.0,0.0,0.0,0.0,0.0,0.0,0.0,0.0,0.0,0.0,0.0,0.0,0.0,0.0,0.0,0.0,0.0,0.0,0.0,0.0,0.0,0.0,0.0,0.0,0.0,2.9228,0.0,0.0,0.0,0.0,0.0,0.0,0.0,0.0,0.0,0.0,0.0,3.2728,3.2765,3.3482,3.4007,3.4062,3.4329,3.4793,0.0,0.0,0.0,0.0,0.0,0.0,0.0,0.0,0.0,0.0,0.0,0.0,0.0,0.0,3.5486,3.4367,3.4233,3.431,3.4328,0.0,0.0,0.0,0.0,0.0,0.0,0.0,0.0,0.0,0.0,0.0,0.0,0.0,0.0,2.9547,0.0,2.865,0.0,0.0,0.0,0.0,0.0,0.0,0.0,0.0,3.0619,3.0839,3.1162,3.1265,3.1524,0.0,3.19,3.205,0.0,0.0,0.0,0.0,0.0,0.0,0.0,0.0,3.2243,3.3405,3.3604,3.3885,3.4391,3.4425,3.4484,3.467,3.4925,3.5204,3.5526,3.5442,3.4873,0.0,0.0,0.0,0.0,0.0,0.0,0.0,0.0,0.0,0.0,0.0,0.0,0.0,0.0,0.0,0.0,0.0,0.0,0.0,0.0,0.0,0.0,0.0,3.0144,0.0,0.0,0.0,0.0,0.0,0.0,0.0,0.0,0.0,3.2397,3.304,3.3564,3.3601,3.4303,3.4791,3.4864,0.0,0.0,0.0,0.0,0.0,0.0,0.0,3.6987,3.6908,3.6829,3.6766,3.6725,3.6725,3.6719,3.6719,0.0,0.0,3.5265,3.5149,3.5188,3.5188,3.5188,3.5188,3.5188,3.5571,3.5919,0.0,0.0,0.0,0.0,0.0,0.0,0.0,0.0,3.1688,3.1986,0.0,3.104,0.0,0.0,0.0,0.0,0.0,3.1764,0.0,0.0,3.1844,3.1797,3.1745,3.1819,3.2545,3.3926,3.4035,3.4678,3.5703,3.2635,0.0,0.0,0.0,0.0,0.0,0.0,3.3825,3.4544,3.4853,3.5031,3.5084,3.5084,3.5084,3.5137,3.5363,3.5634,3.586,3.5666,3.558,3.5806,3.4893,0.0,0.0,0.0,0.0,0.0,0.0,0.0,0.0,0.0,0.0,0.0,0.0,0.0,0.0,0.0,0.0,0.0,0.0,0.0,0.0,3.0439,0.0,0.0,0.0,0.0,0.0,0.0,0.0,0.0,0.0,0.0,3.3318,3.3932,3.4422,3.4422,0.0,0.0,0.0,0.0,3.693,3.6811,3.6948,3.7009,3.7027,3.7009,3.7027,3.7062,0.0,0.0,3.6916,3.6853,3.6824,3.6789,3.6923,3.6876,3.683,3.6708,3.6632,3.6632,3.6638,3.6667,3.6719,3.6725,3.6795,3.1923,0.0,0.0,0.0,0.0,3.1712,3.1787,3.1825,3.205,3.2143,3.2064,3.1819,0.0,0.0,0.0,0.0,0.0,0.0,3.2637,3.273,3.3814,3.434,3.4333,3.4837,3.5299,3.5703,3.5707,3.5862,3.6152,3.5214,3.4467,3.3949,0.0,0.0,0.0,0.0,3.496,3.5576,3.572,3.6059,3.6571,3.6571,3.6699,3.6916,3.7005,3.718,3.7504,3.7437,3.7081,3.6407,3.6777,0.0,0.0,0.0,0.0,0.0,0.0,0.0,0.0,0.0,0.0,0.0,0.0,0.0,0.0,0.0,0.0,0.0,0.0,0.0,3.1219,3.155,3.1984,0.0,0.0,0.0,0.0,0.0,0.0,0.0,0.0,0.0,3.4853,3.4953,3.5092,0.0,0.0,3.6156,3.6214,3.6609,3.6908,3.693,3.7147,0.0,0.0,3.7411,3.7644,3.8001,3.847,3.8719,3.8496,3.8513,3.8572,3.8513,3.8555,3.8572,3.8502,3.7644,3.6978,3.6908,3.6908,3.7101,3.7574,3.7714,3.7889,3.4166,3.3616,3.2825,3.2458,3.2425,3.2711,3.2844,3.2899,3.3204,3.328,3.3202,3.3142,3.3039,3.2929,3.2903,0.0,0.0,0.0,3.3974,3.403,3.5324,3.5903,3.5895,3.6332,3.6684,3.6914,3.6906,3.7059,3.7277,3.7312,3.6942,3.6146,0.0,0.0,3.5863,3.6079,3.6506,3.7164,3.7363,3.7631,3.8078,3.8345,3.8617,3.878,3.8528,3.8454,3.8663,3.8355,3.7889,3.7266,3.7528,3.7,0.0,0.0,0.0,0.0,0.0,0.0,0.0,0.0,0.0,0.0,0.0,3.0697,0.0,0.0,0.0,0.0,3.1341,3.1913,3.2364,3.273,0.0,0.0,0.0,0.0,0.0,0.0,0.0,3.4644,3.5422,3.5988,3.5988,3.6174,3.6244,3.6046,3.6574,3.7019,3.7178,0.0,3.79,3.8003,3.816,3.822,3.8259,3.8374,3.8607,3.8972,3.9354,3.9534,3.9305,3.9346,3.9346,3.9322,3.9322,3.9322,3.9322,3.8532,3.7918,3.79,3.79,3.8076,3.8515,3.8585,3.8743,3.6489,3.556,3.3716,3.2931,3.2966,3.3633,3.3939,3.406,3.4725,3.4982,3.4889,3.4751,3.4661,3.4589,3.4475,0.0,3.4439,3.5293,3.5646,3.5609,3.6482,3.6827,3.6719,3.6774,3.7145,3.7794,3.7803,3.814,3.8756,3.884,3.8634,3.8132,3.6602,3.6438,3.7578,3.7757,3.8169,3.8815,3.9175,3.9405,3.9496,4.0166,4.051,4.0492,3.984,3.9478,3.946,3.8771,3.8373,3.8355,3.7594,3.716,3.7087,0.0,0.0,0.0,0.0,0.0,0.0,0.0,0.0,0.0,0.0,0.0,0.0,0.0,0.0,0.0,3.2908,0.0,3.3289,3.3838,0.0,0.0,0.0,3.4359,3.4544,3.5188,3.5605,3.5605,0.0,0.0,3.6789,3.7457,3.7707,3.7091,3.7633,3.8128,3.8286,3.8913,3.9511,3.9451,3.954,3.954,3.9518,3.9793,4.001,4.0143,4.0139,4.0331,4.0093,4.0082,3.9935,4.001,3.9792,3.9845,3.9768,3.9916,3.9733,3.9786,3.9445,3.9269,3.9375,3.948,3.9603,3.7781,3.7513,3.692,3.5916,3.4711,3.4868,3.4948,3.4971,3.5045,3.5018,3.4908,3.4829,3.5042,3.5487,3.5352,3.5615,3.6205,3.6991,3.6983,3.6519,3.7875,3.8209,3.7625,3.8201,3.8572,3.8683,3.8617,3.8649,3.8792,3.878,3.8701,3.8603,3.8076,3.7871,3.7897,3.807,3.8246,3.8427,3.9079,3.9659,4.022,4.0419,4.051,4.051,4.0329,4.0238,4.0256,4.0057,3.9948,3.993,3.9224,3.8536,3.7938,3.7355,0.0,0.0,0.0,0.0,0.0,0.0,0.0,0.0,0.0,3.316,3.2703,0.0,3.3979,0.0,3.4284,3.4353,3.4164,3.4283,0.0,0.0,3.5201,3.5444,3.6075,3.6382,3.6469,3.6406,3.7167,3.7661,3.7679,3.8325,3.8769,3.8695,3.8734,3.8831,3.9024,3.9223,3.9405,3.9587,3.9946,4.007,4.0226,4.1317,4.2264,4.2228,4.3183,4.3718,4.2902,4.3233,4.3525,4.35,4.3433,4.3408,4.3276,4.3408,4.3287,4.297,4.1102,3.9498,4.0059,4.0656,4.1218,3.8547,3.8187,3.8119,3.7527,3.6573,3.6531,3.6517,3.6589,3.6447,3.6315,3.6177,3.5985,3.6101,3.64,3.6283,3.6453,3.6845,3.7575,3.7679,3.7299,3.8507,3.8859,3.8451,3.8897,3.9082,3.9045,3.8998,3.895,3.8851,3.881,3.8964,3.9265,3.914,3.898,3.8834,3.8849,3.8782,3.8596,3.9443,4.0256,4.1017,4.1397,4.1578,4.1542,4.0872,4.051,4.051,3.9858,3.9641,3.9985,3.9623,3.9188,3.8753,3.8301,3.7703,0.0,0.0,0.0,0.0,0.0,0.0,0.0,0.0,0.0,0.0,0.0,3.4853,3.4707,3.5023,3.5122,3.4853,3.5127,3.5491,3.5891,3.6,3.6237,3.6713,3.7126,3.7358,3.7353,3.8058,3.8572,3.8607,3.9238,3.9729,3.9849,4.0411,4.0637,4.0182,4.0329,4.0766,4.1426,4.1722,4.2042,4.2327,4.3371,4.4122,4.4025,4.4617,4.4949,4.4199,4.4321,4.452,4.4432,4.4361,4.4316,4.4334,4.4316,4.4271,4.3951,4.266,4.1657,4.192,4.2342,4.2798,3.9224,3.8547,3.8547,3.8547,3.8535,3.8421,3.8305,3.8208,3.8064,3.7894,3.7731,3.7408,3.7291,3.7318,3.7207,3.7162,3.7187,3.7851,3.8122,3.8125,3.8767,3.9101,3.9101,3.9101,3.9157,3.925,3.925,3.9258,3.9232,3.9243,3.9515,4.006,4.002,3.9955,3.9871,3.9801,3.9547,3.9157,4.0059,4.0963,4.185,4.2429,4.2829,4.2828,4.1542,4.0818,4.0782,3.9514,3.9115,3.9786,3.9749,3.9695,3.9695,3.9586,3.9224,0.0,3.7812,0.0,0.0,0.0,0.0,0.0,0.0,0.0,0.0,3.5488,3.5438,3.4971,3.5507,3.5793,3.5573,3.6162,3.6537,3.6624,3.6741,3.6899,3.7045,3.7743,3.8228,3.8211,3.8971,3.9463,3.9498,4.0217,4.0779,4.0945,4.2115,4.2599,4.176,4.2015,4.2804,4.3926,4.4021,4.4137,4.4979,4.5406,4.55,4.5301,4.54,4.5198,4.4715,4.4707,4.467,4.4516,4.4541,4.4413,4.4296,4.4378,4.4378,4.4384,4.4243,4.4038,4.3799,4.3869,4.4044,4.0442,4.0307,4.0307,4.0307,4.0307,4.0275,3.9477,3.8177,3.8064,3.7795,3.7451,3.7238,3.7479,3.8056,3.8008,3.8353,3.8976,3.8984,3.896,3.896,3.9036,3.9101,3.9101,3.9101,3.9472,4.0123,4.0018,4.0341,4.0996,4.0954,4.0979,4.104,4.0983,4.0738,4.0415,0.0,0.0,0.0,4.058,4.1307,4.2574,4.2286,4.2322,4.2864,4.2611,0.0,4.2411,4.2158,4.2067,4.2194,4.1615,0.0,0.0,0.0,0.0,0.0,0.0,0.0,0.0,0.0,0.0,0.0,3.8,3.7196,3.606,3.6594,3.6763,3.6232,3.6576,3.6663,3.6336,3.6516,3.6846,3.7317,3.7505,3.7791,3.8261,3.8701,3.8933,3.8933,3.9736,4.027,4.0358,4.1481,4.2342,4.2359,4.316,4.3719,4.3651,4.3914,4.4282,4.4436,4.4749,4.5283,4.5983,4.6291,4.6313,4.6181,4.656,4.659,4.6128,4.6291,4.6597,4.6667,4.6579,4.6361,4.6344,4.6397,4.6216,4.61,4.6083,4.5617,4.4249,4.4431,4.4869,4.1042,0.0,4.139,4.1641,0.0,4.2028,4.1532,4.0668,3.9733,3.9122,3.8765,3.8558,3.8667,3.9024,3.9327,3.9708,4.0094,4.039,4.0476,4.044,4.0412,4.0384,4.0327,4.0327,4.055,4.0977,4.0929,4.1093,4.1489,4.1477,4.1632,4.192,4.1807,4.1662,4.1356,4.1685,4.1868,4.1887,4.1814,4.2377,4.3407,4.3137,4.2975,4.2882,4.252,0.0,0.0,0.0,0.0,0.0,0.0,0.0,0.0,0.0,0.0,4.0546,4.051,4.051,4.0492,4.0166,3.9948,3.9948,3.9568,3.8669,3.7113,3.7254,3.7264,3.697,3.7361,3.7527,3.73,3.7696,3.8021,3.8105,3.8287,3.8503,3.8781,3.9234,3.9608,3.973,4.0744,4.1515,4.1533,4.2542,4.3289,4.3377,4.4085,4.4653,4.4653,4.4609,4.4644,4.5124,4.5814,4.6494,4.698,4.7006,4.7047,4.722,4.7325,4.7252,4.6976,4.7101,4.732,4.7407,4.7276,4.7143,4.7053,4.7053,4.7114,4.7322,4.7287,4.7156,4.6429,4.602,4.5831,4.1622,4.2222,4.2241,4.2647,4.3305,4.3305,4.3305,4.3175,0.0,0.0,0.0,4.0395,4.0235,4.0158,4.0747,4.0997,4.0982,4.1592,4.1856,4.1745,4.1716,4.1659,4.1638,4.159,4.1664,4.1794,4.1813,4.1876,4.1946,4.1915,4.231,4.2968,4.2922,4.2883,4.288,4.3196,4.3483,4.3666,4.3356,4.3536,4.4277,4.4207,4.3842,4.3317,4.2701,4.2339,4.2339,4.1705,4.1615,4.2103,4.2122,4.2067,4.1922,4.1922,4.1615,4.0999,4.0944,4.0926,4.0926,4.08,4.0727,4.0727,4.0854,4.0203,3.8474,3.806,3.784,3.7782,3.8188,3.8333,3.8227,3.8818,3.9111,3.8812,3.898,3.912,3.9195,3.9926,4.052,4.0624,4.1823,4.2771,4.2771,4.3576,4.4097,4.4249,4.4906,4.5523,4.5364,4.5099,4.5214,4.6042,4.678,4.75,4.7928,4.7862,4.7874,4.8384,4.8152,4.7883,4.7926,4.7908,4.7821,4.7965,4.7777,4.768,4.7572,4.7553,4.765,4.82,4.8121,4.8102,4.8561,4.7706,4.7005,4.2995,4.3111,4.3111,4.3189,4.3305,4.3305,4.3272,4.3178,4.2768,4.2467,4.2236,4.2041,4.1844,4.168,4.1792,4.1822,4.1822,4.1863,4.1892,4.1884,4.1745,4.1688,4.1688,4.1619,4.1962,4.2593,4.263,4.3002,4.3596,4.3621,4.4016,4.4656,4.4735,4.4899,4.5279,4.518,4.5446,4.5943,4.4681,4.4372,4.5091,4.4517,4.4445,4.4928,4.482,4.4784,4.4784,4.4657,4.4367,4.3806,4.3751,4.3444,4.2774,4.2737,4.2665,4.2574,4.2556,4.2538,4.2538,4.194,4.1542,4.1578,4.2158,4.1812,4.0129,3.9801,3.9575,3.9323,3.9305,3.9188,3.8911,3.9033,3.9234,3.9365,3.9514,3.9802,4.0363,4.1276,4.1856,4.1873,4.2857,4.3558,4.361,4.4336,4.4922,4.5027,4.558,4.6192,4.6365,4.6342,4.6493,4.6972,4.7378,4.7886,4.8471,4.8702,4.8937,4.9539,4.9361,4.9226,4.951,4.9316,4.9271,4.9593,4.9289,4.9144,4.9116,4.893,4.8834,4.8915,4.877,4.8639,4.8782,4.8449,4.836,4.3496,4.3873,4.394,4.4211,4.4602,4.4622,4.4568,4.4538,4.4443,4.3785,4.2776,4.2533,4.2309,4.2209,4.2558,4.2712,4.2731,4.3136,4.3287,4.3203,4.3146,4.304,4.2951,4.2921,4.3095,4.3466,4.3931,4.4339,4.4729,4.5138,4.5514,4.5834,4.5719,4.5917,4.6394,4.6257,4.6499,4.7102,4.6037,4.562,4.5943,4.5639,4.5403,4.5309,4.5291,4.5291,4.5291,4.5291,4.5128,4.4765,4.4747,4.4548,4.4245,4.4225,4.4225,4.417,4.4207,4.4204,4.4204,4.386,4.3661,4.3679,4.3969,4.3876,4.3075,4.1564,4.0596,4.0419,4.0294,4.0129,4.0021,4.0415,4.0674,4.0607,4.1024,4.1395,4.173,4.2375,4.2826,4.2944,4.3746,4.4327,4.423,4.5075,4.5743,4.5922,4.6336,4.6862,4.7364,4.75,4.7529,4.776,4.7922,4.8442,4.926,4.9404,4.9655,5.0173,5.0061,5.0043,5.0296,5.0228,5.0307,5.0314,5.0228,5.0061,4.9947,4.9766,4.9762,4.9972,4.9831,4.9688,4.9939,4.9995,4.9905,4.4129,4.4697,4.4746,4.5132,4.568,4.57,4.57,4.5684,4.5671,4.4855,4.3578,4.3191,4.3016,4.2924,4.3382,4.3557,4.3651,4.4214,4.444,4.4344,4.4314,4.43,4.4346,4.4315,4.4376,4.4612,4.5249,4.5584,4.5644,4.6215,4.6605,4.6739,4.672,4.6911,4.7331,4.7117,4.7266,4.7687,4.7143,4.6776,4.6776,4.6776,4.6468,4.5906,4.587,4.5834,4.5852,4.5852,4.5761,4.558,4.5562,4.5472,4.5312,4.5273,4.5273,4.5276,4.5312,4.5291,4.5309,4.5472,4.558,4.558,4.5743,4.5834,4.5631,4.3692,4.2159,4.1976,4.1647,4.1445,4.1633,4.1941,4.221,4.214,4.252,4.2713,4.2865,4.3266,4.3623,4.3742,4.4513,4.5082,4.5187,4.5737,4.6451,4.6915,4.7155,4.7568,4.834,4.8519,4.8572,4.8808,4.8793,4.9199,5.0206,5.0307,5.0548,5.1059,5.1043,5.1116,5.1219,5.1307,5.1271,5.1261,5.1182,5.1092,5.0791,5.0677,5.0787,5.0946,5.0812,5.0841,5.1067,5.1191,5.1172,4.5488,4.5565,4.5545,4.5638,4.5719,4.5745,4.5767,4.5731,4.5659,4.5547,4.5339,4.5008,4.4763,4.4562,4.4455,4.4421,4.4439,4.4477,4.4543,4.4562,4.4344,4.4677,4.5301,4.5239,4.556,4.615,4.6341,4.6387,4.6409,4.6517,4.6884,4.7556,4.8122,4.8292,4.8328,4.8137,4.7995,4.7902,4.7788,4.7692,4.7609,4.7591,4.7572,4.75,4.7464,4.75,4.7391,4.7482,4.7138,4.6468,4.6377,4.6047,4.5409,4.5305,4.5305,4.5319,4.5323,4.5291,4.5363,4.5979,4.6395,4.645,4.7029,4.7391,4.7373,4.6416,4.5462,4.4653,4.3643,4.3269,4.3855,4.3306,4.3076,4.3515,4.35,4.3432,4.3519,4.3883,4.4267,4.4368,4.5144,4.5784,4.5918,4.6438,4.7074,4.7932,4.805,4.8411,4.9313,4.9493,4.9873,5.0488,5.0317,5.0361,5.1267,5.1615,5.1834,5.2608,5.2767,5.2596,5.2566,5.2602,5.2724,5.2261,5.2473,5.2287,5.2164,5.2162,5.1778,5.1562,5.149,5.1533,5.1384,5.1487,5.15,4.5671,4.5654,4.569,4.5979,4.6408,4.691,4.7122,4.7141,4.7104,4.7086,4.7049,4.6833,4.6437,4.5852,4.5615,4.5779,4.6233,4.6156,4.6073,4.6017,4.5814,4.5879,4.6097,4.6057,4.6229,4.6545,4.6958,4.7203,4.7299,4.7686,4.8091,4.8373,4.8547,4.8569,4.8513,4.8304,4.8108,4.7988,4.7947,4.7925,4.7801,4.7759,4.7699,4.7699,4.7699,4.7699,4.7699,4.7699,4.7536,4.7246,4.721,4.7083,4.6734,4.6739,4.668,4.6716,4.6739,4.6721,4.6721,4.7047,4.7228,4.7228,4.75,4.7699,4.7699,4.7247,4.6819,4.6295,4.5065,4.4303,4.444,4.4129,4.4014,4.428,4.4255,4.4296,4.4362,4.4696,4.5027,4.5267,4.5695,4.6315,4.692,4.7753,4.8461,4.8987,4.907,4.9439,5.025,5.0271,5.0641,5.1459,5.1405,5.1519,5.2196,5.2462,5.2669,5.2846,5.2912,5.2912,5.285,5.2893,5.2831,5.2806,5.2761,5.2672,5.2463,5.2462,5.2246,5.1987,5.179,5.164,5.1556,5.1658,5.169,4.6005,4.6007,4.6236,4.6698,4.7278,4.7855,4.8105,4.8105,4.8105,4.8105,4.8087,4.799,4.7758,4.7315,4.6805,4.6934,4.7441,4.7292,4.7174,4.7099,4.6836,4.6813,4.6954,4.6876,4.6991,4.7274,4.7809,4.8073,4.8097,4.8577,4.8909,4.8839,4.8714,4.8587,4.8513,4.8343,4.8208,4.809,4.8032,4.8028,4.7961,4.8019,4.7977,4.7753,4.7916,4.7935,4.7717,4.7916,4.7935,4.7717,4.7699,4.7699,4.7699,4.7699,4.7699,4.7699,4.7699,4.7699,4.7699,4.7699,4.7699,4.7699,4.7699,4.7699,4.7699,4.7597,4.7468,4.7194,4.6191,4.5459,4.5249,4.5071,4.5017,4.5205,4.5282,4.5326,4.5444,4.5591,4.5787,4.6199,4.6523,4.6966,4.8001,4.8907,4.9582,4.9991,5.0081,5.0368,5.107,5.1144,5.1293,5.2042,5.2209,5.2361,5.2672,5.2733,5.285,5.285,5.2806,5.2761,5.2654,5.2761,5.2761,5.2698,5.2654,5.2563,5.2508,5.248,5.2488,5.2246,5.2041,5.2036,5.2251,5.218,5.2373,4.6836,4.6951,4.7682,4.7971,4.8067,4.8144,4.8163,4.8298,4.8202,4.8163,4.824,4.8202,4.8548,4.9125,4.806,4.7504,4.7536,4.7432,4.7362,4.7306,4.696,4.718,4.7909,4.783,4.8141,4.8702,4.8844,4.8885,4.8797,4.8872,4.8874,4.8787,4.8787,4.8679,4.8513,4.8457,4.8381,4.8187,4.8187,4.8166,4.8119,4.8652,4.8587,4.7971,4.8478,4.8514,4.7935,4.846,4.8514,4.7735,4.7699,4.7699,4.7699,4.7699,4.7699,4.7699,4.7699,4.7699,4.7699,4.7699,4.7699,4.7699,4.7699,4.7699,4.7717,4.7657,4.7554,4.732,4.7096,4.6918,4.6757,4.6141,4.6034,4.6623,4.6571,4.6436,4.6489,4.627,4.6604,4.7251,4.7597,4.813,4.9252,4.9546,5.0271,5.0849,5.0984,5.116,5.1896,5.2072,5.206,5.2286,5.2462,5.259,5.259,5.2654,5.2698,5.2717,5.2761,5.2779,5.2806,5.2806,5.2717,5.2672,5.2627,5.2581,5.2526,5.2534,5.2607,5.2568,5.257,5.2605,5.3163,5.343,5.3574,4.7682,4.7759,4.8586,4.8933,4.899,4.9529,4.976,4.976,4.9779,4.976,4.976,4.976,4.9933,5.0221,4.9733,4.9472,4.9427,4.9169,4.9034,4.8907,4.8614,4.8621,4.8776,4.873,4.8828,4.9094,4.9135,4.9015,4.889,4.889,4.8874,4.8787,4.8697,4.8624,4.8494,4.8419,4.8324,4.8267,4.8247,4.8446,4.8861,4.9168,4.9281,4.9386,4.9554,4.9293,4.8514,4.8768,4.855,4.7735,4.7699,4.7699,4.7699,4.7699,4.7699,4.7699,4.7699,4.7699,4.7699,4.7699,4.7699,4.7699,4.7699,4.7717,4.7699,4.7615,4.7511,4.7381,4.7249,4.734,4.7543,4.7033,4.6659,4.6863,4.672,4.6742,4.7064,4.7008,4.7206,4.8161,4.8891,4.9684,5.0145,5.0755,5.1299,5.1806,5.1718,5.1796,5.2024,5.1987,5.2041,5.2198,5.2275,5.2369,5.2508,5.2581,5.2654,5.2627,5.2627,5.2599,5.2618,5.2599,5.2554,5.259,5.2572,5.2771,5.2806,5.3186,5.3186,5.3295,5.3261,5.3412,5.4254,5.4231,5.4345,4.8702,4.9009,4.9567,4.9817,4.9875,5.0433,5.0683,5.0683,5.0683,5.0683,5.0683,5.0683,5.0683,5.0683,5.0603,5.0542,5.0478,5.0236,5.0082,4.9933,4.9712,4.9518,4.9365,4.9321,4.9257,4.9179,4.9154,4.9033,4.8909,4.889,4.8839,4.8751,4.8918,4.8846,4.8549,4.8601,4.8638,4.8416,4.8583,4.9003,4.9475,4.9929,5.036,5.0739,5.0838,5.0369,4.9365,4.9528,4.9184,4.8279,4.8079,4.7971,4.7753,4.7699,4.7826,4.8061,4.8116,4.8224,4.8405,4.8261,4.8116,4.8079,4.7862,4.7772,4.8025,4.7994,4.7998,4.8091,4.8066,4.8217,4.8376,4.8097,4.7747,4.7747,4.7477,4.7528,4.8024,4.8,4.8352,4.921,5.0222,5.0896,5.1155,5.1615,5.1964,5.2216,5.2071,5.2005,5.2054,5.2238,5.2333,5.2564,5.2967,5.3225,5.3447,5.3642,5.2971,5.2844,5.2771,5.2689,5.2679,5.2643,5.2625,5.2607,5.2733,5.2969,5.3313,5.3748,5.3965,5.4074,5.3869,5.3857,5.4399,5.4863,5.5018,4.9875,5.051,5.0683,5.0587,5.0587,5.0664,5.0683,5.0683,5.0683,5.0683,5.0683,5.0683,5.0683,5.0663,5.0603,5.0521,5.0478,5.0325,5.0182,5.0057,4.9898,4.9683,4.9499,4.9518,4.9402,4.9202,4.9161,4.9055,4.889,4.8909,4.8804,4.8863,4.9492,4.9399,4.8416,4.9191,4.9173,4.8748,4.9136,4.9559,4.9777,5.093,5.1637,5.1822,5.2215,5.171,5.026,5.0814,5.0397,4.913,4.8931,4.8532,4.8025,4.7935,4.8152,4.8804,4.8931,4.9293,4.9782,4.9293,4.8931,4.8858,4.8261,4.8242,4.8804,4.8869,4.9079,4.946,4.9523,4.9575,4.9453,4.9293,4.9156,4.9264,4.8984,4.8989,4.9233,4.9305,4.959,5.0356,5.1204,5.1786,5.1889,5.192,5.2036,5.2054,5.2054,5.2054,5.2138,5.2582,5.3219,5.352,5.3664,5.3857,5.4357,5.478,5.3856,5.3114,5.3041,5.2987,5.315,5.3168,5.3175,5.3193,5.3369,5.3622,5.3966,5.4345,5.452,5.4574,5.4363,5.4399,5.4855,5.5379,5.5761,5.0452,5.0683,5.0683,5.0683,5.0683,5.0683,5.0683,5.0683,5.0683,5.0683,5.0683,5.0683,5.0683,5.0683,5.0643,5.0623,5.0562,5.0457,5.0302,5.0108,5.0031,4.9871,4.9673,4.9625,4.9476,4.9244,4.9183,4.9083,4.8909,4.8909,4.9045,4.9437,4.9677,4.9952,4.9903,4.9795,4.9428,4.926,4.9446,4.985,5.0435,5.1389,5.2137,5.2578,5.2696,5.2381,5.1837,5.1475,5.0796,4.9745,4.9727,4.9601,4.9383,4.9347,4.9456,4.9673,4.9727,4.98,4.9999,4.989,4.9709,4.9673,4.9438,4.9456,4.9673,4.9665,4.9685,4.982,4.9665,4.9668,5.0092,5.0138,4.9942,4.9371,4.9317,4.962,5.0102,5.0584,5.1012,5.1262,5.1597,5.174,5.174,5.184,5.1889,5.1956,5.1956,5.2005,5.2174,5.2528,5.2798,5.3297,5.3742,5.444,5.4873,5.5212,5.4724,5.414,5.3935,5.361,5.3682,5.3736,5.3743,5.3911,5.4133,5.4391,5.4733,5.4878,5.4986,5.5148,5.5098,5.5314,5.5638,5.5857,5.6039,5.0623,5.0623,5.0623,5.0623,5.0623,5.0623,5.0623,5.0623,5.0623,5.0643,5.0643,5.0663,5.0682,5.0702,5.0682,5.0663,5.0602,5.05,5.0371,5.0231,5.0182,5.0057,4.9843,4.9673,4.9518,4.9296,4.9141,4.903,4.8876,4.9137,4.9418,4.9713,5.0044,5.0207,5.0365,4.9866,4.9481,4.9205,4.9428,4.9979,5.0784,5.1573,5.232,5.2914,5.2955,5.285,5.2707,5.2162,5.1492,5.074,5.0343,5.018,5.0152,5.0108,5.0253,5.0488,5.056,5.0669,5.0886,5.0741,5.0524,5.0506,5.0253,5.0253,5.0416,5.0461,5.0462,5.0631,5.0581,5.0647,5.095,5.0959,5.0709,5.0281,5.0245,5.0423,5.0941,5.1369,5.1637,5.1654,5.169,5.169,5.169,5.169,5.174,5.1808,5.1808,5.2072,5.2315,5.2759,5.3243,5.3922,5.4763,5.5245,5.5422,5.5512,5.5545,5.5252,5.4977,5.4562,5.4375,5.4296,5.4283,5.4697,5.4903,5.5245,5.5587,5.5425,5.5443,5.559,5.5466,5.541,5.5374,5.5666,5.5847,5.05,5.05,5.05,5.0521,5.0521,5.0521,5.0521,5.05,5.0521,5.0542,5.0582,5.0584,5.0623,5.0663,5.0623,5.0603,5.0582,5.0457,5.0412,5.0348,5.0302,5.0163,5.0031,4.9722,4.951,4.9382,4.9123,4.8911,4.8863,4.9289,4.975,4.9766,5.028,5.0459,4.9979,4.9664,4.9242,4.882,4.9265,4.9981,5.0784,5.1555,5.2362,5.3109,5.306,5.2999,5.2937,5.2758,5.2379,5.1591,5.0949,5.0659,5.0493,5.0325,5.0733,5.1321,5.1339,5.1683,5.21,5.1719,5.1357,5.1321,5.085,5.0506,5.123,5.1375,5.1483,5.1903,5.1916,5.1892,5.175,5.1651,5.1565,5.1654,5.1405,5.1494,5.1637,5.1672,5.169,5.169,5.169,5.169,5.169,5.169,5.1708,5.1726,5.183,5.2258,5.2705,5.3361,5.4432,5.5006,5.5416,5.5773,5.5861,5.6057,5.6057,5.5998,5.5746,5.544,5.5166,5.5065,5.5068,5.5446,5.5538,5.5951,5.6023,5.5648,5.5343,5.5163,5.5004,5.4948,5.5165,5.5526,5.5902,5.05,5.05,5.05,5.05,5.05,5.05,5.05,5.05,5.05,5.05,5.0521,5.0521,5.0542,5.0542,5.0542,5.054,5.05,5.0435,5.0367,5.0325,5.0236,5.0163,5.0082,4.9824,4.9644,4.9476,4.9289,4.9108,4.8882,4.9085,4.9326,4.9691,4.993,5.0202,5.0343,4.9829,4.9517,4.9297,4.9428,4.9979,5.0784,5.1555,5.238,5.3115,5.306,5.2999,5.2999,5.2955,5.2857,5.2506,5.2287,5.2116,5.19,5.1855,5.1901,5.2027,5.2154,5.2226,5.2371,5.2281,5.2154,5.2172,5.1846,5.1955,5.2136,5.2172,5.2188,5.2216,5.2102,5.2005,5.1808,5.174,5.169,5.169,5.1744,5.1762,5.1744,5.169,5.169,5.169,5.1762,5.1815,5.1851,5.1779,5.1779,5.1833,5.2101,5.26,5.3098,5.3546,5.4383,5.4937,5.5419,5.592,5.6277,5.6492,5.6599,5.6562,5.6471,5.6328,5.6131,5.6113,5.6168,5.6331,5.5865,5.6044,5.5705,5.5312,5.5008,5.4774,5.4971,5.5026,5.533,5.5687,5.6062,5.0435,5.0416,5.0416,5.0416,5.0435,5.0416,5.0416,5.0416,5.0416,5.0435,5.0457,5.0457,5.0459,5.05,5.05,5.05,5.05,5.0416,5.039,5.0325,5.0236,5.0163,5.0082,4.9944,4.975,4.9627,4.9427,4.9206,4.9047,4.914,4.9437,4.9656,4.9671,4.9908,5.0105,4.9481,4.9058,4.9022,4.9077,4.9572,5.0747,5.1242,5.2123,5.2931,5.3103,5.3103,5.3103,5.3103,5.3017,5.2893,5.2857,5.2795,5.268,5.2617,5.2563,5.248,5.2498,5.248,5.2498,5.2498,5.2498,5.248,5.2498,5.2498,5.2462,5.2498,5.2405,5.2198,5.215,5.2005,5.1858,5.174,5.169,5.1726,5.1993,5.2172,5.219,5.2225,5.2368,5.2547,5.2671,5.2671,5.2654,5.2404,5.2225,5.219,5.2154,5.2725,5.3296,5.3778,5.442,5.5169,5.5616,5.6062,5.6313,5.6492,5.6546,5.6635,5.6617,5.6582,5.66,5.6564,5.6331,5.6188,5.6044,5.5812,5.5437,5.5098,5.4795,5.4759,5.4991,5.5223,5.5455,5.583,5.6222,5.0302,5.0302,5.0302,5.0302,5.0302,5.0302,5.0302,5.0302,5.0302,5.0367,5.0371,5.039,5.0416,5.0459,5.0457,5.0478,5.0478,5.0412,5.0371,5.0325,5.0231,5.0133,5.0063,4.9978,4.9857,4.9762,4.9531,4.9334,4.9224,4.9557,4.9676,4.9528,4.945,4.9446,4.9334,4.8728,4.8379,4.8416,4.8471,4.9297,5.0508,5.0967,5.172,5.2986,5.3206,5.3164,5.3164,5.3164,5.3164,5.306,5.2999,5.2937,5.2806,5.2698,5.2608,5.2526,5.248,5.2498,5.2498,5.2498,5.2498,5.2498,5.2498,5.2498,5.2498,5.2498,5.2452,5.2311,5.215,5.2054,5.1858,5.1758,5.169,5.1797,5.235,5.2814,5.2975,5.2993,5.3278,5.3867,5.3974,5.401,5.3849,5.3474,5.2957,5.2582,5.2636,5.3118,5.3671,5.417,5.4991,5.5955,5.6204,5.6294,5.6365,5.6383,5.6437,5.6437,5.6492,5.6437,5.6437,5.6348,5.6062,5.5865,5.6044,5.5812,5.533,5.4991,5.4741,5.4813,5.5134,5.5259,5.5437,5.5955,5.6383,5.0302,5.0302,5.0302,5.0302,5.0302,5.0302,5.0302,5.0302,5.0302,5.0302,5.0325,5.0325,5.0325,5.0348,5.0348,5.0348,5.0367,5.0325,5.0283,5.0231,5.0089,5.0038,5.0012,4.9978,4.9955,4.9853,4.9712,4.9531,4.9435,4.9364,4.9269,4.8992,4.9011,4.879,4.8601,4.851,4.8324,4.8324,4.8324,4.915,5.0417,5.0839,5.1573,5.3023,5.3206,5.3206,5.3206,5.3206,5.3164,5.3164,5.3164,5.306,5.2955,5.2806,5.2717,5.2581,5.2508,5.248,5.2498,5.2498,5.2498,5.2498,5.2498,5.2498,5.2498,5.2498,5.2452,5.2311,5.2198,5.1987,5.179,5.174,5.169,5.1851,5.244,5.3171,5.3617,5.3778,5.3903,5.4063,5.4135,5.3993,5.4081,5.401,5.3581,5.3118,5.3207,5.3617,5.4081,5.4527,5.5277,5.6186,5.6383,5.6383,5.6383,5.6383,5.6383,5.6383,5.6383,5.6383,5.6383,5.6329,5.6079,5.6097,5.6258,5.5847,5.5259,5.5187,5.5009,5.5134,5.5312,5.5562,5.5847,5.6258,5.6383,5.0302,5.0302,5.0302,5.0302,5.0302,5.0302,5.0302,5.0302,5.0302,5.0302,5.0302,5.0302,5.0302,5.0302,5.0302,5.0302,5.0302,5.0302,5.0278,5.0207,5.0108,5.0031,5.0005,4.9978,4.994,4.9903,4.9852,4.9711,4.9561,4.9416,4.9257,4.899,4.8906,4.8768,4.8514,4.8439,4.8382,4.8324,4.8324,4.8948,5.0031,5.0655,5.1573,5.2876,5.3206,5.3206,5.3206,5.3206,5.3206,5.3206,5.3206,5.3164,5.3042,5.2937,5.2806,5.2654,5.2563,5.2526,5.2526,5.2498,5.2498,5.2498,5.2498,5.2498,5.2498,5.2498,5.2498,5.2358,5.2198,5.1987,5.174,5.169,5.169,5.1922,5.2725,5.3546,5.3974,5.4331,5.4759,5.4991,5.5223,5.5223,5.5116,5.4777,5.4509,5.417,5.31,5.3474,5.4331,5.4795,5.5241,5.5901,5.624,5.6383,5.6383,5.6383,5.6383,5.6383,5.6383,5.6383,5.6383,5.6329,5.6222,5.6186,5.6062,5.5723,5.5259,5.5241,5.5437,5.5723,5.5937,5.6079,5.6186,5.6329,5.6383,5.0302,5.0302,5.0302,5.0302,5.0302,5.0302,5.0302,5.0302,5.0302,5.0302,5.0302,5.0302,5.0302,5.0302,5.0302,5.0302,5.0302,5.0302,5.0278,5.0212,5.0133,5.0063,5.0031,4.9952,4.9925,4.9879,4.9898,4.9803,4.9711,4.9608,4.9469,4.9302,4.9174,4.899,4.8818,4.8695,4.8587,4.8458,4.8382,4.8767,4.9646,5.0435,5.161,5.2894,5.3206,5.3206,5.3206,5.3206,5.3206,5.3206,5.3206,5.3164,5.306,5.2999,5.2893,5.2654,5.2608,5.2536,5.2526,5.2498,5.2498,5.2498,5.2498,5.2498,5.2498,5.2498,5.2498,5.2405,5.2293,5.2036,5.179,5.1758,5.1758,5.1976,5.3082,5.3885,5.4188,5.4795,5.5616,5.6044,5.599,5.5901,5.5883,5.5669,5.5455,5.5062,5.3974,5.3457,5.4331,5.4955,5.5348,5.5705,5.6079,5.6365,5.6383,5.6383,5.6383,5.6383,5.6383,5.6383,5.6383,5.6347,5.624,5.5883,5.5669,5.5508,5.5544,5.5633,5.5901,5.6294,5.6365,5.6294,5.6311,5.6383,5.6383,5.0302,5.0302,5.0302,5.0302,5.0302,5.0302,5.0302,5.0302,5.0302,5.0302,5.0302,5.0302,5.0302,5.0302,5.0302,5.0302,5.0302,5.0278,5.0259,5.0231,5.0158,5.0082,5.0057,4.9933,4.9906,4.9879,4.9879,4.986,4.986,4.9824,4.9665,4.9499,4.9439,4.9265,4.909,4.8974,4.8837,4.8641,4.8587,4.8956,4.9504,5.0398,5.1499,5.2931,5.3151,5.3206,5.3206,5.3206,5.3206,5.3206,5.3206,5.3182,5.3146,5.3042,5.2955,5.2806,5.2654,5.2581,5.2526,5.2498,5.2498,5.2498,5.2498,5.2498,5.2498,5.2498,5.2498,5.2452,5.2358,5.215,5.1907,5.1983,5.1879,5.2169,5.3064,5.4081,5.4349,5.5187,5.6097,5.6347,5.6383,5.6383,5.6258,5.6133,5.5901,5.5526,5.4813,5.4259,5.4598,5.5009,5.5277,5.5616,5.5937,5.6204,5.6383,5.6383,5.6383,5.6383,5.6383,5.6383,5.6383,5.6383,5.6222,5.599,5.599,5.6062,5.6079,5.6062,5.6151,5.6365,5.6383,5.6383,5.6383,5.6383,5.6383,5.0302,5.0302,5.0302,5.0302,5.0302,5.0302,5.0302,5.0302,5.0302,5.0302,5.0302,5.0302,5.0302,5.0302,5.0302,5.0278,5.0255,5.0236,5.0212,5.0182,5.0108,5.0038,5.0057,4.9952,4.9925,4.9879,4.9879,4.9879,4.9879,4.9898,4.9824,4.9722,4.9665,4.9548,4.9346,4.9239,4.909,4.8937,4.8837,4.8916,4.9251,5.0223,5.1444,5.2307,5.3004,5.3188,5.3206,5.3206,5.3206,5.3206,5.3206,5.3206,5.3164,5.3103,5.2999,5.285,5.2743,5.2627,5.2526,5.2498,5.2498,5.2498,5.2498,5.2498,5.2498,5.2498,5.2434,5.2405,5.2394,5.2396,5.2498,5.2498,5.2612,5.3044,5.3903,5.4474,5.4866,5.5758,5.6169,5.6383,5.6383,5.6383,5.6383,5.6276,5.6186,5.5865,5.5473,5.5169,5.492,5.508,5.5277,5.5776,5.6115,5.6204,5.6383,5.6383,5.6383,5.6383,5.6383,5.6383,5.6383,5.6383,5.6383,5.6294,5.6365,5.6383,5.6347,5.624,5.6329,5.6383,5.6383,5.6383,5.6383,5.6383,5.6383,5.0325,5.0302,5.0302,5.0302,5.0302,5.0302,5.0302,5.0302,5.0302,5.0302,5.0302,5.0302,5.0302,5.0302,5.0278,5.0255,5.0207,5.0207,5.0139,5.0108,5.0038,4.9986,4.9959,4.9933,4.9879,4.9879,4.9879,4.9879,4.9879,4.9879,4.9879,4.9871,4.9835,4.9759,4.9588,4.9537,4.9365,4.922,4.9108,4.8993,4.9287,5.0044,5.1121,5.1926,5.2637,5.2986,5.3188,5.3206,5.3206,5.3206,5.3206,5.3206,5.3206,5.3206,5.306,5.2893,5.2806,5.269,5.2554,5.2498,5.2498,5.2498,5.2498,5.2498,5.2498,5.2498,5.2434,5.2358,5.2611,5.275,5.301,5.3265,5.3522,5.3867,5.4563,5.5223,5.533,5.5776,5.624,5.6383,5.6383,5.6329,5.6294,5.6383,5.6276,5.6044,5.5633,5.5045,5.4866,5.508,5.5384,5.6008,5.6329,5.6329,5.6383,5.6383,5.6383,5.6383,5.6383,5.6383,5.6383,5.6383,5.6383,5.6383,5.6383,5.6383,5.6383,5.6383,5.6383,5.6383,5.6383,5.6383,5.6383,5.6383,5.6383,5.0393,5.0302,5.0302,5.0302,5.0302,5.0302,5.0302,5.0302,5.0302,5.0302,5.0302,5.0302,5.0302,5.0278,5.0236,5.0212,5.0182,5.0133,5.0089,5.0038,5.0012,4.9986,4.9986,4.9952,4.9906,4.9879,4.9879,4.9879,4.9879,4.9879,4.9879,4.9898,4.9898,4.9871,4.9797,4.9759,4.9655,4.9469,4.9334,4.9426,4.9763,4.9917,5.0802,5.1719,5.2247,5.2546,5.3096,5.3206,5.3206,5.3206,5.3206,5.3206,5.3206,5.3206,5.3121,5.2999,5.285,5.2743,5.2608,5.2554,5.2635,5.2653,5.2607,5.2516,5.2752,5.2788,5.277,5.2516,5.3067,5.3514,5.3612,5.3904,5.4125,5.4436,5.4955,5.5259,5.5401,5.5544,5.6026,5.6026,5.5901,5.6044,5.6097,5.6258,5.6347,5.6097,5.5758,5.5098,5.4813,5.5009,5.5508,5.6133,5.6383,5.6383,5.6383,5.6383,5.6383,5.6383,5.6383,5.6383,5.6383,5.6383,5.6383,5.6383,5.6383,5.6383,5.6383,5.6383,5.6383,5.6383,5.6383,5.6383,5.6383,5.6383,5.6383,5.0565,5.0393,5.0325,5.0302,5.0302,5.0302,5.0302,5.0302,5.0302,5.0302,5.0302,5.0302,5.0302,5.0278,5.0212,5.0163,5.0158,5.0082,5.0012,4.9986,4.9978,4.9952,4.9952,4.9925,4.9879,4.9879,4.9879,4.9879,4.9879,4.9879,4.9879,4.9879,4.9879,4.9898,4.9879,4.9871,4.9797,4.9693,4.9537,4.9502,4.9668,4.9947,5.0491,5.1486,5.1867,5.2467,5.2949,5.3206,5.3206,5.3206,5.3206,5.3206,5.3206,5.3206,5.3164,5.3103,5.2999,5.285,5.2717,5.269,5.2863,5.318,5.3261,5.3479,5.3722,5.3802,5.3802,5.3892,5.4164,5.4363,5.4507,5.4871,5.5165,5.5383,5.5455,5.5562,5.5633,5.5473,5.5616,5.5526,5.5384,5.5366,5.5366,5.5437,5.5384,5.5134,5.4902,5.4509,5.4509,5.4866,5.5491,5.6258,5.6383,5.6383,5.6383,5.6383,5.6383,5.6383,5.6383,5.6383,5.6383,5.6383,5.6383,5.6383,5.6383,5.6383,5.6383,5.6383,5.6383,5.6383,5.6383,5.6383,5.6383,5.6383,5.6383,5.0702,5.0523,5.0393,5.0325,5.0302,5.0302,5.0302,5.0302,5.0302,5.0302,5.0302,5.0302,5.0302,5.0278,5.0231,5.0158,5.0089,5.0012,4.9933,4.9906,4.9879,4.9906,4.9906,4.9879,4.9879,4.9879,4.9879,4.9879,4.9879,4.9879,4.9879,4.9879,4.9879,4.9879,4.9879,4.9898,4.9871,4.9797,4.9665,4.9555,4.9553,4.9791,5.0242,5.0843,5.1505,5.2235,5.2808,5.317,5.3206,5.3206,5.3206,5.3206,5.3206,5.3206,5.3206,5.3164,5.3103,5.3017,5.2912,5.2878,5.3198,5.3663,5.4099,5.4288,5.4617,5.4907,5.4888,5.4707,5.5051,5.5266,5.5566,5.5749,5.5989,5.6098,5.608,5.6152,5.6027,5.5473,5.4991,5.483,5.4598,5.4188,5.4242,5.4402,5.4331,5.4099,5.392,5.3778,5.4081,5.4491,5.5169,5.5865,5.6329,5.6365,5.6383,5.6383,5.6383,5.6383,5.6383,5.6383,5.6383,5.6383,5.6383,5.6383,5.6383,5.6383,5.6383,5.6383,5.6383,5.6383,5.6383,5.6383,5.6383,5.6383,5.6383,5.072,5.0586,5.0523,5.0412,5.0302,5.0302,5.0302,5.0302,5.0302,5.0302,5.0302,5.0302,5.0302,5.0278,5.0182,5.0108,5.0108,4.9959,4.9906,4.9906,4.9879,4.9879,4.9879,4.9879,4.9879,4.9879,4.9879,4.9879,4.9879,4.9879,4.9879,4.9879,4.9879,4.9879,4.9879,4.9879,4.9871,4.9843,4.9759,4.9731,4.9585,4.964,4.9809,5.0354,5.0898,5.1388,5.211,5.2839,5.3206,5.3206,5.3206,5.3206,5.3206,5.3206,5.3206,5.3164,5.3164,5.3121,5.306,5.301,5.3261,5.3873,5.4581,5.5123,5.5335,5.5051,5.4961,5.5214,5.5703,5.5822,5.6031,5.6305,5.6561,5.6509,5.6295,5.5937,5.5562,5.4812,5.4419,5.4152,5.3796,5.3332,5.3135,5.3296,5.3439,5.326,5.3118,5.2993,5.3439,5.3903,5.4581,5.5294,5.6062,5.6311,5.6383,5.6383,5.6383,5.6383,5.6383,5.6383,5.6383,5.6383,5.6383,5.6383,5.6383,5.6383,5.6383,5.6383,5.6383,5.6383,5.6383,5.6383,5.6383,5.6383,5.6383,5.0345,5.07,5.0586,5.0462,5.0302,5.0302,5.0302,5.0302,5.0302,5.0302,5.0302,5.0302,5.0302,5.0255,5.0182,5.0108,5.0082,4.9978,4.9925,4.9879,4.9879,4.9879,4.9879,4.9879,4.9879,4.9879,4.9879,4.9879,4.9879,4.9879,4.9879,4.9879,4.9879,4.9879,4.9879,4.9879,4.9898,4.9871,4.9843,4.9816,4.975,4.9768,5.0115,5.1185,5.1096,5.1918,5.2834,5.3051,5.317,5.3206,5.3206,5.3206,5.3206,5.3206,5.3206,5.3206,5.3206,5.3206,5.3261,5.3231,5.3584,5.4848,5.5804,5.6443,5.6255,5.6296,5.6301,5.6464,5.6428,5.64,5.6569,5.6735,5.6845,5.6722,5.6312,5.5845,5.5203,5.4452,5.3848,5.3617,5.2975,5.235,5.2225,5.219,5.2332,5.2422,5.2315,5.2332,5.2814,5.3492,5.4242,5.5009,5.5794,5.6294,5.6383,5.6383,5.6383,5.6383,5.6383,5.6383,5.6383,5.6383,5.6383,5.6383,5.6383,5.6383,5.6383,5.6383,5.6383,5.6383,5.6383,5.6383,5.6383,5.6383,5.6383,4.9988,5.0426,5.0548,5.0506,5.0371,5.0325,5.0302,5.0302,5.0302,5.0302,5.0302,5.0302,5.0302,5.0255,5.0182,5.0108,5.0082,5.0005,4.9952,4.9925,4.9879,4.9879,4.9879,4.9879,4.9879,4.9879,4.9879,4.9879,4.9879,4.9879,4.9879,4.9879,4.9879,4.9879,4.9879,4.9879,4.9879,4.9879,4.9879,4.9871,4.9835,4.9863,5.022,5.1292,5.133,5.1899,5.2728,5.3079,5.3188,5.3206,5.3206,5.3206,5.3206,5.3206,5.3206,5.3206,5.3206,5.3206,5.328,5.3849,5.4338,5.5285,5.6627,5.7195,5.7388,5.727,5.6998,5.6609,5.6717,5.6722,5.6512,5.6118,5.6317,5.6106,5.5785,5.5353,5.4858,5.4182,5.3596,5.3133,5.2615,5.2386,5.2761,5.2796,5.235,5.2332,5.2011,5.2065,5.2368,5.3135,5.4099,5.4884,5.5669,5.6079,5.6383,5.6383,5.6383,5.6383,5.6383,5.6383,5.6383,5.6383,5.6383,5.6383,5.6383,5.6383,5.6383,5.6383,5.6383,5.6383,5.6383,5.6383,5.6383,5.6383,5.6383,4.9641,4.9618,5.0298,5.0566,5.0478,5.0348,5.0302,5.0302,5.0302,5.0302,5.0302,5.0302,5.0302,5.0278,5.0188,5.0114,5.0082,5.0031,4.9978,4.9925,4.9879,4.9879,4.9879,4.9879,4.9879,4.9879,4.9879,4.9879,4.9879,4.9879,4.9879,4.9879,4.9879,4.9879,4.9879,4.9879,4.9879,4.9879,4.9879,4.9898,4.989,4.9929,5.0524,5.1129,5.1544,5.214,5.2808,5.3097,5.3188,5.3206,5.3206,5.3206,5.3206,5.3206,5.3206,5.3206,5.3206,5.3206,5.328,5.4656,5.5218,5.544,5.6611,5.7193,5.734,5.7224,5.683,5.6115,5.6029,5.5636,5.5225,5.5008,5.5428,5.5555,5.5252,5.504,5.4597,5.3979,5.3376,5.3041,5.3026,5.3064,5.3564,5.3689,5.2886,5.2404,5.1886,5.1851,5.2083,5.2957,5.401,5.4688,5.5473,5.6079,5.6383,5.6383,5.6383,5.6383,5.6383,5.6383,5.6383,5.6383,5.6383,5.6383,5.6383,5.6383,5.6383,5.6383,5.6383,5.6383,5.6383,5.6383,5.6383,5.6383,5.6383,4.915,4.9663,5.0279,5.0526,5.0464,5.0371,5.0302,5.0302,5.0302,5.0302,5.0278,5.0236,5.0212,5.0212,5.0182,5.0089,5.0038,5.0031,4.9978,4.9925,4.9879,4.9879,4.9879,4.9879,4.9879,4.9879,4.9879,4.9879,4.9879,4.9879,4.9879,4.9879,4.9879,4.9879,4.9879,4.9879,4.9879,4.9879,4.9879,4.9898,4.9974,5.042,5.1026,5.1744,5.2109,5.2619,5.3256,5.333,5.3212,5.3206,5.3206,5.3206,5.3206,5.3206,5.3206,5.3206,5.3206,5.3206,5.3427,5.4216,5.4987,5.5467,5.5971,5.6556,5.6737,5.6139,5.5698,5.542,5.5299,5.4985,5.493,5.4876,5.5129,5.5129,5.4954,5.4869,5.4481,5.3824,5.3207,5.3107,5.3024,5.349,5.3956,5.4045,5.3439,5.2903,5.244,5.1922,5.1958,5.3028,5.4081,5.4563,5.5223,5.5955,5.6383,5.6383,5.6383,5.6383,5.6383,5.6383,5.6383,5.6383,5.6383,5.6383,5.6383,5.6383,5.6383,5.6383,5.6383,5.6383,5.6383,5.6383,5.6383,5.6383,5.6383,4.845,4.9289,4.9856,5.0257,5.0427,5.0306,5.0231,5.0231,5.0231,5.0231,5.0231,5.0163,5.0163,5.0158,5.0133,5.0057,4.9986,4.9986,4.9978,4.9906,4.9879,4.9879,4.9879,4.9879,4.9879,4.9879,4.9879,4.9879,4.9879,4.9879,4.9879,4.9879,4.9879,4.9879,4.9879,4.9879,4.9879,4.9879,4.9879,4.9879,5.0144,5.0675,5.1547,5.2208,5.2755,5.3262,5.3646,5.3641,5.3314,5.323,5.3206,5.3206,5.3206,5.3206,5.3206,5.3206,5.3206,5.3206,5.3408,5.3573,5.4326,5.506,5.5284,5.5697,5.6036,5.5595,5.5036,5.4771,5.4538,5.4291,5.4182,5.4218,5.4291,5.4291,5.4424,5.4321,5.4218,5.3495,5.3253,5.3153,5.3345,5.3812,5.4384,5.4099,5.3903,5.3457,5.3028,5.2475,5.2029,5.31,5.4081,5.4563,5.5205,5.6008,5.6383,5.6383,5.6383,5.6383,5.6383,5.6383,5.6383,5.6383,5.6383,5.6383,5.6383,5.6383,5.6383,5.6383,5.6383,5.6383,5.6383,5.6383,5.6383,5.6383,5.6383,4.7599,4.84,4.9028,4.9777,5.031,5.0155,5.0108,5.0108,5.0108,5.0108,5.0108,5.0108,5.0108,5.0089,5.0082,5.0057,5.0005,4.9986,4.9959,4.9925,4.9879,4.9879,4.9879,4.9879,4.9879,4.9879,4.9879,4.9879,4.9879,4.9879,4.9879,4.9879,4.9879,4.9879,4.9879,4.9879,4.9879,4.9879,4.9879,4.9993,5.0315,5.0978,5.185,5.2578,5.3151,5.3568,5.3811,5.37,5.344,5.3314,5.3206,5.3206,5.3206,5.3206,5.3206,5.3206,5.3206,5.3206,5.3225,5.3371,5.3628,5.4344,5.4932,5.5291,5.5294,5.4957,5.4364,5.3981,5.3715,5.3233,5.2878,5.2987,5.3096,5.3331,5.3639,5.3646,5.3622,5.3381,5.3248,5.3365,5.3701,5.4276,5.5366,5.533,5.4188,5.401,5.3528,5.2921,5.2671,5.3242,5.4099,5.4563,5.5259,5.6133,5.6383,5.6383,5.6383,5.6383,5.6383,5.6383,5.6383,5.6383,5.6383,5.6383,5.6383,5.6383,5.6383,5.6383,5.6383,5.6383,5.6383,5.6383,5.6383,5.6383,5.6383,4.725,4.7603,4.8831,4.9452,4.9597,4.9847,4.9986,5.0108,5.0108,5.0127,5.0108,5.0038,5.0031,5.0031,5.0031,5.0005,4.9978,4.9959,4.9933,4.9906,4.9879,4.9879,4.9879,4.9879,4.9879,4.9879,4.9879,4.9879,4.9879,4.9879,4.9879,4.9879,4.9879,4.9879,4.9879,4.9879,4.9879,4.9879,4.9879,5.022,5.0789,5.1528,5.2381,5.3118,5.3742,5.4067,5.3904,5.3758,5.3502,5.3272,5.3206,5.3206,5.3206,5.3206,5.3206,5.3206,5.3206,5.3206,5.3206,5.3206,5.3353,5.3573,5.3904,5.4234,5.4276,5.4133,5.3598,5.3354,5.3154,5.2771,5.2635,5.2643,5.2679,5.2842,5.3096,5.3139,5.3164,5.3033,5.2972,5.3626,5.3982,5.4774,5.5902,5.5312,5.4348,5.4295,5.4045,5.3439,5.3314,5.3867,5.4242,5.4706,5.5384,5.6276,5.6383,5.6383,5.6383,5.6383,5.6383,5.6383,5.6383,5.6383,5.6383,5.6383,5.6383,5.6383,5.6383,5.6383,5.6383,5.6383,5.6383,5.6383,5.6383,5.6383,5.649,4.6786,4.7197,4.8017,4.8644,4.9143,4.9771,5.0031,5.0012,5.0012,5.0031,5.0031,4.9959,4.9978,4.9978,4.9978,4.9952,4.9906,4.9933,4.9933,4.9906,4.9879,4.9879,4.9879,4.9879,4.9879,4.9879,4.9879,4.9879,4.9879,4.9879,4.9879,4.9879,4.9879,4.9879,4.9879,4.9879,4.9879,4.9879,5.0012,5.0448,5.1187,5.2021,5.2836,5.3659,5.4289,5.4326,5.4033,5.3795,5.3542,5.3272,5.3206,5.3206,5.3206,5.3206,5.3206,5.3206,5.3206,5.3206,5.3206,5.3206,5.3206,5.3206,5.3206,5.3482,5.3567,5.3481,5.3149,5.2933,5.2726,5.2563,5.2508,5.2498,5.2498,5.2516,5.2643,5.2752,5.2687,5.2575,5.3087,5.3747,5.4439,5.5181,5.531,5.4776,5.4526,5.4598,5.4527,5.4117,5.4081,5.4491,5.4723,5.5009,5.5669,5.6383,5.6383,5.6383,5.6383,5.6383,5.6383,5.6383,5.6383,5.6383,5.6383,5.6383,5.6383,5.6383,5.6383,5.6383,5.6383,5.6383,5.6383,5.6383,5.6383,5.6383,5.6561,4.6264,4.696,4.6937,4.7799,4.8976,4.973,4.9993,4.9906,4.9925,4.9906,4.9925,4.9906,4.9906,4.9925,4.9925,4.9925,4.9879,4.9906,4.9906,4.9879,4.9879,4.9879,4.9879,4.9879,4.9879,4.9879,4.9879,4.9879,4.9879,4.9879,4.9879,4.9879,4.9879,4.9879,4.9879,4.9879,4.9879,4.9879,5.0031,5.0372,5.1319,5.2115,5.2836,5.3773,5.4326,5.4571,5.4142,5.3889,5.3699,5.3378,5.3206,5.3206,5.3206,5.3206,5.3206,5.3206,5.3206,5.3206,5.3206,5.3206,5.3206,5.3206,5.3206,5.328,5.3274,5.3231,5.3054,5.2868,5.2761,5.2608,5.2554,5.2526,5.2498,5.2498,5.2552,5.2806,5.2958,5.3002,5.3388,5.4007,5.4431,5.5212,5.6041,5.5613,5.5169,5.5134,5.4884,5.4598,5.4884,5.5223,5.5294,5.5401,5.5883,5.6383,5.6383,5.6383,5.6383,5.6383,5.6383,5.6383,5.6383,5.6383,5.6383,5.6383,5.6383,5.6383,5.6383,5.6383,5.6383,5.6383,5.6383,5.6383,5.6418,5.6508,5.6775,4.5916,4.6167,4.6687,4.776,4.9034,4.9167,4.9518,4.9887,4.9879,4.9879,4.9879,4.9879,4.9879,4.9879,4.9879,4.9879,4.9879,4.9879,4.9879,4.9879,4.9879,4.9879,4.9879,4.9879,4.9879,4.9879,4.9879,4.9879,4.9879,4.9879,4.9879,4.9879,4.9879,4.9879,4.9879,4.9879,4.9879,4.9879,4.9974,5.0675,5.1907,5.24,5.3006,5.4086,5.481,5.4584,5.4212,5.398,5.368,5.3314,5.3206,5.3206,5.3206,5.3206,5.3206,5.3206,5.3206,5.3206,5.3206,5.3206,5.3206,5.3206,5.3206,5.3206,5.3164,5.3164,5.3121,5.2974,5.2824,5.2717,5.2581,5.2508,5.2498,5.2498,5.2516,5.2896,5.3259,5.3519,5.3761,5.42,5.4585,5.531,5.6217,5.6382,5.6026,5.5598,5.5312,5.5169,5.5633,5.5972,5.5901,5.5972,5.6079,5.6383,5.6383,5.6383,5.6383,5.6383,5.6383,5.6383,5.6383,5.6383,5.6383,5.6383,5.6383,5.6383,5.6383,5.6383,5.6383,5.6383,5.6418,5.6436,5.6775,5.6954,5.7221,4.58,4.5916,4.6654,4.7638,4.8625,4.8939,4.943,4.9943,4.9952,4.9879,4.9879,4.9879,4.9879,4.9879,4.9879,4.9879,4.9879,4.9879,4.9879,4.9879,4.9879,4.9879,4.9879,4.9879,4.9879,4.9879,4.9879,4.9879,4.9879,4.9879,4.9879,4.9879,4.9879,4.9879,4.9879,4.9879,4.9879,4.9879,4.9898,5.0865,5.2229,5.257,5.3271,5.4389,5.481,5.4584,5.4368,5.4106,5.3738,5.344,5.3314,5.3206,5.3206,5.3206,5.3206,5.3206,5.3206,5.3206,5.3206,5.3206,5.3206,5.3206,5.3206,5.3206,5.3206,5.3164,5.3121,5.3017,5.2868,5.2717,5.2627,5.2536,5.248,5.2498,5.2589,5.2824,5.3259,5.3657,5.4297,5.5184,5.537,5.5428,5.6281,5.6773,5.64,5.6259,5.5884,5.5741,5.6223,5.6437,5.6437,5.6383,5.6383,5.6383,5.6383,5.6383,5.6383,5.6383,5.6383,5.6383,5.6383,5.6383,5.6383,5.6383,5.6383,5.6383,5.6383,5.6383,5.6383,5.6383,5.6436,5.6508,5.6918,5.7435,5.7971,4.58,4.5916,4.6593,4.733,4.8006,4.8701,4.9376,4.9915,4.9948,4.9879,4.9879,4.9879,4.9879,4.9879,4.9879,4.9879,4.9879,4.9879,4.9879,4.9879,4.9879,4.9879,4.9879,4.9879,4.9879,4.9879,4.9879,4.9879,4.9879,4.9879,4.9879,4.9879,4.9879,4.9879,4.9879,4.9879,4.9879,4.9974,5.0239,5.0997,5.1793,5.2475,5.348,5.4284,5.481,5.4717,5.4453,5.4196,5.3889,5.3582,5.3336,5.3248,5.3206,5.3206,5.3206,5.3206,5.3206,5.3206,5.3206,5.3206,5.3206,5.3206,5.3206,5.3206,5.3206,5.3164,5.3121,5.306,5.2912,5.2761,5.2654,5.2536,5.2526,5.2643,5.277,5.2933,5.3403,5.3929,5.4961,5.5957,5.5871,5.5785,5.6328,5.6891,5.6881,5.6707,5.66,5.6546,5.6492,5.6492,5.6492,5.6437,5.6437,5.6383,5.6383,5.6383,5.6383,5.6383,5.6383,5.6383,5.6383,5.6383,5.6383,5.6383,5.6383,5.6383,5.6383,5.6383,5.6383,5.6383,5.6418,5.6579,5.7293,5.7882,5.8792,4.58,4.5819,4.5993,4.648,4.7197,4.7856,4.8534,4.9172,4.9701,4.9879,4.9925,4.9906,4.9879,4.9879,4.9879,4.9879,4.9879,4.9879,4.9879,4.9879,4.9879,4.9879,4.9879,4.9879,4.9879,4.9879,4.9879,4.9879,4.9879,4.9879,4.9879,4.9879,4.9879,4.9879,4.9879,4.9898,4.9936,5.0107,5.0675,5.1414,5.2077,5.2779,5.3442,5.4219,5.4871,5.4698,5.4519,5.4453,5.4089,5.368,5.3378,5.3248,5.3206,5.3206,5.3206,5.3206,5.3206,5.3206,5.3206,5.3206,5.3206,5.3206,5.3206,5.3206,5.3206,5.3206,5.3164,5.3121,5.2974,5.2806,5.2717,5.2554,5.2516,5.2969,5.3222,5.353,5.3911,5.4744,5.5703,5.6029,5.6029,5.6269,5.6794,5.7087,5.6984,5.6847,5.6794,5.6707,5.66,5.66,5.6546,5.6546,5.6492,5.6437,5.6383,5.6383,5.6383,5.6383,5.6383,5.6383,5.6383,5.6383,5.6383,5.6437,5.6437,5.6437,5.6383,5.6437,5.6383,5.6383,5.6383,5.665,5.7453,5.8238,5.9041]},{"header":{"parameterUnit":"m.s-1","parameterCategory":1,"la1":31.0,"la2":29.5877,"lo1":-88.7671,"lo2":-86.6584,"dy":0.0162,"dx":0.0185,"nx":115,"ny":88,"refTime":"2023-04-14T06:00:00:Z","depth":0,"parameterNumber":3,"parameterNumberName":"V-component_of_WINDS"},"data":[0.0,0.0,0.0,0.0,0.0,0.0,0.0,0.0,0.0,0.0,0.0,0.0,0.0,0.0,0.0,0.0,0.0,0.0,0.0,0.0,0.0,0.0,0.0,0.0,0.0,0.0,0.0,0.0,0.0,0.0,0.0,0.0,0.0,0.0,0.0,0.0,0.0,0.0,0.0,0.0,0.0,0.0,0.0,0.0,0.0,0.0,0.0,0.0,0.0,0.0,0.0,0.0,0.0,0.0,0.0,0.0,0.0,0.0,0.0,0.0,0.0,0.0,0.0,0.0,0.0,0.0,0.0,0.0,0.0,0.0,0.0,0.0,0.0,0.0,0.0,0.0,0.0,0.0,0.0,0.0,0.0,0.0,0.0,0.0,0.0,0.0,0.0,0.0,0.0,0.0,0.0,0.0,0.0,0.0,0.0,0.0,0.0,0.0,0.0,0.0,0.0,0.0,0.0,0.0,0.0,0.0,0.0,0.0,0.0,0.0,0.0,0.0,0.0,0.0,0.0,0.0,0.0,0.0,0.0,0.0,0.0,0.0,0.0,0.0,0.0,0.0,0.0,0.0,0.0,0.0,0.0,0.0,0.0,0.0,0.0,0.0,0.0,0.0,0.0,0.0,0.0,0.0,0.0,0.0,0.0,0.0,0.0,0.0,0.0,0.0,0.0,0.0,0.0,0.0,0.0,0.0,0.0,0.0,0.0,0.0,0.0,0.0,0.0,0.0,0.0,0.0,0.0,0.0,0.0,0.0,0.0,0.0,0.0,0.0,0.0,0.0,0.0,0.0,0.0,0.0,0.0,0.0,0.0,0.0,0.0,0.0,0.0,0.0,0.0,0.0,0.0,0.0,0.0,0.0,0.0,0.0,0.0,0.0,0.0,0.0,0.0,0.0,0.0,0.0,0.0,0.0,0.0,0.0,0.0,0.0,0.0,0.0,0.0,0.0,0.0,0.0,0.0,0.0,0.0,0.0,0.0,0.0,0.0,0.0,0.0,0.0,0.0,0.0,0.0,0.0,0.0,0.0,0.0,0.0,0.0,0.0,0.0,0.0,0.0,0.0,0.0,0.0,0.0,0.0,0.0,0.0,0.0,0.0,0.0,0.0,0.0,0.0,0.0,0.0,0.0,0.0,0.0,0.0,0.0,0.0,0.0,0.0,0.0,0.0,0.0,0.0,0.0,0.0,0.0,0.0,0.0,0.0,0.0,0.0,0.0,0.0,0.0,0.0,0.0,0.0,0.0,0.0,0.0,0.0,0.0,0.0,0.0,0.0,0.0,0.0,0.0,0.0,0.0,0.0,0.0,0.0,0.0,0.0,0.0,0.0,0.0,0.0,0.0,0.0,0.0,0.0,0.0,0.0,0.0,0.0,0.0,0.0,0.0,0.0,0.0,0.0,0.0,0.0,0.0,0.0,0.0,0.0,0.0,0.0,0.0,0.0,0.0,0.0,0.0,0.0,0.0,0.0,0.0,0.0,0.0,0.0,0.0,0.0,0.0,0.0,0.0,0.0,0.0,0.0,0.0,0.0,0.0,0.0,0.0,0.0,0.0,0.0,0.0,0.0,0.0,0.0,0.0,0.0,0.0,0.0,0.0,0.0,0.0,0.0,0.0,0.0,0.0,0.0,0.0,0.0,0.0,0.0,0.0,0.0,0.0,0.0,0.0,0.0,0.0,0.0,0.0,0.0,0.0,0.0,0.0,0.0,0.0,0.0,0.0,0.0,0.0,0.0,0.0,0.0,0.0,0.0,0.0,0.0,0.0,0.0,0.0,0.0,0.0,0.0,0.0,0.0,0.0,0.0,0.0,0.0,0.0,0.0,0.0,0.0,0.0,0.0,0.0,0.0,0.0,0.0,0.0,0.0,0.0,0.0,0.0,0.0,0.0,0.0,0.0,0.0,0.0,0.0,0.0,0.0,0.0,0.0,0.0,0.0,0.0,0.0,0.0,0.0,0.0,0.0,0.0,0.0,0.0,0.0,0.0,0.0,0.0,0.0,0.0,0.0,0.0,0.0,0.0,0.0,0.0,0.0,0.0,0.0,0.0,0.0,0.0,0.0,0.0,0.0,0.0,0.0,0.0,0.0,0.0,0.0,0.0,0.0,0.0,0.0,0.0,0.0,0.0,0.0,0.0,0.0,0.0,0.0,0.0,0.0,0.0,0.0,0.0,0.0,0.0,0.0,0.0,0.0,0.0,0.0,0.0,0.0,0.0,0.0,0.0,0.0,0.0,0.0,0.0,0.0,0.0,0.0,0.0,0.0,0.0,0.0,0.0,0.0,0.0,0.0,0.0,0.0,0.0,0.0,0.0,0.0,0.0,0.0,0.0,0.0,0.0,0.0,0.0,0.0,0.0,0.0,0.0,0.0,0.0,0.0,0.0,0.0,0.0,0.0,0.0,0.0,0.0,0.0,0.0,0.0,0.0,0.0,0.0,0.0,0.0,0.0,0.0,0.0,0.0,0.0,0.0,0.0,0.0,0.0,0.0,0.0,0.0,0.0,0.0,0.0,0.0,0.0,0.0,0.0,0.0,0.0,0.0,0.0,0.0,0.0,0.0,0.0,0.0,0.0,0.0,0.0,0.0,0.0,0.0,0.0,0.0,0.0,0.0,0.0,0.0,0.0,0.0,0.0,0.0,0.0,0.0,0.0,0.0,0.0,0.0,0.0,0.0,0.0,0.0,0.0,0.0,0.0,0.0,0.0,0.0,0.0,0.0,0.0,0.0,0.0,0.0,0.0,0.0,0.0,0.0,0.0,0.0,0.0,0.0,0.0,0.0,0.0,0.0,0.0,0.0,0.0,0.0,0.0,0.0,0.0,0.0,0.0,0.0,0.0,0.0,0.0,0.0,0.0,0.0,0.0,0.0,0.0,0.0,0.0,0.0,0.0,0.0,0.0,0.0,0.0,0.0,0.0,0.0,0.0,0.0,0.0,0.0,0.0,0.0,0.0,0.0,0.0,0.0,0.0,0.0,0.0,0.0,0.0,0.0,0.0,0.0,0.0,0.0,0.0,0.0,0.0,0.0,0.0,0.0,0.0,0.0,0.0,0.0,0.0,0.0,0.0,0.0,0.0,0.0,0.0,0.0,0.0,0.0,0.0,0.0,0.0,0.0,0.0,0.0,0.0,0.0,0.0,0.0,0.0,0.0,0.0,0.0,0.0,0.0,0.0,0.0,0.0,0.0,0.0,0.0,0.0,0.0,0.0,0.0,0.0,0.0,0.0,0.0,0.0,0.0,0.0,0.0,0.0,0.0,0.0,0.0,0.0,0.0,0.0,0.0,0.0,0.0,0.0,0.0,0.0,0.0,0.0,0.0,0.0,0.0,0.0,0.0,0.0,0.0,0.0,0.0,0.0,0.0,0.0,0.0,0.0,0.0,0.0,0.0,0.0,0.0,0.0,0.0,0.0,0.0,0.0,0.0,0.0,0.0,0.0,0.0,0.0,0.0,0.0,0.0,0.0,0.0,0.0,0.0,0.0,0.0,0.0,0.0,0.0,0.0,0.0,0.0,0.0,0.0,0.0,0.0,0.0,0.0,0.0,0.0,0.0,0.0,0.0,0.0,0.0,0.0,0.0,0.0,0.0,0.0,0.0,0.0,0.0,0.0,0.0,0.0,0.0,0.0,0.0,0.0,0.0,0.0,0.0,0.0,0.0,0.0,0.0,0.0,0.0,0.0,0.0,0.0,0.0,0.0,0.0,0.0,0.0,0.0,0.0,0.0,0.0,0.0,0.0,0.0,0.0,0.0,0.0,0.0,0.0,0.0,0.0,0.0,0.0,0.0,0.0,0.0,0.0,0.0,0.0,0.0,0.0,0.0,0.0,0.0,0.0,0.0,0.0,0.0,0.0,0.0,0.0,0.0,0.0,0.0,0.0,0.0,0.0,0.0,0.0,0.0,0.0,0.0,0.0,0.0,0.0,0.0,0.0,0.0,0.0,0.0,0.0,0.0,0.0,0.0,0.0,0.0,0.0,0.0,0.0,0.0,0.0,0.0,0.0,0.0,0.0,0.0,0.0,0.0,0.0,0.0,0.0,0.0,0.0,0.0,0.0,0.0,0.0,0.0,0.0,0.0,0.0,0.0,0.0,0.0,0.0,0.0,0.0,0.0,0.0,0.0,0.0,0.0,0.0,0.0,0.0,0.0,0.0,0.0,0.0,0.0,0.0,0.0,0.0,0.0,0.0,0.0,0.0,0.0,0.0,0.0,0.0,0.0,0.0,0.0,0.0,0.0,0.0,0.0,0.0,0.0,0.0,0.0,0.0,-1.1522,0.0,0.0,0.0,0.0,0.0,0.0,0.0,0.0,0.0,0.0,0.0,0.0,0.0,0.0,0.0,0.0,0.0,0.0,0.0,0.0,0.0,0.0,0.0,0.0,0.0,0.0,0.0,0.0,0.0,0.0,0.0,0.0,0.0,0.0,0.0,0.0,0.0,0.0,0.0,0.0,0.0,0.0,0.0,0.0,0.0,0.0,0.0,0.0,0.0,0.0,0.0,0.0,0.0,0.0,0.0,0.0,0.0,0.0,0.0,0.0,0.0,0.0,0.0,0.0,0.0,0.0,0.0,0.0,0.0,0.0,0.0,0.0,0.0,0.0,0.0,0.0,0.0,0.0,0.0,0.0,0.0,0.0,0.0,0.0,0.0,0.0,0.0,0.0,0.0,0.0,0.0,0.0,0.0,0.0,0.0,0.0,0.0,0.0,0.0,0.0,0.0,0.0,0.0,0.0,0.0,0.0,0.0,0.0,0.0,0.0,-1.208,-1.163,-1.1608,-1.156,-1.1522,0.0,0.0,0.0,0.0,0.0,0.0,0.0,0.0,0.0,0.0,0.0,0.0,0.0,0.0,0.0,0.0,0.0,0.0,0.0,0.0,0.0,0.0,0.0,0.0,0.0,0.0,0.0,0.0,0.0,0.0,0.0,0.0,0.0,0.0,0.0,0.0,0.0,0.0,0.0,0.0,0.0,0.0,0.0,0.0,0.0,0.0,0.0,0.0,0.0,0.0,0.0,0.0,0.0,0.0,0.0,0.0,0.0,0.0,0.0,0.0,0.0,0.0,0.0,0.0,0.0,0.0,0.0,0.0,0.0,0.0,0.0,0.0,0.0,0.0,0.0,0.0,0.0,0.0,0.0,0.0,0.0,0.0,0.0,0.0,0.0,0.0,0.0,0.0,0.0,0.0,0.0,0.0,0.0,0.0,0.0,0.0,0.0,0.0,0.0,0.0,0.0,0.0,0.0,0.0,0.0,0.0,0.0,0.0,0.0,0.0,0.0,0.0,-1.1645,-1.1608,-1.1522,0.0,0.0,0.0,0.0,0.0,0.0,0.0,0.0,0.0,0.0,0.0,0.0,0.0,0.0,0.0,0.0,0.0,0.0,0.0,0.0,0.0,0.0,0.0,0.0,0.0,0.0,0.0,0.0,0.0,0.0,0.0,0.0,0.0,0.0,0.0,0.0,0.0,0.0,0.0,0.0,0.0,0.0,0.0,0.0,0.0,0.0,0.0,0.0,0.0,0.0,0.0,0.0,0.0,0.0,0.0,0.0,0.0,0.0,0.0,0.0,0.0,0.0,0.0,0.0,0.0,0.0,0.0,0.0,0.0,0.0,0.0,0.0,0.0,0.0,0.0,0.0,0.0,0.0,0.0,0.0,0.0,0.0,0.0,0.0,0.0,0.0,0.0,0.0,0.0,0.0,0.0,0.0,0.0,0.0,0.0,0.0,0.0,0.0,0.0,0.0,0.0,0.0,0.0,0.0,0.0,0.0,0.0,0.0,0.0,0.0,-1.1566,-1.1522,-1.1533,0.0,-1.1522,0.0,0.0,0.0,0.0,0.0,0.0,0.0,0.0,0.0,0.0,0.0,0.0,0.0,0.0,0.0,0.0,0.0,0.0,0.0,0.0,0.0,0.0,0.0,0.0,0.0,0.0,0.0,0.0,0.0,0.0,0.0,0.0,0.0,0.0,0.0,0.0,0.0,0.0,0.0,0.0,0.0,0.0,0.0,0.0,0.0,0.0,0.0,0.0,0.0,0.0,0.0,0.0,0.0,0.0,0.0,0.0,0.0,0.0,0.0,0.0,0.0,0.0,0.0,0.0,0.0,0.0,0.0,0.0,0.0,0.0,0.0,0.0,0.0,0.0,0.0,0.0,0.0,0.0,0.0,0.0,0.0,0.0,0.0,0.0,0.0,0.0,0.0,0.0,0.0,0.0,0.0,0.0,0.0,0.0,0.0,0.0,0.0,0.0,0.0,0.0,0.0,0.0,0.0,0.0,0.0,0.0,0.0,0.0,0.0,0.0,-1.1522,-1.1522,-1.1287,-1.125,0.0,0.0,0.0,0.0,0.0,0.0,0.0,0.0,0.0,0.0,0.0,0.0,0.0,0.0,0.0,0.0,0.0,0.0,0.0,0.0,0.0,0.0,0.0,0.0,0.0,0.0,0.0,0.0,0.0,0.0,0.0,0.0,0.0,0.0,0.0,0.0,0.0,0.0,0.0,0.0,0.0,0.0,0.0,0.0,0.0,0.0,0.0,0.0,0.0,0.0,0.0,0.0,0.0,0.0,0.0,0.0,0.0,0.0,0.0,0.0,0.0,0.0,0.0,0.0,0.0,0.0,0.0,0.0,0.0,0.0,0.0,0.0,0.0,0.0,0.0,0.0,0.0,0.0,0.0,0.0,0.0,0.0,0.0,0.0,0.0,0.0,0.0,0.0,0.0,0.0,0.0,0.0,0.0,0.0,0.0,0.0,0.0,0.0,0.0,0.0,0.0,0.0,0.0,0.0,0.0,0.0,0.0,0.0,0.0,0.0,-1.1567,-1.1518,-1.1316,-1.1277,-1.1316,-1.148,0.0,0.0,0.0,0.0,0.0,0.0,0.0,0.0,0.0,0.0,0.0,0.0,0.0,0.0,0.0,0.0,0.0,0.0,0.0,0.0,0.0,0.0,0.0,0.0,0.0,0.0,0.0,0.0,0.0,0.0,0.0,0.0,0.0,0.0,0.0,0.0,0.0,0.0,0.0,0.0,0.0,0.0,0.0,0.0,0.0,0.0,0.0,0.0,0.0,0.0,0.0,0.0,0.0,0.0,0.0,0.0,0.0,0.0,0.0,0.0,0.0,0.0,0.0,0.0,0.0,0.0,0.0,0.0,0.0,0.0,0.0,0.0,0.0,0.0,0.0,0.0,0.0,0.0,0.0,0.0,0.0,0.0,0.0,0.0,0.0,0.0,0.0,0.0,0.0,0.0,0.0,0.0,0.0,0.0,0.0,0.0,0.0,0.0,0.0,0.0,0.0,0.0,0.0,0.0,0.0,0.0,0.0,0.0,-1.1802,-1.1802,-1.15,-1.091,-1.1683,-1.1891,0.0,0.0,0.0,0.0,0.0,0.0,0.0,0.0,0.0,0.0,0.0,0.0,0.0,0.0,0.0,0.0,0.0,0.0,0.0,0.0,0.0,0.0,0.0,0.0,0.0,0.0,0.0,0.0,0.0,0.0,0.0,0.0,0.0,0.0,0.0,0.0,0.0,0.0,0.0,0.0,0.0,0.0,0.0,0.0,0.0,0.0,0.0,0.0,0.0,0.0,0.0,0.0,0.0,0.0,0.0,0.0,0.0,0.0,0.0,0.0,0.0,0.0,0.0,0.0,0.0,0.0,0.0,0.0,0.0,0.0,0.0,0.0,0.0,0.0,0.0,0.0,0.0,0.0,0.0,0.0,0.0,0.0,0.0,0.0,0.0,0.0,0.0,0.0,0.0,0.0,0.0,0.0,0.0,0.0,0.0,0.0,0.0,0.0,0.0,0.0,0.0,0.0,0.0,0.0,0.0,0.0,0.0,0.0,0.0,-1.2037,-1.1711,-1.1499,-1.1318,-1.1325,-1.1388,0.0,0.0,0.0,0.0,0.0,0.0,0.0,0.0,0.0,0.0,0.0,0.0,0.0,0.0,0.0,0.0,0.0,0.0,0.0,0.0,0.0,0.0,0.0,0.0,0.0,0.0,0.0,0.0,0.0,0.0,0.0,0.0,0.0,0.0,0.0,0.0,0.0,0.0,0.0,0.0,0.0,0.0,0.0,0.0,0.0,0.0,0.0,0.0,0.0,0.0,0.0,0.0,0.0,0.0,0.0,0.0,0.0,0.0,0.0,0.0,0.0,0.0,0.0,0.0,0.0,0.0,0.0,0.0,0.0,0.0,0.0,0.0,0.0,0.0,0.0,0.0,0.0,0.0,0.0,0.0,0.0,0.0,0.0,0.0,0.0,0.0,0.0,0.0,0.0,0.0,0.0,0.0,0.0,0.0,0.0,0.0,0.0,0.0,0.0,0.0,0.0,0.0,0.0,0.0,0.0,0.0,0.0,0.0,0.0,-1.2155,0.0,-1.1365,-1.1365,-1.1305,-1.136,0.0,0.0,0.0,0.0,0.0,0.0,0.0,0.0,0.0,0.0,0.0,0.0,0.0,0.0,0.0,0.0,0.0,0.0,0.0,0.0,0.0,0.0,0.0,0.0,0.0,0.0,0.0,0.0,0.0,0.0,0.0,0.0,0.0,0.0,0.0,0.0,0.0,0.0,0.0,0.0,0.0,0.0,0.0,0.0,0.0,0.0,0.0,0.0,0.0,0.0,0.0,0.0,0.0,0.0,0.0,0.0,0.0,0.0,0.0,0.0,0.0,0.0,0.0,0.0,0.0,0.0,0.0,0.0,0.0,0.0,0.0,0.0,0.0,0.0,0.0,0.0,0.0,0.0,0.0,0.0,0.0,0.0,0.0,0.0,0.0,0.0,0.0,0.0,0.0,0.0,0.0,0.0,0.0,0.0,0.0,0.0,0.0,0.0,0.0,0.0,0.0,0.0,0.0,0.0,0.0,0.0,0.0,0.0,-1.3017,-1.2161,-1.1565,-1.1205,-1.092,-1.1749,-1.1962,0.0,0.0,0.0,0.0,0.0,0.0,0.0,0.0,0.0,0.0,0.0,0.0,0.0,0.0,0.0,0.0,0.0,0.0,0.0,0.0,0.0,0.0,0.0,0.0,0.0,0.0,0.0,0.0,0.0,0.0,0.0,0.0,0.0,0.0,0.0,0.0,0.0,0.0,0.0,0.0,0.0,0.0,0.0,0.0,0.0,0.0,0.0,0.0,0.0,0.0,0.0,0.0,0.0,0.0,0.0,0.0,0.0,0.0,0.0,0.0,0.0,0.0,0.0,0.0,0.0,0.0,0.0,0.0,0.0,0.0,0.0,0.0,0.0,0.0,0.0,0.0,0.0,0.0,0.0,0.0,0.0,0.0,0.0,0.0,0.0,0.0,0.0,0.0,0.0,0.0,0.0,0.0,0.0,0.0,0.0,0.0,0.0,0.0,0.0,0.0,0.0,0.0,0.0,0.0,0.0,0.0,0.0,0.0,0.0,-1.233,-1.1826,-1.159,-1.1608,-1.1706,-1.1715,0.0,0.0,0.0,0.0,0.0,0.0,0.0,0.0,0.0,0.0,0.0,0.0,0.0,0.0,0.0,0.0,0.0,0.0,0.0,0.0,0.0,0.0,0.0,0.0,0.0,0.0,0.0,0.0,0.0,0.0,0.0,0.0,0.0,0.0,0.0,0.0,0.0,0.0,0.0,0.0,0.0,0.0,0.0,0.0,0.0,0.0,0.0,0.0,0.0,0.0,0.0,0.0,0.0,0.0,0.0,0.0,0.0,0.0,0.0,0.0,0.0,0.0,0.0,0.0,0.0,0.0,0.0,0.0,0.0,0.0,0.0,0.0,0.0,0.0,0.0,0.0,0.0,0.0,0.0,0.0,0.0,0.0,0.0,0.0,0.0,0.0,0.0,0.0,0.0,0.0,0.0,0.0,0.0,0.0,0.0,0.0,0.0,0.0,0.0,0.0,0.0,0.0,0.0,0.0,0.0,0.0,0.0,0.0,0.0,-1.2511,-1.2098,-1.1868,-1.1927,-1.1678,-1.1578,-1.1619,0.0,0.0,0.0,0.0,0.0,0.0,0.0,0.0,0.0,0.0,0.0,0.0,0.0,0.0,0.0,0.0,0.0,0.0,0.0,0.0,0.0,0.0,0.0,0.0,0.0,0.0,0.0,0.0,0.0,0.0,0.0,0.0,0.0,0.0,0.0,0.0,0.0,0.0,0.0,0.0,0.0,0.0,0.0,0.0,0.0,0.0,0.0,0.0,0.0,0.0,0.0,0.0,0.0,0.0,0.0,0.0,0.0,0.0,0.0,0.0,0.0,0.0,0.0,0.0,0.0,0.0,0.0,0.0,0.0,0.0,0.0,0.0,0.0,0.0,0.0,0.0,0.0,0.0,0.0,0.0,0.0,0.0,0.0,0.0,0.0,0.0,0.0,0.0,0.0,0.0,0.0,0.0,0.0,0.0,0.0,0.0,0.0,0.0,0.0,0.0,0.0,0.0,0.0,0.0,0.0,0.0,0.0,0.0,-1.2774,-1.2314,-1.2026,-1.1927,-1.1778,-1.1619,0.0,0.0,0.0,0.0,0.0,0.0,0.0,0.0,0.0,0.0,0.0,0.0,0.0,0.0,0.0,0.0,0.0,0.0,0.0,0.0,0.0,0.0,0.0,0.0,0.0,0.0,0.0,0.0,0.0,0.0,0.0,0.0,0.0,0.0,0.0,0.0,0.0,0.0,0.0,0.0,0.0,0.0,0.0,0.0,0.0,0.0,0.0,0.0,0.0,0.0,0.0,0.0,0.0,0.0,0.0,0.0,0.0,0.0,0.0,0.0,0.0,0.0,0.0,0.0,0.0,0.0,0.0,0.0,0.0,0.0,0.0,0.0,0.0,0.0,0.0,0.0,0.0,0.0,0.0,0.0,0.0,0.0,0.0,0.0,0.0,0.0,0.0,0.0,0.0,0.0,0.0,0.0,0.0,0.0,0.0,0.0,0.0,0.0,0.0,0.0,0.0,0.0,0.0,0.0,0.0,0.0,0.0,0.0,0.0,-1.2304,-1.2175,-1.2076,-1.2026,-1.1927,-1.1778,0.0,0.0,0.0,0.0,0.0,0.0,0.0,0.0,0.0,0.0,0.0,0.0,0.0,0.0,0.0,0.0,0.0,0.0,0.0,0.0,0.0,0.0,0.0,0.0,0.0,0.0,0.0,0.0,0.0,0.0,0.0,0.0,0.0,0.0,0.0,0.0,0.0,0.0,0.0,0.0,0.0,0.0,0.0,0.0,0.0,0.0,0.0,0.0,0.0,0.0,0.0,0.0,0.0,0.0,0.0,0.0,0.0,0.0,0.0,0.0,0.0,0.0,0.0,0.0,0.0,0.0,0.0,0.0,0.0,0.0,0.0,0.0,0.0,0.0,0.0,0.0,0.0,0.0,0.0,0.0,0.0,0.0,0.0,0.0,0.0,0.0,0.0,0.0,0.0,0.0,0.0,0.0,0.0,0.0,0.0,0.0,0.0,0.0,0.0,0.0,0.0,0.0,0.0,0.0,0.0,0.0,0.0,0.0,-1.2598,-1.2383,-1.2489,-1.2558,-1.2324,-1.2059,-1.1959,0.0,0.0,0.0,0.0,0.0,0.0,0.0,0.0,0.0,0.0,0.0,0.0,0.0,0.0,0.0,0.0,0.0,0.0,0.0,0.0,0.0,0.0,0.0,0.0,0.0,0.0,0.0,0.0,0.0,0.0,0.0,0.0,0.0,0.0,0.0,0.0,0.0,0.0,0.0,0.0,0.0,0.0,0.0,0.0,0.0,0.0,0.0,0.0,0.0,0.0,0.0,0.0,0.0,0.0,0.0,0.0,0.0,0.0,0.0,0.0,0.0,0.0,0.0,0.0,0.0,0.0,0.0,0.0,0.0,0.0,0.0,0.0,0.0,0.0,0.0,0.0,0.0,0.0,0.0,0.0,0.0,0.0,0.0,0.0,0.0,0.0,0.0,0.0,0.0,0.0,0.0,0.0,0.0,0.0,0.0,0.0,0.0,0.0,0.0,0.0,0.0,0.0,0.0,0.0,0.0,0.0,0.0,0.0,-1.2733,-1.2788,-1.3103,-1.3112,-1.2798,-1.225,-1.2154,0.0,0.0,0.0,0.0,0.0,0.0,0.0,0.0,0.0,0.0,0.0,0.0,0.0,0.0,0.0,0.0,0.0,0.0,0.0,0.0,0.0,0.0,0.0,0.0,0.0,0.0,0.0,0.0,0.0,0.0,0.0,0.0,0.0,0.0,0.0,0.0,0.0,0.0,0.0,0.0,0.0,0.0,0.0,0.0,0.0,0.0,0.0,0.0,0.0,0.0,0.0,0.0,0.0,0.0,0.0,0.0,0.0,0.0,0.0,0.0,0.0,0.0,0.0,0.0,0.0,0.0,0.0,0.0,0.0,0.0,0.0,0.0,0.0,0.0,0.0,0.0,0.0,0.0,0.0,0.0,0.0,0.0,0.0,0.0,0.0,0.0,0.0,0.0,0.0,0.0,0.0,0.0,0.0,0.0,0.0,0.0,0.0,0.0,0.0,0.0,0.0,0.0,0.0,0.0,0.0,0.0,0.0,0.0,-1.2881,-1.3149,-1.325,-1.325,-1.3158,-1.2755,-1.2529,0.0,0.0,0.0,0.0,0.0,0.0,0.0,0.0,0.0,0.0,0.0,0.0,0.0,0.0,0.0,0.0,0.0,0.0,0.0,0.0,0.0,0.0,0.0,0.0,0.0,0.0,0.0,0.0,0.0,0.0,0.0,0.0,0.0,0.0,0.0,0.0,0.0,0.0,0.0,0.0,0.0,0.0,0.0,0.0,0.0,0.0,0.0,0.0,-1.3376,0.0,0.0,0.0,0.0,0.0,0.0,0.0,0.0,0.0,0.0,0.0,0.0,0.0,0.0,0.0,0.0,0.0,0.0,0.0,0.0,0.0,0.0,0.0,0.0,0.0,0.0,0.0,0.0,0.0,0.0,0.0,0.0,0.0,0.0,0.0,0.0,0.0,0.0,0.0,0.0,0.0,0.0,0.0,0.0,0.0,0.0,0.0,0.0,0.0,0.0,0.0,0.0,0.0,0.0,0.0,0.0,0.0,0.0,0.0,-1.3341,-1.3571,-1.3763,-1.3772,-1.3571,-1.3351,-1.3241,0.0,0.0,0.0,0.0,0.0,0.0,0.0,0.0,0.0,0.0,0.0,0.0,0.0,0.0,0.0,0.0,0.0,0.0,0.0,0.0,0.0,0.0,0.0,0.0,0.0,0.0,0.0,0.0,0.0,0.0,0.0,0.0,0.0,0.0,0.0,0.0,0.0,0.0,0.0,0.0,0.0,0.0,0.0,0.0,0.0,0.0,0.0,0.0,0.0,0.0,0.0,0.0,0.0,0.0,0.0,0.0,0.0,0.0,0.0,0.0,0.0,0.0,0.0,0.0,0.0,0.0,0.0,0.0,0.0,0.0,0.0,0.0,0.0,0.0,0.0,0.0,0.0,0.0,0.0,0.0,0.0,0.0,0.0,0.0,0.0,0.0,0.0,0.0,0.0,0.0,0.0,0.0,0.0,0.0,0.0,0.0,0.0,0.0,0.0,0.0,0.0,0.0,0.0,0.0,0.0,0.0,0.0,-1.3919,-1.3919,-1.3992,-1.4332,-1.4341,-1.3992,-1.3983,-1.3983,-1.3974,0.0,0.0,0.0,0.0,0.0,0.0,0.0,0.0,0.0,0.0,0.0,0.0,0.0,0.0,0.0,0.0,0.0,0.0,0.0,0.0,0.0,0.0,0.0,0.0,0.0,0.0,0.0,0.0,0.0,0.0,0.0,0.0,0.0,0.0,0.0,0.0,0.0,0.0,-1.337,-1.3728,0.0,0.0,0.0,0.0,0.0,0.0,0.0,0.0,-1.4387,0.0,0.0,0.0,0.0,0.0,0.0,0.0,0.0,0.0,0.0,0.0,0.0,0.0,0.0,0.0,0.0,0.0,0.0,0.0,0.0,0.0,0.0,0.0,0.0,0.0,0.0,0.0,0.0,0.0,0.0,0.0,0.0,0.0,0.0,0.0,0.0,0.0,0.0,0.0,0.0,0.0,0.0,0.0,0.0,0.0,0.0,0.0,0.0,0.0,0.0,0.0,0.0,0.0,0.0,0.0,0.0,-1.4396,-1.4057,-1.4047,-1.4405,-1.4478,-1.4478,-1.4414,-1.4405,-1.4414,-1.4396,0.0,0.0,0.0,0.0,0.0,0.0,0.0,0.0,0.0,0.0,0.0,0.0,0.0,0.0,0.0,0.0,0.0,0.0,0.0,0.0,0.0,0.0,0.0,0.0,0.0,0.0,0.0,0.0,0.0,0.0,0.0,0.0,0.0,0.0,0.0,0.0,0.0,0.0,0.0,-1.4035,-1.4355,0.0,0.0,0.0,0.0,0.0,0.0,0.0,0.0,-1.4222,0.0,0.0,0.0,0.0,0.0,0.0,0.0,0.0,0.0,0.0,0.0,0.0,0.0,0.0,0.0,0.0,0.0,0.0,0.0,0.0,0.0,0.0,0.0,0.0,0.0,0.0,0.0,0.0,0.0,0.0,0.0,0.0,0.0,0.0,0.0,0.0,0.0,0.0,0.0,0.0,0.0,0.0,0.0,0.0,0.0,0.0,0.0,0.0,0.0,0.0,0.0,0.0,0.0,0.0,0.0,-1.4772,-1.4423,-1.4506,-1.5084,-1.4726,-1.4607,-1.4799,-1.4616,-1.4515,0.0,0.0,0.0,0.0,0.0,0.0,0.0,0.0,0.0,0.0,0.0,0.0,0.0,0.0,0.0,0.0,0.0,0.0,0.0,0.0,0.0,0.0,0.0,0.0,0.0,0.0,0.0,0.0,0.0,0.0,0.0,0.0,0.0,0.0,0.0,0.0,0.0,0.0,0.0,0.0,-1.4269,-1.4387,-1.4336,0.0,0.0,0.0,0.0,0.0,0.0,-1.4809,-1.4881,0.0,0.0,0.0,0.0,0.0,0.0,0.0,0.0,0.0,0.0,0.0,0.0,0.0,0.0,0.0,0.0,0.0,0.0,0.0,0.0,0.0,0.0,0.0,0.0,0.0,0.0,0.0,0.0,0.0,0.0,0.0,0.0,0.0,0.0,0.0,0.0,0.0,0.0,0.0,0.0,0.0,0.0,0.0,0.0,0.0,0.0,0.0,0.0,0.0,0.0,0.0,0.0,0.0,0.0,0.0,-1.5074,-1.479,-1.4974,-1.5634,-1.5074,-1.49,-1.5194,-1.4845,-1.4634,0.0,0.0,0.0,0.0,0.0,0.0,0.0,0.0,0.0,0.0,0.0,0.0,0.0,0.0,0.0,0.0,0.0,0.0,0.0,0.0,0.0,0.0,0.0,0.0,0.0,0.0,0.0,0.0,0.0,0.0,0.0,0.0,0.0,0.0,0.0,0.0,0.0,0.0,0.0,0.0,0.0,-1.4385,-1.4342,-1.4718,0.0,0.0,0.0,0.0,-1.5431,-1.5375,0.0,0.0,0.0,0.0,0.0,0.0,0.0,0.0,0.0,0.0,0.0,0.0,0.0,0.0,0.0,0.0,0.0,0.0,0.0,0.0,0.0,0.0,0.0,0.0,0.0,0.0,0.0,0.0,0.0,0.0,0.0,0.0,0.0,0.0,0.0,0.0,0.0,0.0,0.0,0.0,0.0,0.0,0.0,0.0,0.0,0.0,0.0,0.0,0.0,0.0,0.0,0.0,0.0,0.0,0.0,0.0,-1.5084,-1.5056,-1.5249,-1.5661,-1.5597,-1.5579,-1.5615,-1.523,-1.5038,0.0,0.0,0.0,0.0,0.0,0.0,0.0,0.0,0.0,0.0,0.0,0.0,0.0,0.0,0.0,0.0,0.0,0.0,0.0,0.0,0.0,0.0,0.0,0.0,0.0,0.0,0.0,0.0,0.0,0.0,0.0,0.0,0.0,0.0,0.0,0.0,0.0,0.0,0.0,0.0,0.0,-1.471,-1.4604,-1.5006,-1.5321,0.0,0.0,-1.5189,-1.5245,-1.5106,0.0,0.0,0.0,0.0,0.0,0.0,0.0,0.0,0.0,0.0,0.0,0.0,0.0,0.0,0.0,0.0,0.0,0.0,0.0,0.0,0.0,0.0,0.0,0.0,0.0,0.0,0.0,0.0,0.0,0.0,0.0,0.0,0.0,0.0,0.0,0.0,0.0,0.0,0.0,0.0,0.0,0.0,0.0,0.0,0.0,0.0,0.0,0.0,0.0,0.0,0.0,0.0,0.0,0.0,0.0,-1.5038,-1.5414,-1.5432,-1.5744,-1.6331,-1.5927,-1.5808,-1.6037,-1.5432,-1.5111,0.0,0.0,0.0,0.0,0.0,0.0,0.0,0.0,0.0,0.0,0.0,0.0,0.0,0.0,0.0,0.0,0.0,0.0,0.0,0.0,0.0,0.0,0.0,0.0,0.0,0.0,0.0,0.0,0.0,0.0,0.0,0.0,0.0,0.0,0.0,0.0,0.0,0.0,0.0,0.0,0.0,0.0,-1.4778,-1.5129,0.0,0.0,0.0,-1.5777,-1.5963,0.0,0.0,0.0,0.0,0.0,0.0,0.0,0.0,0.0,0.0,0.0,0.0,0.0,0.0,0.0,0.0,0.0,0.0,0.0,0.0,0.0,0.0,0.0,0.0,0.0,0.0,0.0,0.0,0.0,0.0,0.0,0.0,0.0,0.0,0.0,0.0,0.0,0.0,0.0,0.0,0.0,0.0,0.0,0.0,0.0,0.0,0.0,0.0,0.0,0.0,0.0,0.0,0.0,0.0,0.0,0.0,0.0,-1.568,-1.579,-1.6193,-1.6853,-1.6312,-1.6072,-1.6238,-1.5716,0.0,0.0,0.0,0.0,0.0,0.0,0.0,0.0,0.0,0.0,0.0,0.0,0.0,0.0,0.0,0.0,0.0,0.0,0.0,0.0,0.0,0.0,0.0,0.0,0.0,0.0,0.0,-1.293,0.0,0.0,0.0,0.0,0.0,0.0,0.0,0.0,0.0,0.0,0.0,0.0,0.0,0.0,-1.493,-1.5072,-1.5449,-1.5643,0.0,0.0,-1.6132,-1.6324,-1.6132,-1.6087,0.0,0.0,0.0,0.0,0.0,0.0,0.0,0.0,0.0,0.0,0.0,0.0,0.0,0.0,0.0,0.0,0.0,0.0,0.0,0.0,0.0,0.0,0.0,0.0,0.0,0.0,0.0,0.0,0.0,0.0,0.0,0.0,0.0,0.0,0.0,0.0,0.0,0.0,0.0,0.0,0.0,0.0,0.0,0.0,0.0,0.0,0.0,0.0,0.0,0.0,0.0,0.0,0.0,0.0,0.0,-1.5689,-1.6083,-1.6477,-1.689,-1.6853,-1.6636,-1.6158,-1.6188,-1.5954,0.0,0.0,0.0,0.0,0.0,0.0,0.0,0.0,0.0,0.0,0.0,0.0,0.0,0.0,0.0,0.0,0.0,0.0,0.0,0.0,0.0,0.0,0.0,0.0,0.0,0.0,0.0,0.0,0.0,0.0,0.0,0.0,0.0,0.0,0.0,0.0,0.0,0.0,0.0,0.0,0.0,-1.561,-1.5618,-1.598,-1.6175,0.0,0.0,-1.5991,-1.5647,-1.5576,-1.5766,-1.6233,0.0,0.0,0.0,0.0,0.0,0.0,0.0,0.0,0.0,0.0,0.0,0.0,0.0,0.0,0.0,0.0,0.0,0.0,0.0,0.0,0.0,0.0,0.0,0.0,0.0,0.0,0.0,0.0,0.0,0.0,0.0,0.0,0.0,0.0,0.0,0.0,0.0,0.0,0.0,0.0,0.0,0.0,0.0,0.0,0.0,0.0,0.0,0.0,0.0,0.0,0.0,0.0,0.0,-1.5661,-1.6074,-1.6477,-1.6762,-1.6899,-1.6908,-1.6621,-1.6132,-1.5901,-1.5486,0.0,0.0,0.0,0.0,0.0,0.0,0.0,0.0,0.0,0.0,0.0,0.0,0.0,0.0,0.0,0.0,0.0,0.0,0.0,0.0,0.0,0.0,0.0,0.0,0.0,0.0,0.0,0.0,-1.4024,-1.4186,-1.4705,0.0,0.0,0.0,0.0,0.0,0.0,0.0,0.0,0.0,0.0,-1.5573,-1.5592,-1.5685,0.0,0.0,-1.5922,-1.6144,-1.63,-1.6252,-1.6377,-1.681,-1.7142,0.0,0.0,0.0,0.0,0.0,0.0,0.0,0.0,0.0,0.0,0.0,0.0,0.0,0.0,0.0,0.0,0.0,0.0,0.0,0.0,0.0,0.0,0.0,0.0,0.0,0.0,0.0,0.0,0.0,0.0,0.0,0.0,0.0,0.0,0.0,0.0,0.0,0.0,0.0,0.0,0.0,0.0,0.0,0.0,0.0,0.0,0.0,0.0,0.0,0.0,0.0,0.0,-1.6019,-1.6321,-1.6707,-1.6908,-1.6908,-1.6908,-1.6621,-1.6132,-1.5791,-1.5308,0.0,0.0,0.0,0.0,0.0,0.0,0.0,0.0,0.0,0.0,0.0,0.0,0.0,0.0,0.0,0.0,0.0,0.0,0.0,0.0,0.0,0.0,0.0,0.0,0.0,0.0,0.0,0.0,-1.4547,-1.4648,-1.5061,0.0,0.0,0.0,0.0,0.0,0.0,0.0,0.0,0.0,0.0,-1.5878,-1.5917,-1.5973,-1.6063,-1.6021,-1.6137,-1.6395,-1.664,-1.6674,-1.6784,-1.714,0.0,0.0,0.0,0.0,0.0,0.0,0.0,0.0,0.0,0.0,0.0,0.0,0.0,0.0,0.0,0.0,0.0,0.0,0.0,0.0,0.0,0.0,0.0,0.0,0.0,0.0,0.0,0.0,0.0,0.0,-0.9491,0.0,0.0,0.0,0.0,0.0,0.0,0.0,0.0,0.0,0.0,0.0,0.0,0.0,0.0,0.0,0.0,0.0,0.0,0.0,0.0,0.0,0.0,-1.6312,-1.6331,-1.6734,-1.6917,-1.6927,-1.6917,-1.6648,-1.6158,-1.6132,-1.5771,-1.5196,0.0,0.0,0.0,0.0,0.0,0.0,0.0,0.0,0.0,0.0,0.0,0.0,0.0,0.0,0.0,0.0,0.0,0.0,0.0,0.0,0.0,0.0,0.0,0.0,0.0,0.0,-1.5022,-1.5432,-1.5652,0.0,0.0,0.0,0.0,0.0,0.0,0.0,0.0,0.0,0.0,-1.6581,-1.6701,-1.6918,-1.709,-1.6992,-1.6867,-1.6893,-1.675,-1.6387,-1.6674,-1.6945,0.0,0.0,0.0,0.0,0.0,0.0,0.0,0.0,0.0,0.0,0.0,0.0,0.0,0.0,0.0,0.0,0.0,0.0,0.0,0.0,0.0,0.0,0.0,0.0,0.0,0.0,0.0,-0.8823,-0.8794,0.0,0.0,0.0,0.0,0.0,0.0,0.0,0.0,0.0,0.0,0.0,-1.2306,-1.1984,0.0,0.0,0.0,0.0,0.0,0.0,0.0,0.0,0.0,0.0,0.0,0.0,-1.6578,-1.7073,-1.7229,-1.7431,-1.7706,-1.7715,-1.7415,-1.6902,-1.6451,-1.5922,-1.5257,0.0,0.0,0.0,0.0,0.0,0.0,0.0,0.0,0.0,0.0,0.0,0.0,0.0,0.0,0.0,0.0,0.0,0.0,0.0,0.0,0.0,0.0,0.0,0.0,0.0,-1.5296,0.0,0.0,0.0,0.0,0.0,0.0,0.0,0.0,0.0,0.0,0.0,-1.6947,-1.6875,-1.706,-1.7234,-1.7169,-1.7116,-1.697,0.0,0.0,0.0,0.0,0.0,0.0,0.0,0.0,0.0,0.0,0.0,0.0,0.0,0.0,-1.8374,-1.7986,-1.7821,-1.7671,-1.768,0.0,0.0,0.0,0.0,0.0,0.0,0.0,0.0,0.0,0.0,0.0,0.0,0.0,0.0,-0.9104,0.0,-0.8965,0.0,0.0,0.0,0.0,0.0,0.0,0.0,0.0,-1.1069,-1.1377,-1.1962,-1.169,-1.1552,0.0,-1.2165,-1.3112,0.0,0.0,0.0,0.0,0.0,0.0,0.0,0.0,-1.6695,-1.7297,-1.7122,-1.7172,-1.7428,-1.7446,-1.7287,-1.691,-1.6286,-1.5674,-1.508,-1.5227,-1.5163,0.0,0.0,0.0,0.0,0.0,0.0,0.0,0.0,0.0,0.0,0.0,0.0,0.0,0.0,0.0,0.0,0.0,0.0,0.0,0.0,0.0,0.0,0.0,-1.5692,0.0,0.0,0.0,0.0,0.0,0.0,0.0,0.0,0.0,-1.6865,-1.7108,-1.7286,-1.7213,-1.7384,-1.7632,-1.7573,0.0,0.0,0.0,0.0,0.0,0.0,0.0,-1.804,-1.8201,-1.8362,-1.8531,-1.8612,-1.8612,-1.8709,-1.8709,0.0,0.0,-1.8163,-1.8006,-1.7929,-1.7929,-1.7929,-1.7929,-1.7929,-1.8124,-1.8301,0.0,0.0,0.0,0.0,0.0,0.0,0.0,0.0,-0.9311,-0.9475,0.0,-0.9564,0.0,0.0,0.0,0.0,0.0,-1.0321,0.0,0.0,-1.0578,-1.0716,-1.0931,-1.0956,-1.1127,-1.1434,-1.1719,-1.2365,-1.326,-1.302,0.0,0.0,0.0,0.0,0.0,0.0,-1.6681,-1.7035,-1.6531,-1.6242,-1.6267,-1.6267,-1.6267,-1.6198,-1.5652,-1.5126,-1.458,-1.5048,-1.5103,-1.4558,-1.4721,0.0,0.0,0.0,0.0,0.0,0.0,0.0,0.0,0.0,0.0,0.0,0.0,0.0,0.0,0.0,0.0,0.0,0.0,0.0,0.0,-1.5761,0.0,0.0,0.0,0.0,0.0,0.0,0.0,0.0,0.0,0.0,-1.7252,-1.7382,-1.7539,-1.7539,0.0,0.0,0.0,0.0,-1.8112,-1.8353,-1.8121,-1.7951,-1.7959,-1.7951,-1.7959,-1.7976,0.0,0.0,-1.8406,-1.8575,-1.8763,-1.8745,-1.861,-1.8486,-1.8664,-1.8603,-1.8665,-1.8665,-1.8567,-1.8683,-1.8709,-1.8612,-1.8647,-0.6786,0.0,0.0,0.0,0.0,-0.8944,-0.8965,-0.8976,-0.9039,-0.9141,-0.9346,-0.935,0.0,0.0,0.0,0.0,0.0,0.0,-1.0604,-1.0635,-1.115,-1.149,-1.1571,-1.191,-1.2068,-1.2033,-1.2382,-1.3053,-1.3787,-1.3341,-1.4013,-1.5651,0.0,0.0,0.0,0.0,-1.6302,-1.6874,-1.6752,-1.6719,-1.7053,-1.7053,-1.6822,-1.634,-1.6186,-1.5782,-1.5153,-1.5316,-1.536,-1.5454,-1.5328,0.0,0.0,0.0,0.0,0.0,0.0,0.0,0.0,0.0,0.0,0.0,0.0,0.0,0.0,0.0,0.0,0.0,0.0,0.0,-1.6251,-1.6249,-1.6473,0.0,0.0,0.0,0.0,0.0,0.0,0.0,0.0,0.0,-1.7854,-1.8002,-1.8073,0.0,0.0,-1.8822,-1.8752,-1.8452,-1.8201,-1.8112,-1.7619,0.0,0.0,-1.7049,-1.7056,-1.7821,-1.8246,-1.8676,-1.9089,-1.9097,-1.9022,-1.9097,-1.9013,-1.9022,-1.8987,-1.8564,-1.8236,-1.8201,-1.8201,-1.8296,-1.8529,-1.8599,-1.8685,-0.6101,-0.6992,-0.7503,-0.7868,-0.8085,-0.8308,-0.8341,-0.8203,-0.8433,-0.8762,-0.9052,-0.9269,-0.963,-1.0067,-1.0217,0.0,0.0,0.0,-1.1039,-1.1057,-1.1563,-1.1926,-1.201,-1.2245,-1.2363,-1.2351,-1.2798,-1.3305,-1.4123,-1.3581,-1.4181,-1.5811,0.0,0.0,-1.6723,-1.6252,-1.6254,-1.6839,-1.6537,-1.6558,-1.6755,-1.6972,-1.6791,-1.6461,-1.6255,-1.6027,-1.5621,-1.5496,-1.5501,-1.5627,-1.5353,-1.5043,0.0,0.0,0.0,0.0,0.0,0.0,0.0,0.0,0.0,0.0,0.0,-1.5557,0.0,0.0,0.0,0.0,-1.6142,-1.6524,-1.6758,-1.6857,0.0,0.0,0.0,0.0,0.0,0.0,0.0,-1.8131,-1.8243,-1.8337,-1.8337,-1.8531,-1.8567,-1.8267,-1.8736,-1.9066,-1.8841,0.0,-1.8485,-1.8228,-1.7896,-1.7721,-1.7638,-1.7387,-1.7391,-1.7863,-1.8247,-1.8646,-1.917,-1.9084,-1.9084,-1.9179,-1.9179,-1.9179,-1.9179,-1.8793,-1.8494,-1.8485,-1.8485,-1.8571,-1.8785,-1.8819,-1.8896,-0.5453,-0.5951,-0.709,-0.7301,-0.6857,-0.7379,-0.7446,-0.7162,-0.7778,-0.8318,-0.8699,-0.9311,-0.9857,-1.0246,-1.0622,0.0,-1.119,-1.1467,-1.1582,-1.157,-1.1854,-1.2055,-1.2197,-1.2215,-1.2338,-1.2554,-1.2832,-1.3412,-1.401,-1.3659,-1.4062,-1.5213,-1.4881,-1.528,-1.6437,-1.6319,-1.6399,-1.6776,-1.6227,-1.5921,-1.5957,-1.6228,-1.6367,-1.636,-1.6096,-1.595,-1.5943,-1.5665,-1.5504,-1.5496,-1.5189,-1.5013,-1.4984,0.0,0.0,0.0,0.0,0.0,0.0,0.0,0.0,0.0,0.0,0.0,0.0,0.0,0.0,0.0,-1.6767,0.0,-1.7053,-1.7521,0.0,0.0,0.0,-1.7791,-1.7601,-1.7929,-1.8142,-1.8142,0.0,0.0,-1.8745,-1.8982,-1.9006,-1.8493,-1.8763,-1.8906,-1.8674,-1.8769,-1.874,-1.8501,-1.8543,-1.8543,-1.8218,-1.8135,-1.8128,-1.7978,-1.8081,-1.8274,-1.8696,-1.8904,-1.8941,-1.9191,-1.9194,-1.9219,-1.9289,-1.9253,-1.9272,-1.9297,-1.9239,-1.9153,-1.9204,-1.9256,-1.9316,-0.5394,-0.5606,-0.6344,-0.6738,-0.6904,-0.7015,-0.711,-0.7194,-0.7689,-0.8165,-0.8703,-0.917,-0.98,-1.0512,-1.0893,-1.1229,-1.1502,-1.193,-1.2017,-1.1866,-1.2306,-1.2415,-1.2316,-1.2504,-1.2626,-1.2662,-1.3109,-1.3497,-1.3737,-1.3828,-1.399,-1.4146,-1.4331,-1.4918,-1.5891,-1.5575,-1.5452,-1.5526,-1.5789,-1.6023,-1.625,-1.633,-1.6367,-1.6367,-1.6294,-1.6257,-1.6265,-1.6184,-1.614,-1.6133,-1.5848,-1.557,-1.5328,-1.4998,0.0,0.0,0.0,0.0,0.0,0.0,0.0,0.0,0.0,-1.6263,-1.7206,0.0,-1.6942,0.0,-1.6721,-1.6848,-1.7314,-1.7468,0.0,0.0,-1.8032,-1.8157,-1.8381,-1.8338,-1.8382,-1.855,-1.8734,-1.888,-1.8889,-1.9213,-1.9329,-1.9082,-1.9312,-1.9466,-1.9033,-1.9025,-1.9007,-1.8671,-1.789,-1.7319,-1.7595,-1.7432,-1.7291,-1.7276,-1.7777,-1.8221,-1.8543,-1.891,-1.9265,-1.9368,-1.9565,-1.9668,-1.9722,-1.9668,-1.9841,-2.0152,-1.9715,-1.9264,-1.9538,-1.9829,-2.0103,-0.5417,-0.5452,-0.5782,-0.6028,-0.6284,-0.6524,-0.6603,-0.6534,-0.7085,-0.7636,-0.8352,-0.9223,-0.9927,-1.0523,-1.092,-1.1232,-1.1617,-1.2028,-1.2152,-1.2119,-1.2512,-1.2626,-1.2493,-1.2638,-1.2699,-1.2687,-1.2954,-1.3222,-1.3568,-1.3743,-1.3894,-1.4097,-1.444,-1.4866,-1.5297,-1.5205,-1.5375,-1.5888,-1.6036,-1.6265,-1.6572,-1.6726,-1.6799,-1.6784,-1.6513,-1.6367,-1.6367,-1.6104,-1.6016,-1.6155,-1.6009,-1.5833,-1.5657,-1.5474,-1.5233,0.0,0.0,0.0,0.0,0.0,0.0,0.0,0.0,0.0,0.0,0.0,-1.6531,-1.6834,-1.6988,-1.732,-1.7854,-1.8091,-1.8279,-1.8485,-1.8442,-1.8364,-1.8505,-1.851,-1.8525,-1.8623,-1.8872,-1.9022,-1.9039,-1.935,-1.9592,-1.9436,-1.971,-1.9601,-1.9058,-1.9021,-1.901,-1.8552,-1.7925,-1.7522,-1.7749,-1.7523,-1.738,-1.7676,-1.814,-1.8618,-1.9333,-1.9733,-2.0055,-2.0249,-2.0451,-2.0547,-2.0555,-2.0547,-2.0644,-2.0729,-2.0577,-2.0317,-2.0446,-2.0651,-2.0874,-0.5513,-0.5417,-0.5417,-0.5417,-0.5501,-0.5999,-0.5981,-0.571,-0.637,-0.7109,-0.802,-0.9414,-1.0167,-1.0437,-1.0757,-1.1184,-1.1636,-1.1934,-1.2111,-1.2296,-1.2596,-1.2705,-1.2705,-1.2705,-1.2723,-1.2753,-1.2753,-1.304,-1.3604,-1.3512,-1.3799,-1.4482,-1.4764,-1.4939,-1.5106,-1.5179,-1.5778,-1.6722,-1.6491,-1.655,-1.6908,-1.7143,-1.7196,-1.7304,-1.6784,-1.6491,-1.6477,-1.5965,-1.5804,-1.6074,-1.606,-1.6038,-1.6038,-1.5994,-1.5848,0.0,-1.5277,0.0,0.0,0.0,0.0,0.0,0.0,0.0,0.0,-1.5707,-1.5963,-1.6962,-1.751,-1.7943,-1.8419,-1.8725,-1.902,-1.9065,-1.8923,-1.87,-1.8672,-1.8715,-1.8748,-1.874,-1.9007,-1.9247,-1.9264,-1.9615,-1.9889,-1.986,-2.0088,-1.9977,-1.9141,-1.9147,-1.9058,-1.8533,-1.8459,-1.8282,-1.8287,-1.8115,-1.8038,-1.8533,-1.8805,-1.9185,-2.0143,-2.0492,-2.0712,-2.0995,-2.1126,-2.1303,-2.1366,-2.1286,-2.1286,-2.1408,-2.134,-2.136,-2.1362,-2.1396,-2.1482,-0.5684,-0.5665,-0.5665,-0.5665,-0.5665,-0.575,-0.5812,-0.5791,-0.637,-0.7518,-0.9078,-1.0065,-1.0658,-1.0912,-1.1078,-1.1361,-1.173,-1.2105,-1.2378,-1.2378,-1.2589,-1.2705,-1.2705,-1.2705,-1.2825,-1.3037,-1.3293,-1.3498,-1.3817,-1.4002,-1.411,-1.4231,-1.4513,-1.513,-1.592,0.0,0.0,0.0,-1.6087,-1.648,-1.7201,-1.687,-1.6885,-1.7318,-1.7216,0.0,-1.7135,-1.7033,-1.6996,-1.7047,-1.6813,0.0,0.0,0.0,0.0,0.0,0.0,0.0,0.0,0.0,0.0,0.0,-1.5643,-1.5693,-1.6529,-1.6677,-1.7241,-1.8461,-1.8037,-1.808,-1.8815,-1.8807,-1.8977,-1.9426,-1.9317,-1.9359,-1.9811,-1.9507,-1.9305,-1.9305,-1.9488,-1.9641,-1.9684,-2.0232,-2.0651,-2.066,-2.0934,-2.0853,-2.0355,-1.9782,-1.9484,-1.9668,-1.8995,-1.8526,-1.8929,-1.8585,-1.8477,-1.9011,-1.9524,-1.9656,-1.9343,-2.0008,-2.0382,-2.0171,-2.0617,-2.1006,-2.0998,-2.1022,-2.1184,-2.1619,-2.1611,-2.1636,-2.1462,-2.167,-2.1884,-0.5768,0.0,-0.5817,-0.5852,0.0,-0.5907,-0.5929,-0.5897,-0.6204,-0.7339,-0.895,-0.9882,-1.0542,-1.1006,-1.137,-1.1668,-1.1876,-1.2252,-1.2568,-1.2751,-1.2839,-1.2927,-1.3103,-1.3103,-1.3175,-1.3314,-1.3398,-1.365,-1.3882,-1.3979,-1.4132,-1.4434,-1.4702,-1.5164,-1.5979,-1.6211,-1.6387,-1.65,-1.6577,-1.6907,-1.7538,-1.7319,-1.7145,-1.7326,-1.7179,0.0,0.0,0.0,0.0,0.0,0.0,0.0,0.0,0.0,0.0,-1.6382,-1.6367,-1.6367,-1.636,-1.6228,-1.614,-1.614,-1.5987,-1.6017,-1.6427,-1.6782,-1.7277,-1.8031,-1.8121,-1.8404,-1.8903,-1.8897,-1.9164,-1.9942,-1.9719,-1.9724,-2.0081,-2.0098,-1.9964,-2.0026,-2.0314,-2.0473,-2.0482,-2.0864,-2.1114,-2.1156,-2.1264,-2.1298,-2.1298,-2.0565,-2.0111,-2.0091,-1.9683,-1.9021,-1.8862,-1.9111,-1.9008,-1.8839,-1.9361,-1.9693,-1.9338,-1.9751,-2.0086,-1.9879,-2.0189,-2.0498,-2.0704,-2.0704,-2.0854,-2.1441,-2.18,-2.1989,-2.2021,-2.2197,-2.223,-0.585,-0.5934,-0.5937,-0.5994,-0.6086,-0.6086,-0.6086,-0.6164,0.0,0.0,0.0,-0.9698,-1.0499,-1.1231,-1.1588,-1.1852,-1.2042,-1.232,-1.2597,-1.2962,-1.3053,-1.3235,-1.3429,-1.3513,-1.3538,-1.358,-1.3586,-1.3707,-1.3933,-1.4025,-1.4259,-1.469,-1.4884,-1.5291,-1.5926,-1.6907,-1.7348,-1.7311,-1.7297,-1.7479,-1.7889,-1.7749,-1.7713,-1.7501,-1.7252,-1.7106,-1.7106,-1.685,-1.6813,-1.7011,-1.7018,-1.6996,-1.6938,-1.6938,-1.6813,-1.6565,-1.6543,-1.6535,-1.6535,-1.6484,-1.6455,-1.6455,-1.6506,-1.6448,-1.6232,-1.6747,-1.7145,-1.7318,-1.8113,-1.88,-1.9059,-1.9143,-1.9606,-2.0528,-2.0292,-2.0148,-2.0512,-2.0674,-2.0757,-2.0811,-2.1081,-2.1325,-2.1325,-2.1371,-2.1508,-2.1462,-2.1539,-2.147,-2.1759,-2.127,-2.0605,-2.0139,-1.9857,-1.9554,-1.9121,-1.9338,-1.9464,-1.8816,-1.9455,-1.9956,-1.9852,-1.9844,-2.0053,-2.0113,-2.0157,-2.0485,-2.0685,-2.0924,-2.1091,-2.1586,-2.2184,-2.2686,-2.2903,-2.2882,-2.2673,-0.6043,-0.6059,-0.6059,-0.607,-0.6086,-0.6086,-0.6178,-0.6549,-0.7253,-0.8255,-0.9364,-1.0287,-1.1212,-1.1951,-1.1984,-1.2091,-1.2091,-1.2301,-1.2409,-1.2506,-1.2962,-1.3144,-1.3144,-1.3423,-1.3634,-1.3839,-1.3851,-1.3972,-1.4165,-1.4279,-1.4514,-1.4942,-1.5077,-1.568,-1.6817,-1.757,-1.8016,-1.8562,-1.7826,-1.7703,-1.8218,-1.7761,-1.7732,-1.8152,-1.8108,-1.8094,-1.8094,-1.8043,-1.7925,-1.7699,-1.7677,-1.7552,-1.7282,-1.7267,-1.7238,-1.7201,-1.7194,-1.7186,-1.7186,-1.6945,-1.6784,-1.6799,-1.7033,-1.7106,-1.6931,-1.7203,-1.762,-1.8128,-1.8537,-1.9008,-1.9613,-1.9674,-2.0098,-2.1151,-2.1121,-2.1163,-2.1688,-2.1717,-2.1789,-2.1798,-2.1719,-2.1717,-2.1743,-2.1864,-2.191,-2.1961,-2.1985,-2.2156,-2.1744,-2.161,-2.1188,-2.0302,-1.9746,-1.9591,-1.9707,-1.9553,-1.9648,-2.0141,-2.0572,-2.0642,-2.0003,-2.0427,-2.0535,-2.0163,-2.0542,-2.0987,-2.1102,-2.1913,-2.2127,-2.2421,-2.2872,-2.333,-2.353,-2.35,-2.3326,-0.6404,-0.6655,-0.6469,-0.6509,-0.6666,-0.6669,-0.676,-0.6955,-0.7537,-0.8115,-0.8897,-0.982,-1.0745,-1.1508,-1.2003,-1.2248,-1.2253,-1.2471,-1.272,-1.3003,-1.3191,-1.3467,-1.3749,-1.3842,-1.4002,-1.4123,-1.4274,-1.4407,-1.4533,-1.4666,-1.4898,-1.5114,-1.5519,-1.626,-1.7346,-1.7872,-1.8434,-1.903,-1.8484,-1.8316,-1.8562,-1.8323,-1.8229,-1.8306,-1.8299,-1.8299,-1.8299,-1.8299,-1.8233,-1.8086,-1.8079,-1.7999,-1.7652,-1.7756,-1.7756,-1.7734,-1.7749,-1.786,-1.786,-1.7721,-1.764,-1.7647,-1.7765,-1.7838,-1.7732,-1.775,-1.7968,-1.8314,-1.8682,-1.9033,-1.9304,-1.9385,-1.9838,-2.0802,-2.1016,-2.132,-2.1608,-2.2059,-2.2294,-2.2236,-2.217,-2.2101,-2.2294,-2.2351,-2.2187,-2.1904,-2.1853,-2.1603,-2.1585,-2.1522,-2.141,-2.0891,-2.0465,-2.0189,-2.0153,-2.0212,-2.0062,-1.9764,-2.0099,-2.0092,-1.9559,-1.9785,-1.969,-1.9566,-1.9785,-2.0099,-2.0434,-2.0869,-2.1379,-2.2119,-2.2578,-2.317,-2.3553,-2.3846,-2.367,-0.6792,-0.7079,-0.6887,-0.6947,-0.7235,-0.7238,-0.7238,-0.7338,-0.754,-0.7909,-0.8372,-0.9476,-1.0327,-1.1101,-1.2031,-1.249,-1.2517,-1.2678,-1.2953,-1.3346,-1.3443,-1.3756,-1.4195,-1.4292,-1.4419,-1.4388,-1.4702,-1.4811,-1.4941,-1.5016,-1.5143,-1.5299,-1.5973,-1.6727,-1.7461,-1.8086,-1.8619,-1.9146,-1.8927,-1.8899,-1.8899,-1.8899,-1.8774,-1.8547,-1.8533,-1.8518,-1.8525,-1.8525,-1.8489,-1.8416,-1.8408,-1.8372,-1.8192,-1.8291,-1.8291,-1.8178,-1.8192,-1.8299,-1.8306,-1.8372,-1.8416,-1.8416,-1.8482,-1.8518,-1.8552,-1.8434,-1.8441,-1.847,-1.887,-1.9216,-1.9414,-1.9446,-1.9795,-2.044,-2.1084,-2.1529,-2.1488,-2.2164,-2.2709,-2.2649,-2.2558,-2.26,-2.2652,-2.2555,-2.2156,-2.1628,-2.1242,-2.1179,-2.127,-2.1349,-2.1372,-2.1222,-2.0963,-2.0505,-2.0157,-2.0325,-2.0039,-1.909,-1.9466,-1.9494,-1.9277,-1.8928,-1.8915,-1.9166,-1.9264,-1.9612,-2.0007,-2.0346,-2.0907,-2.1888,-2.249,-2.2902,-2.3677,-2.3735,-2.359,-0.7205,-0.7217,-0.7214,-0.7126,-0.7241,-0.745,-0.7556,-0.7653,-0.7846,-0.8031,-0.8199,-0.9669,-1.0747,-1.1628,-1.2328,-1.2737,-1.2743,-1.2754,-1.2878,-1.2883,-1.3346,-1.3659,-1.3958,-1.4481,-1.4694,-1.4773,-1.4945,-1.5184,-1.5303,-1.5226,-1.5234,-1.5567,-1.6218,-1.6864,-1.7233,-1.7759,-1.8304,-1.8869,-1.8945,-1.9027,-1.9235,-1.9228,-1.922,-1.9191,-1.9177,-1.9191,-1.9147,-1.9184,-1.9045,-1.8774,-1.8738,-1.8721,-1.8577,-1.8419,-1.8419,-1.854,-1.8427,-1.8299,-1.8328,-1.8577,-1.8745,-1.8767,-1.9001,-1.9147,-1.914,-1.9108,-1.9064,-1.9069,-1.9431,-1.9833,-2.0334,-2.0309,-2.0431,-2.0872,-2.157,-2.2011,-2.2055,-2.2844,-2.329,-2.3096,-2.3126,-2.3203,-2.2894,-2.2274,-2.1702,-2.1466,-2.1393,-2.1301,-2.1187,-2.1264,-2.117,-2.0913,-2.0714,-2.0347,-1.9808,-1.9555,-1.9638,-1.9408,-1.9598,-1.9665,-1.9523,-1.9537,-1.9713,-1.967,-1.988,-2.0202,-2.0679,-2.1207,-2.1979,-2.2286,-2.279,-2.3079,-2.3689,-2.3464,-2.3199,-0.754,-0.764,-0.7543,-0.7591,-0.787,-0.8061,-0.8097,-0.81,-0.82,-0.8303,-0.8402,-0.9528,-1.0083,-1.0375,-1.1373,-1.1839,-1.1957,-1.2475,-1.2777,-1.2978,-1.3679,-1.4136,-1.4424,-1.4743,-1.4909,-1.5011,-1.5258,-1.5451,-1.5597,-1.5609,-1.5626,-1.5834,-1.6362,-1.6842,-1.7179,-1.7701,-1.8227,-1.8541,-1.8646,-1.8757,-1.9071,-1.9175,-1.9272,-1.9272,-1.9272,-1.9272,-1.9272,-1.9272,-1.9206,-1.9089,-1.9074,-1.9023,-1.9001,-1.8884,-1.8979,-1.8993,-1.8884,-1.8877,-1.8877,-1.9008,-1.9081,-1.9081,-1.9191,-1.9272,-1.9272,-1.945,-1.9513,-1.9651,-1.9595,-1.9725,-2.0136,-2.0111,-2.0175,-2.0531,-2.1585,-2.2206,-2.2118,-2.3143,-2.369,-2.3314,-2.3032,-2.284,-2.2758,-2.2141,-2.1576,-2.13,-2.1209,-2.1241,-2.133,-2.1728,-2.1757,-2.1579,-2.1556,-2.1077,-2.0167,-1.9745,-1.9692,-1.989,-2.0046,-2.0046,-2.0155,-2.004,-2.0148,-2.027,-2.0385,-2.0615,-2.0931,-2.1196,-2.1774,-2.2335,-2.2788,-2.3127,-2.336,-2.3135,-2.3014,-0.7905,-0.8009,-0.7945,-0.8024,-0.8336,-0.8438,-0.8482,-0.8482,-0.8482,-0.8482,-0.8587,-0.9111,-0.9283,-0.9412,-1.0591,-1.116,-1.139,-1.223,-1.2751,-1.2951,-1.3873,-1.4424,-1.4692,-1.5005,-1.5155,-1.536,-1.5419,-1.562,-1.586,-1.5901,-1.5891,-1.6105,-1.6418,-1.6849,-1.7179,-1.7595,-1.7905,-1.822,-1.8318,-1.8436,-1.8772,-1.9157,-1.9262,-1.9294,-1.936,-1.9367,-1.9279,-1.936,-1.9367,-1.9279,-1.9272,-1.9272,-1.9272,-1.9272,-1.9272,-1.9272,-1.9272,-1.9272,-1.9272,-1.9272,-1.9272,-1.9272,-1.9272,-1.9272,-1.9272,-1.9472,-1.9783,-2.0033,-1.9845,-1.9766,-2.0146,-2.0067,-2.0043,-2.0245,-2.1477,-2.2107,-2.2042,-2.298,-2.3456,-2.316,-2.2816,-2.2528,-2.2256,-2.1775,-2.1302,-2.1091,-2.1129,-2.1251,-2.1547,-2.1973,-2.217,-2.1957,-2.1759,-2.1288,-2.0615,-2.0242,-2.0155,-2.0155,-2.027,-2.0385,-2.0608,-2.0385,-2.0385,-2.0493,-2.0608,-2.0838,-2.1081,-2.1203,-2.134,-2.1774,-2.2358,-2.2761,-2.2855,-2.2824,-2.2772,-0.8258,-0.8279,-0.8408,-0.8459,-0.8476,-0.8489,-0.8492,-0.8516,-0.8499,-0.8492,-0.8506,-0.8608,-0.867,-0.8883,-1.0435,-1.1295,-1.1412,-1.2156,-1.258,-1.2786,-1.3799,-1.4424,-1.4647,-1.4966,-1.541,-1.5707,-1.5518,-1.5648,-1.5855,-1.5879,-1.5998,-1.6324,-1.6324,-1.6643,-1.7179,-1.7279,-1.749,-1.8016,-1.8016,-1.8128,-1.8471,-1.9042,-1.9261,-1.9381,-1.9586,-1.9601,-1.9367,-1.9579,-1.9601,-1.9286,-1.9272,-1.9272,-1.9272,-1.9272,-1.9272,-1.9272,-1.9272,-1.9272,-1.9272,-1.9272,-1.9272,-1.9272,-1.9272,-1.9272,-1.9279,-1.9376,-1.9576,-2.0086,-2.0112,-2.0279,-2.0696,-2.0543,-2.0496,-2.0758,-2.1347,-2.1777,-2.1802,-2.2443,-2.2605,-2.2791,-2.2703,-2.2443,-2.1671,-2.1287,-2.108,-2.1062,-2.1249,-2.1585,-2.1496,-2.1836,-2.1964,-2.1524,-2.1196,-2.0716,-2.0716,-2.0608,-2.0493,-2.05,-2.0385,-2.0392,-2.027,-2.027,-2.05,-2.0615,-2.073,-2.0845,-2.1089,-2.1225,-2.1254,-2.1506,-2.191,-2.233,-2.2566,-2.2131,-2.2191,-0.8408,-0.8421,-0.8567,-0.8628,-0.8638,-0.8733,-0.8774,-0.8774,-0.8777,-0.8774,-0.8774,-0.8774,-0.8804,-0.8855,-0.9667,-1.0178,-1.0393,-1.1465,-1.2112,-1.2535,-1.3482,-1.4172,-1.468,-1.4898,-1.5045,-1.5244,-1.5374,-1.569,-1.5885,-1.5885,-1.5998,-1.6324,-1.653,-1.6743,-1.7173,-1.7384,-1.7589,-1.7687,-1.7799,-1.7993,-1.839,-1.8628,-1.9041,-1.9578,-1.9895,-1.9916,-1.9601,-1.9703,-1.9616,-1.9286,-1.9272,-1.9272,-1.9272,-1.9272,-1.9272,-1.9272,-1.9272,-1.9272,-1.9272,-1.9272,-1.9272,-1.9272,-1.9272,-1.9279,-1.9272,-1.948,-1.968,-1.999,-2.03,-2.0584,-2.1043,-2.0941,-2.0774,-2.0987,-2.1538,-2.2045,-2.2323,-2.2801,-2.3152,-2.2972,-2.2798,-2.2381,-2.2064,-2.1937,-2.1907,-2.1459,-2.182,-2.1986,-2.1949,-2.2335,-2.2358,-2.1888,-2.1653,-2.1425,-2.1081,-2.0845,-2.0608,-2.073,-2.073,-2.0852,-2.0859,-2.0852,-2.0967,-2.0981,-2.0974,-2.1054,-2.1335,-2.1489,-2.1489,-2.1533,-2.1925,-2.2124,-2.2334,-2.2186,-2.2372,-0.8587,-0.8642,-0.874,-0.8784,-0.8794,-0.8893,-0.8937,-0.8937,-0.8937,-0.8937,-0.8937,-0.8937,-0.8937,-0.8937,-0.9379,-0.9596,-0.9926,-1.0907,-1.1678,-1.2219,-1.3088,-1.3732,-1.4272,-1.4493,-1.4708,-1.5035,-1.538,-1.5696,-1.5891,-1.5885,-1.6105,-1.643,-1.6606,-1.6938,-1.7311,-1.7569,-1.7583,-1.7622,-1.7563,-1.7836,-1.8252,-1.8544,-1.8954,-1.9604,-2.0154,-2.0223,-1.9945,-2.0011,-1.9872,-1.9506,-1.9425,-1.9381,-1.9294,-1.9272,-1.9323,-1.9418,-1.944,-1.9484,-1.9557,-1.9499,-1.944,-1.9425,-1.9338,-1.9301,-1.9403,-1.9635,-1.9882,-2.0166,-2.0527,-2.0965,-2.1286,-2.1288,-2.1258,-2.1258,-2.1762,-2.2163,-2.2394,-2.2766,-2.2934,-2.2947,-2.2755,-2.2395,-2.2243,-2.2309,-2.2191,-2.1896,-2.2237,-2.2343,-2.223,-2.2443,-2.2619,-2.2177,-2.2075,-2.1911,-2.173,-2.1401,-2.1133,-2.1083,-2.1054,-2.1154,-2.1284,-2.1269,-2.1262,-2.1254,-2.1306,-2.1401,-2.154,-2.1715,-2.1803,-2.1847,-2.2038,-2.2171,-2.2394,-2.2445,-2.2789,-0.8794,-0.8906,-0.8937,-0.892,-0.892,-0.8933,-0.8937,-0.8937,-0.8937,-0.8937,-0.8937,-0.8937,-0.8937,-0.9047,-0.9379,-0.9706,-0.9926,-1.0582,-1.124,-1.1787,-1.2441,-1.3197,-1.3727,-1.3732,-1.4283,-1.516,-1.5618,-1.5821,-1.5885,-1.5891,-1.6211,-1.6587,-1.68,-1.713,-1.7622,-1.7661,-1.7655,-1.7623,-1.7642,-1.7793,-1.7994,-1.8537,-1.905,-1.9504,-2.0174,-2.0499,-2.0179,-2.053,-2.0362,-1.985,-1.9769,-1.9608,-1.9403,-1.9367,-1.9455,-1.9718,-1.9769,-1.9916,-2.0113,-1.9916,-1.9769,-1.974,-1.9499,-1.9491,-1.9718,-1.9869,-2.0079,-2.0487,-2.0894,-2.1171,-2.1503,-2.1818,-2.1886,-2.1934,-2.1937,-2.2068,-2.2049,-2.2081,-2.2209,-2.2552,-2.2664,-2.2652,-2.2562,-2.2441,-2.2222,-2.223,-2.223,-2.223,-2.2131,-2.2184,-2.218,-2.2169,-2.2228,-2.2171,-2.2238,-2.2132,-2.1759,-2.1459,-2.143,-2.1408,-2.1474,-2.1481,-2.1619,-2.1627,-2.197,-2.2074,-2.2215,-2.2372,-2.2305,-2.2327,-2.2379,-2.2394,-2.2722,-2.2939,-2.324,-0.8896,-0.8937,-0.8937,-0.8937,-0.8937,-0.8937,-0.8937,-0.8937,-0.8937,-0.8937,-0.8937,-0.8937,-0.8937,-0.8937,-0.9158,-0.9268,-0.9599,-1.0036,-1.0692,-1.1568,-1.1896,-1.255,-1.331,-1.3413,-1.3954,-1.4821,-1.5154,-1.5476,-1.5891,-1.5891,-1.6291,-1.6902,-1.7105,-1.7444,-1.8163,-1.8001,-1.7868,-1.7929,-1.7875,-1.8021,-1.8357,-1.8704,-1.9105,-1.9658,-2.0228,-2.0501,-2.055,-2.0667,-2.0523,-2.0098,-2.0091,-2.004,-1.9952,-1.9938,-1.9981,-2.0069,-2.0091,-2.012,-2.0201,-2.0157,-2.0084,-2.0069,-1.9974,-1.9981,-2.0069,-2.0192,-2.0453,-2.0891,-2.1209,-2.1596,-2.2041,-2.2323,-2.2235,-2.1981,-2.1957,-2.2092,-2.2307,-2.2521,-2.2712,-2.2823,-2.2838,-2.2901,-2.2901,-2.2675,-2.2562,-2.2456,-2.2456,-2.2343,-2.2146,-2.2162,-2.2276,-2.2349,-2.2398,-2.255,-2.2729,-2.2728,-2.2528,-2.2149,-2.1928,-2.1796,-2.1825,-2.1847,-2.1987,-2.2193,-2.2423,-2.2669,-2.2811,-2.2871,-2.2917,-2.2984,-2.3104,-2.3195,-2.3331,-2.3566,-2.3787,-0.9268,-0.9268,-0.9268,-0.9268,-0.9268,-0.9268,-0.9268,-0.9268,-0.9268,-0.9158,-0.9158,-0.9047,-0.9051,-0.894,-0.9051,-0.9161,-0.9493,-0.9816,-1.0363,-1.1021,-1.124,-1.1787,-1.2659,-1.331,-1.3732,-1.4369,-1.5024,-1.5577,-1.6117,-1.6322,-1.6775,-1.7239,-1.7476,-1.7779,-1.8207,-1.815,-1.8009,-1.7909,-1.7868,-1.8067,-1.8484,-1.8771,-1.9172,-1.9652,-1.9931,-2.0155,-2.0364,-2.0416,-2.0413,-2.0243,-2.034,-2.0274,-2.0135,-2.0245,-2.0303,-2.0398,-2.0428,-2.0472,-2.0559,-2.0501,-2.0413,-2.0406,-2.0303,-2.0303,-2.0369,-2.0516,-2.0773,-2.1231,-2.1601,-2.1891,-2.2418,-2.2688,-2.2577,-2.2386,-2.237,-2.245,-2.268,-2.2871,-2.299,-2.2998,-2.3014,-2.3014,-2.3014,-2.3014,-2.2901,-2.2796,-2.2796,-2.2777,-2.2611,-2.2667,-2.2875,-2.3027,-2.3245,-2.3308,-2.324,-2.3278,-2.3149,-2.2886,-2.2632,-2.2461,-2.2246,-2.249,-2.2624,-2.2796,-2.3164,-2.3308,-2.3452,-2.3384,-2.3392,-2.3596,-2.3687,-2.352,-2.3505,-2.3916,-2.4283,-0.9816,-0.9816,-0.9816,-0.9706,-0.9706,-0.9706,-0.9706,-0.9816,-0.9706,-0.9596,-0.9489,-0.9375,-0.9268,-0.9047,-0.9268,-0.9379,-0.9489,-1.0036,-1.0257,-1.0472,-1.0692,-1.1236,-1.1896,-1.2975,-1.3614,-1.3927,-1.5018,-1.601,-1.6587,-1.6851,-1.7252,-1.7501,-1.7805,-1.8117,-1.8067,-1.8076,-1.7923,-1.7769,-1.7688,-1.7945,-1.8484,-1.8764,-1.9058,-1.9461,-1.9707,-1.9815,-1.9924,-2.012,-2.0237,-2.0322,-2.0456,-2.0339,-2.0017,-2.0333,-2.0626,-2.0735,-2.0742,-2.0881,-2.105,-2.0896,-2.075,-2.0735,-2.0545,-2.0406,-2.0698,-2.0757,-2.1062,-2.1632,-2.1904,-2.2161,-2.2636,-2.2862,-2.2958,-2.2998,-2.2887,-2.2927,-2.299,-2.3006,-2.3014,-2.3014,-2.3014,-2.3014,-2.3014,-2.3014,-2.3022,-2.303,-2.2941,-2.313,-2.3328,-2.334,-2.3668,-2.3917,-2.3952,-2.3962,-2.3856,-2.3795,-2.3795,-2.3482,-2.3376,-2.3248,-2.2992,-2.3232,-2.3375,-2.3535,-2.3718,-2.3894,-2.3925,-2.3908,-2.3777,-2.37,-2.3774,-2.3607,-2.3844,-2.4288,-2.4597,-0.9816,-0.9816,-0.9816,-0.9816,-0.9816,-0.9816,-0.9816,-0.9816,-0.9816,-0.9816,-0.9706,-0.9706,-0.9596,-0.9596,-0.9596,-0.971,-0.9816,-1.0147,-1.0476,-1.0582,-1.0907,-1.1236,-1.1678,-1.2654,-1.3418,-1.3954,-1.46,-1.572,-1.719,-1.6782,-1.6984,-1.7597,-1.7681,-1.8024,-1.8323,-1.8136,-1.8023,-1.7943,-1.7868,-1.8067,-1.8484,-1.8764,-1.9065,-1.9332,-1.9707,-1.9815,-1.9815,-1.9931,-2.0026,-2.0287,-2.0202,-2.0267,-2.0444,-2.0557,-2.0706,-2.102,-2.1072,-2.1101,-2.1159,-2.1123,-2.1072,-2.1079,-2.0947,-2.0991,-2.1064,-2.1079,-2.1351,-2.1896,-2.2116,-2.2343,-2.2796,-2.2901,-2.3014,-2.3014,-2.3038,-2.3046,-2.3038,-2.3014,-2.3014,-2.3014,-2.3046,-2.307,-2.3085,-2.3054,-2.3054,-2.3077,-2.3197,-2.3419,-2.3502,-2.384,-2.4071,-2.4316,-2.4385,-2.446,-2.447,-2.4417,-2.4317,-2.4155,-2.397,-2.4055,-2.3971,-2.3963,-2.4132,-2.4347,-2.4291,-2.4369,-2.4366,-2.4338,-2.4204,-2.3959,-2.4045,-2.4212,-2.4346,-2.4648,-2.4814,-1.0147,-1.0143,-1.0143,-1.0143,-1.0147,-1.0143,-1.0143,-1.0143,-1.0143,-1.0147,-1.0036,-1.0036,-0.9923,-0.9816,-0.9816,-0.9816,-0.9816,-1.0143,-1.0366,-1.0582,-1.0907,-1.1236,-1.1678,-1.2337,-1.2866,-1.3181,-1.4056,-1.5279,-1.653,-1.6561,-1.6902,-1.7462,-1.7711,-1.7919,-1.8237,-1.8009,-1.7856,-1.7842,-1.7862,-1.8043,-1.847,-1.8651,-1.8971,-1.9265,-1.9591,-1.9591,-1.9591,-1.9591,-1.9822,-2.004,-2.0026,-2.0134,-2.0486,-2.0594,-2.0838,-2.1203,-2.1211,-2.1203,-2.1211,-2.1211,-2.1211,-2.1203,-2.1211,-2.1211,-2.1196,-2.1211,-2.1439,-2.1888,-2.2002,-2.2343,-2.2683,-2.2901,-2.3014,-2.303,-2.3149,-2.3228,-2.3236,-2.3252,-2.3316,-2.3395,-2.3451,-2.3451,-2.3443,-2.3332,-2.3252,-2.3236,-2.322,-2.3475,-2.3729,-2.3943,-2.4229,-2.4563,-2.4762,-2.4814,-2.4778,-2.471,-2.4734,-2.4479,-2.4471,-2.4602,-2.461,-2.4595,-2.464,-2.4723,-2.4806,-2.4849,-2.4682,-2.4531,-2.4396,-2.4237,-2.4484,-2.4587,-2.469,-2.4857,-2.5032,-1.0692,-1.0692,-1.0692,-1.0692,-1.0692,-1.0692,-1.0692,-1.0692,-1.0692,-1.0476,-1.0363,-1.0366,-1.0143,-0.9923,-1.0036,-0.9926,-0.9926,-1.0257,-1.0363,-1.0582,-1.1021,-1.1459,-1.1673,-1.2114,-1.22,-1.2177,-1.3388,-1.4379,-1.5285,-1.5982,-1.6742,-1.7175,-1.7633,-1.7875,-1.7956,-1.7736,-1.7609,-1.7622,-1.7642,-1.7943,-1.8384,-1.8551,-1.8824,-1.9285,-1.9366,-1.9482,-1.9482,-1.9482,-1.9482,-1.9707,-1.9815,-1.9924,-2.027,-2.0493,-2.0723,-2.1089,-2.1203,-2.1211,-2.1211,-2.1211,-2.1211,-2.1211,-2.1211,-2.1211,-2.1211,-2.1211,-2.1325,-2.1668,-2.2002,-2.223,-2.2683,-2.2909,-2.3014,-2.3062,-2.3308,-2.3514,-2.3586,-2.3594,-2.3721,-2.3983,-2.4031,-2.4047,-2.3975,-2.3808,-2.3578,-2.3411,-2.3435,-2.3649,-2.3896,-2.4118,-2.4484,-2.4913,-2.5024,-2.5063,-2.5095,-2.5103,-2.498,-2.498,-2.4857,-2.498,-2.498,-2.4941,-2.4814,-2.4873,-2.4952,-2.4849,-2.4635,-2.4484,-2.4372,-2.4404,-2.4547,-2.4603,-2.4682,-2.4913,-2.5103,-1.0692,-1.0692,-1.0692,-1.0692,-1.0692,-1.0692,-1.0692,-1.0692,-1.0692,-1.0692,-1.0582,-1.0582,-1.0582,-1.0472,-1.0472,-1.0472,-1.0476,-1.0582,-1.0688,-1.1021,-1.1564,-1.1782,-1.1891,-1.2114,-1.1878,-1.1969,-1.2856,-1.3388,-1.3593,-1.4622,-1.5534,-1.6511,-1.6756,-1.7038,-1.7569,-1.7536,-1.7589,-1.7589,-1.7589,-1.7889,-1.835,-1.8504,-1.8771,-1.9299,-1.9366,-1.9366,-1.9366,-1.9366,-1.9482,-1.9482,-1.9482,-1.9707,-1.9931,-2.027,-2.05,-2.0845,-2.1081,-2.1203,-2.1211,-2.1211,-2.1211,-2.1211,-2.1211,-2.1211,-2.1211,-2.1211,-2.1325,-2.1668,-2.1888,-2.2335,-2.2788,-2.2901,-2.3014,-2.3085,-2.3348,-2.3673,-2.3872,-2.3943,-2.3999,-2.407,-2.4102,-2.418,-2.4078,-2.4047,-2.3856,-2.3649,-2.3689,-2.3872,-2.4078,-2.4277,-2.4611,-2.5016,-2.5103,-2.5103,-2.5103,-2.5103,-2.5103,-2.5103,-2.5103,-2.5103,-2.5103,-2.5079,-2.4968,-2.4976,-2.5048,-2.4865,-2.4603,-2.4571,-2.4492,-2.4547,-2.4627,-2.4738,-2.4865,-2.5048,-2.5103,-1.0692,-1.0692,-1.0692,-1.0692,-1.0692,-1.0692,-1.0692,-1.0692,-1.0692,-1.0692,-1.0692,-1.0692,-1.0692,-1.0692,-1.0692,-1.0692,-1.0692,-1.0692,-1.0802,-1.1131,-1.1568,-1.1896,-1.2005,-1.2114,-1.2105,-1.2096,-1.2545,-1.2625,-1.2817,-1.3588,-1.4708,-1.5446,-1.5773,-1.6318,-1.6942,-1.7153,-1.7371,-1.7589,-1.7589,-1.7816,-1.821,-1.8437,-1.8771,-1.9245,-1.9366,-1.9366,-1.9366,-1.9366,-1.9366,-1.9366,-1.9366,-1.9482,-1.97,-1.9924,-2.027,-2.0608,-2.0838,-2.1089,-2.1089,-2.1211,-2.1211,-2.1211,-2.1211,-2.1211,-2.1211,-2.1211,-2.1211,-2.1554,-2.1888,-2.2335,-2.2901,-2.3014,-2.3014,-2.3117,-2.3475,-2.384,-2.4031,-2.419,-2.438,-2.4484,-2.4587,-2.4587,-2.4539,-2.4388,-2.4269,-2.4118,-2.3642,-2.3808,-2.419,-2.4396,-2.4595,-2.4889,-2.504,-2.5103,-2.5103,-2.5103,-2.5103,-2.5103,-2.5103,-2.5103,-2.5103,-2.5079,-2.5032,-2.5016,-2.496,-2.4809,-2.4603,-2.4595,-2.4682,-2.4809,-2.4905,-2.4968,-2.5016,-2.5079,-2.5103,-1.0692,-1.0692,-1.0692,-1.0692,-1.0692,-1.0692,-1.0692,-1.0692,-1.0692,-1.0692,-1.0692,-1.0692,-1.0692,-1.0692,-1.0692,-1.0692,-1.0692,-1.0692,-1.0802,-1.1017,-1.1459,-1.1673,-1.1896,-1.2223,-1.2332,-1.2436,-1.2441,-1.2417,-1.2625,-1.3176,-1.3835,-1.4487,-1.4917,-1.5446,-1.598,-1.6411,-1.673,-1.716,-1.7371,-1.7629,-1.807,-1.8357,-1.8784,-1.9252,-1.9366,-1.9366,-1.9366,-1.9366,-1.9366,-1.9366,-1.9366,-1.9482,-1.9707,-1.9815,-2.004,-2.0608,-2.0723,-2.096,-2.1089,-2.1211,-2.1211,-2.1211,-2.1211,-2.1211,-2.1211,-2.1211,-2.1211,-2.1439,-2.166,-2.2222,-2.2788,-2.2909,-2.2909,-2.3141,-2.3634,-2.3991,-2.4126,-2.4396,-2.4762,-2.4952,-2.4928,-2.4889,-2.4881,-2.4785,-2.469,-2.4515,-2.4031,-2.38,-2.419,-2.4468,-2.4642,-2.4801,-2.4968,-2.5095,-2.5103,-2.5103,-2.5103,-2.5103,-2.5103,-2.5103,-2.5103,-2.5087,-2.504,-2.4881,-2.4785,-2.4714,-2.473,-2.477,-2.4889,-2.5063,-2.5095,-2.5063,-2.5071,-2.5103,-2.5103,-1.0692,-1.0692,-1.0692,-1.0692,-1.0692,-1.0692,-1.0692,-1.0692,-1.0692,-1.0692,-1.0692,-1.0692,-1.0692,-1.0692,-1.0692,-1.0692,-1.0692,-1.0802,-1.0798,-1.1021,-1.135,-1.1678,-1.1787,-1.2219,-1.2327,-1.2436,-1.2436,-1.2432,-1.2432,-1.2654,-1.3192,-1.3727,-1.3943,-1.4476,-1.5125,-1.5559,-1.5986,-1.6511,-1.673,-1.7096,-1.7774,-1.8343,-1.8744,-1.9265,-1.9345,-1.9366,-1.9366,-1.9366,-1.9366,-1.9366,-1.9366,-1.9488,-1.9475,-1.97,-1.9931,-2.027,-2.0608,-2.0845,-2.1089,-2.1211,-2.1211,-2.1211,-2.1211,-2.1211,-2.1211,-2.1211,-2.1211,-2.1325,-2.1554,-2.2002,-2.257,-2.2738,-2.2828,-2.3091,-2.3626,-2.4078,-2.4198,-2.4571,-2.4976,-2.5087,-2.5103,-2.5103,-2.5048,-2.4992,-2.4889,-2.4722,-2.4404,-2.4158,-2.4309,-2.4492,-2.4611,-2.4762,-2.4905,-2.5024,-2.5103,-2.5103,-2.5103,-2.5103,-2.5103,-2.5103,-2.5103,-2.5103,-2.5032,-2.4928,-2.4928,-2.496,-2.4968,-2.496,-2.5,-2.5095,-2.5103,-2.5103,-2.5103,-2.5103,-2.5103,-1.0692,-1.0692,-1.0692,-1.0692,-1.0692,-1.0692,-1.0692,-1.0692,-1.0692,-1.0692,-1.0692,-1.0692,-1.0692,-1.0692,-1.0692,-1.0802,-1.0911,-1.0907,-1.1017,-1.124,-1.1568,-1.1782,-1.1787,-1.2223,-1.2332,-1.2436,-1.2436,-1.2436,-1.2436,-1.2441,-1.2654,-1.2975,-1.3192,-1.3624,-1.4266,-1.4702,-1.5125,-1.5547,-1.5986,-1.6367,-1.7199,-1.7908,-1.8724,-1.9038,-1.9292,-1.9359,-1.9366,-1.9366,-1.9366,-1.9366,-1.9366,-1.9366,-1.9482,-1.9591,-1.9815,-2.0155,-2.0378,-2.073,-2.1089,-2.1211,-2.1211,-2.1211,-2.1211,-2.1211,-2.1211,-2.1211,-2.1318,-2.1439,-2.1569,-2.1971,-2.2827,-2.2827,-2.315,-2.3478,-2.3999,-2.4253,-2.4428,-2.4825,-2.5008,-2.5103,-2.5103,-2.5103,-2.5103,-2.5056,-2.5016,-2.4873,-2.4698,-2.4563,-2.4452,-2.4523,-2.4611,-2.4833,-2.4984,-2.5024,-2.5103,-2.5103,-2.5103,-2.5103,-2.5103,-2.5103,-2.5103,-2.5103,-2.5103,-2.5063,-2.5095,-2.5103,-2.5087,-2.504,-2.5079,-2.5103,-2.5103,-2.5103,-2.5103,-2.5103,-2.5103,-1.0582,-1.0692,-1.0692,-1.0692,-1.0692,-1.0692,-1.0692,-1.0692,-1.0692,-1.0692,-1.0692,-1.0692,-1.0692,-1.0692,-1.0802,-1.0911,-1.1131,-1.1131,-1.1345,-1.1568,-1.1782,-1.2001,-1.211,-1.2219,-1.2436,-1.2436,-1.2436,-1.2436,-1.2436,-1.2436,-1.2436,-1.255,-1.2772,-1.2985,-1.3403,-1.3738,-1.4272,-1.4696,-1.5131,-1.5565,-1.6491,-1.7476,-1.8354,-1.8771,-1.9158,-1.9285,-1.9359,-1.9366,-1.9366,-1.9366,-1.9366,-1.9366,-1.9366,-1.9366,-1.9707,-2.004,-2.027,-2.0622,-2.0967,-2.1211,-2.1211,-2.1211,-2.1211,-2.1211,-2.1211,-2.1211,-2.1318,-2.1554,-2.1658,-2.1985,-2.2775,-2.3022,-2.3411,-2.3983,-2.4293,-2.4587,-2.4635,-2.4833,-2.504,-2.5103,-2.5103,-2.5079,-2.5063,-2.5103,-2.5056,-2.4952,-2.477,-2.4507,-2.4428,-2.4523,-2.4658,-2.4936,-2.5079,-2.5079,-2.5103,-2.5103,-2.5103,-2.5103,-2.5103,-2.5103,-2.5103,-2.5103,-2.5103,-2.5103,-2.5103,-2.5103,-2.5103,-2.5103,-2.5103,-2.5103,-2.5103,-2.5103,-2.5103,-2.5103,-2.5103,-1.0253,-1.0692,-1.0692,-1.0692,-1.0692,-1.0692,-1.0692,-1.0692,-1.0692,-1.0692,-1.0692,-1.0692,-1.0692,-1.0802,-1.0907,-1.1017,-1.124,-1.1459,-1.1564,-1.1782,-1.1891,-1.2001,-1.2001,-1.2223,-1.2327,-1.2436,-1.2436,-1.2436,-1.2436,-1.2436,-1.2436,-1.2441,-1.2441,-1.255,-1.2762,-1.2985,-1.3305,-1.3835,-1.4379,-1.5229,-1.6169,-1.6945,-1.7616,-1.8188,-1.863,-1.9125,-1.9325,-1.9366,-1.9366,-1.9366,-1.9366,-1.9366,-1.9366,-1.9366,-1.9597,-1.9815,-2.0155,-2.0378,-2.0723,-2.0967,-2.1132,-2.114,-2.1254,-2.1218,-2.1313,-2.1328,-2.132,-2.1218,-2.1575,-2.203,-2.2757,-2.302,-2.3394,-2.3952,-2.4468,-2.4603,-2.4666,-2.473,-2.4944,-2.4944,-2.4889,-2.4952,-2.4976,-2.5048,-2.5087,-2.4976,-2.4825,-2.4531,-2.4404,-2.4492,-2.4714,-2.4992,-2.5103,-2.5103,-2.5103,-2.5103,-2.5103,-2.5103,-2.5103,-2.5103,-2.5103,-2.5103,-2.5103,-2.5103,-2.5103,-2.5103,-2.5103,-2.5103,-2.5103,-2.5103,-2.5103,-2.5103,-2.5103,-2.5103,-2.5103,-0.9372,-1.0253,-1.0582,-1.0692,-1.0692,-1.0692,-1.0692,-1.0692,-1.0692,-1.0692,-1.0692,-1.0692,-1.0692,-1.0802,-1.1017,-1.1236,-1.135,-1.1678,-1.1891,-1.2001,-1.2114,-1.2223,-1.2223,-1.2332,-1.2436,-1.2436,-1.2436,-1.2436,-1.2436,-1.2436,-1.2436,-1.2436,-1.2436,-1.2441,-1.2436,-1.255,-1.2762,-1.3083,-1.3738,-1.4429,-1.5304,-1.6108,-1.6894,-1.7728,-1.824,-1.8709,-1.9272,-1.9366,-1.9366,-1.9366,-1.9366,-1.9366,-1.9366,-1.9366,-1.9482,-1.9591,-1.9815,-2.0155,-2.05,-2.0622,-2.0823,-2.1082,-2.1249,-2.1336,-2.1569,-2.1737,-2.1737,-2.1774,-2.1884,-2.2379,-2.2997,-2.3291,-2.3844,-2.4369,-2.469,-2.4738,-2.477,-2.4698,-2.4762,-2.4722,-2.4658,-2.465,-2.465,-2.4682,-2.4658,-2.4547,-2.4444,-2.4269,-2.4269,-2.4428,-2.4706,-2.5048,-2.5103,-2.5103,-2.5103,-2.5103,-2.5103,-2.5103,-2.5103,-2.5103,-2.5103,-2.5103,-2.5103,-2.5103,-2.5103,-2.5103,-2.5103,-2.5103,-2.5103,-2.5103,-2.5103,-2.5103,-2.5103,-2.5103,-2.5103,-0.8598,-0.9592,-1.0253,-1.0582,-1.0692,-1.0692,-1.0692,-1.0692,-1.0692,-1.0692,-1.0692,-1.0692,-1.0692,-1.0802,-1.1021,-1.135,-1.1564,-1.1891,-1.2219,-1.2327,-1.2436,-1.2327,-1.2327,-1.2436,-1.2436,-1.2436,-1.2436,-1.2436,-1.2436,-1.2436,-1.2436,-1.2436,-1.2436,-1.2436,-1.2436,-1.2441,-1.255,-1.2762,-1.3192,-1.3743,-1.4326,-1.5104,-1.6083,-1.7012,-1.7735,-1.8369,-1.909,-1.9352,-1.9366,-1.9366,-1.9366,-1.9366,-1.9366,-1.9366,-1.9366,-1.9482,-1.9591,-1.9822,-2.0046,-2.0298,-2.0554,-2.0868,-2.131,-2.1522,-2.2067,-2.2184,-2.2176,-2.2103,-2.2242,-2.2751,-2.3301,-2.3521,-2.4055,-2.4392,-2.4822,-2.4854,-2.4798,-2.4553,-2.4484,-2.4412,-2.4309,-2.4126,-2.415,-2.4221,-2.419,-2.4086,-2.4007,-2.3943,-2.4078,-2.4261,-2.4563,-2.4873,-2.5079,-2.5095,-2.5103,-2.5103,-2.5103,-2.5103,-2.5103,-2.5103,-2.5103,-2.5103,-2.5103,-2.5103,-2.5103,-2.5103,-2.5103,-2.5103,-2.5103,-2.5103,-2.5103,-2.5103,-2.5103,-2.5103,-2.5103,-0.8374,-0.9034,-0.9592,-1.0257,-1.0692,-1.0692,-1.0692,-1.0692,-1.0692,-1.0692,-1.0692,-1.0692,-1.0692,-1.0802,-1.124,-1.1568,-1.1568,-1.211,-1.2327,-1.2327,-1.2436,-1.2436,-1.2436,-1.2436,-1.2436,-1.2436,-1.2436,-1.2436,-1.2436,-1.2436,-1.2436,-1.2436,-1.2436,-1.2436,-1.2436,-1.2436,-1.255,-1.2659,-1.2985,-1.3093,-1.3635,-1.4234,-1.511,-1.6118,-1.703,-1.8071,-1.8838,-1.9232,-1.9366,-1.9366,-1.9366,-1.9366,-1.9366,-1.9366,-1.9366,-1.9482,-1.9482,-1.9597,-1.9707,-1.9952,-2.0445,-2.0815,-2.1363,-2.1853,-2.2217,-2.2242,-2.2206,-2.2308,-2.2506,-2.2837,-2.3352,-2.361,-2.4009,-2.4278,-2.4478,-2.4468,-2.4448,-2.4261,-2.4087,-2.411,-2.3951,-2.3745,-2.3657,-2.3729,-2.3792,-2.3713,-2.3649,-2.3594,-2.3792,-2.3999,-2.4301,-2.4619,-2.496,-2.5071,-2.5103,-2.5103,-2.5103,-2.5103,-2.5103,-2.5103,-2.5103,-2.5103,-2.5103,-2.5103,-2.5103,-2.5103,-2.5103,-2.5103,-2.5103,-2.5103,-2.5103,-2.5103,-2.5103,-2.5103,-2.5103,-0.7749,-0.8371,-0.9034,-0.9809,-1.0692,-1.0692,-1.0692,-1.0692,-1.0692,-1.0692,-1.0692,-1.0692,-1.0692,-1.0911,-1.124,-1.1568,-1.1678,-1.2114,-1.2332,-1.2436,-1.2436,-1.2436,-1.2436,-1.2436,-1.2436,-1.2436,-1.2436,-1.2436,-1.2436,-1.2436,-1.2436,-1.2436,-1.2436,-1.2436,-1.2436,-1.2436,-1.2441,-1.255,-1.2659,-1.2767,-1.3098,-1.3335,-1.4134,-1.5283,-1.6233,-1.7246,-1.8192,-1.9047,-1.9352,-1.9366,-1.9366,-1.9366,-1.9366,-1.9366,-1.9366,-1.9366,-1.9366,-1.9366,-1.9386,-1.9638,-2.0034,-2.078,-2.1561,-2.2233,-2.2443,-2.2602,-2.2747,-2.2813,-2.2798,-2.3074,-2.3432,-2.3645,-2.3837,-2.4077,-2.4193,-2.3993,-2.4003,-2.3818,-2.3834,-2.3872,-2.3586,-2.3308,-2.3252,-2.3236,-2.33,-2.334,-2.3292,-2.33,-2.3514,-2.3816,-2.415,-2.4492,-2.4841,-2.5063,-2.5103,-2.5103,-2.5103,-2.5103,-2.5103,-2.5103,-2.5103,-2.5103,-2.5103,-2.5103,-2.5103,-2.5103,-2.5103,-2.5103,-2.5103,-2.5103,-2.5103,-2.5103,-2.5103,-2.5103,-2.5103,-0.7359,-0.7987,-0.8686,-0.9475,-1.0363,-1.0582,-1.0692,-1.0692,-1.0692,-1.0692,-1.0692,-1.0692,-1.0692,-1.0911,-1.124,-1.1568,-1.1678,-1.2005,-1.2223,-1.2332,-1.2436,-1.2436,-1.2436,-1.2436,-1.2436,-1.2436,-1.2436,-1.2436,-1.2436,-1.2436,-1.2436,-1.2436,-1.2436,-1.2436,-1.2436,-1.2436,-1.2436,-1.2436,-1.2436,-1.255,-1.2772,-1.2896,-1.3457,-1.4708,-1.5816,-1.6863,-1.7899,-1.8796,-1.9359,-1.9366,-1.9366,-1.9366,-1.9366,-1.9366,-1.9366,-1.9366,-1.9366,-1.9366,-1.9392,-1.9599,-1.9912,-2.067,-2.1596,-2.2242,-2.2606,-2.2849,-2.274,-2.2871,-2.2915,-2.3061,-2.3264,-2.3245,-2.3327,-2.3527,-2.3536,-2.3354,-2.3569,-2.3559,-2.3583,-2.3518,-2.3288,-2.3324,-2.3491,-2.3506,-2.3308,-2.33,-2.3157,-2.3181,-2.3316,-2.3657,-2.4086,-2.4436,-2.4785,-2.4968,-2.5103,-2.5103,-2.5103,-2.5103,-2.5103,-2.5103,-2.5103,-2.5103,-2.5103,-2.5103,-2.5103,-2.5103,-2.5103,-2.5103,-2.5103,-2.5103,-2.5103,-2.5103,-2.5103,-2.5103,-2.5103,-0.7308,-0.797,-0.8643,-0.9258,-0.9926,-1.0472,-1.0692,-1.0692,-1.0692,-1.0692,-1.0692,-1.0692,-1.0692,-1.0802,-1.1126,-1.1455,-1.1678,-1.1896,-1.2114,-1.2332,-1.2436,-1.2436,-1.2436,-1.2436,-1.2436,-1.2436,-1.2436,-1.2436,-1.2436,-1.2436,-1.2436,-1.2436,-1.2436,-1.2436,-1.2436,-1.2436,-1.2436,-1.2436,-1.2436,-1.2441,-1.2555,-1.2796,-1.3302,-1.4059,-1.5513,-1.669,-1.7414,-1.8803,-1.9359,-1.9366,-1.9366,-1.9366,-1.9366,-1.9366,-1.9366,-1.9366,-1.9366,-1.9366,-1.9392,-1.9893,-2.0234,-2.0591,-2.1307,-2.1811,-2.2298,-2.2541,-2.2529,-2.253,-2.2637,-2.262,-2.2593,-2.2504,-2.2818,-2.287,-2.2886,-2.2939,-2.3035,-2.3191,-2.3208,-2.3339,-2.347,-2.3626,-2.3848,-2.3904,-2.3546,-2.3332,-2.3101,-2.3085,-2.3189,-2.3578,-2.4047,-2.4349,-2.4698,-2.4968,-2.5103,-2.5103,-2.5103,-2.5103,-2.5103,-2.5103,-2.5103,-2.5103,-2.5103,-2.5103,-2.5103,-2.5103,-2.5103,-2.5103,-2.5103,-2.5103,-2.5103,-2.5103,-2.5103,-2.5103,-2.5103,-0.7017,-0.7422,-0.8639,-0.9364,-0.9695,-1.0363,-1.0692,-1.0692,-1.0692,-1.0692,-1.0802,-1.0907,-1.1017,-1.1017,-1.124,-1.1564,-1.1782,-1.1896,-1.2114,-1.2332,-1.2436,-1.2436,-1.2436,-1.2436,-1.2436,-1.2436,-1.2436,-1.2436,-1.2436,-1.2436,-1.2436,-1.2436,-1.2436,-1.2436,-1.2436,-1.2436,-1.2436,-1.2436,-1.2436,-1.2441,-1.246,-1.2688,-1.3078,-1.3502,-1.5188,-1.6339,-1.6919,-1.8493,-1.9236,-1.9366,-1.9366,-1.9366,-1.9366,-1.9366,-1.9366,-1.9366,-1.9366,-1.9366,-1.9446,-1.9733,-2.0013,-2.0463,-2.0788,-2.1286,-2.1637,-2.1831,-2.194,-2.211,-2.2202,-2.2355,-2.2333,-2.2311,-2.2414,-2.2414,-2.2482,-2.2587,-2.2706,-2.2708,-2.286,-2.3092,-2.3331,-2.3676,-2.4023,-2.4063,-2.3792,-2.3554,-2.3348,-2.3117,-2.3133,-2.361,-2.4078,-2.4293,-2.4587,-2.4913,-2.5103,-2.5103,-2.5103,-2.5103,-2.5103,-2.5103,-2.5103,-2.5103,-2.5103,-2.5103,-2.5103,-2.5103,-2.5103,-2.5103,-2.5103,-2.5103,-2.5103,-2.5103,-2.5103,-2.5103,-2.5103,-0.6809,-0.7147,-0.8679,-0.9315,-0.9574,-1.0578,-1.1021,-1.1021,-1.1021,-1.1021,-1.1021,-1.1236,-1.1236,-1.135,-1.1459,-1.1787,-1.2001,-1.2001,-1.2114,-1.2327,-1.2436,-1.2436,-1.2436,-1.2436,-1.2436,-1.2436,-1.2436,-1.2436,-1.2436,-1.2436,-1.2436,-1.2436,-1.2436,-1.2436,-1.2436,-1.2436,-1.2436,-1.2436,-1.2436,-1.2436,-1.2502,-1.2635,-1.2852,-1.3502,-1.463,-1.5903,-1.6786,-1.7818,-1.901,-1.9243,-1.9366,-1.9366,-1.9366,-1.9366,-1.9366,-1.9366,-1.9366,-1.9366,-1.9439,-1.9499,-1.9773,-2.004,-2.0395,-2.0686,-2.0951,-2.1341,-2.1541,-2.1575,-2.1896,-2.1935,-2.1891,-2.1906,-2.1935,-2.1935,-2.2127,-2.2223,-2.232,-2.2432,-2.2604,-2.2836,-2.3473,-2.3818,-2.4213,-2.4086,-2.3999,-2.38,-2.361,-2.3363,-2.3165,-2.3642,-2.4078,-2.4293,-2.4579,-2.4936,-2.5103,-2.5103,-2.5103,-2.5103,-2.5103,-2.5103,-2.5103,-2.5103,-2.5103,-2.5103,-2.5103,-2.5103,-2.5103,-2.5103,-2.5103,-2.5103,-2.5103,-2.5103,-2.5103,-2.5103,-2.5103,-0.669,-0.7018,-0.8535,-0.9226,-0.9665,-1.1004,-1.1568,-1.1568,-1.1568,-1.1568,-1.1568,-1.1568,-1.1568,-1.1564,-1.1678,-1.1787,-1.2005,-1.2001,-1.211,-1.2332,-1.2436,-1.2436,-1.2436,-1.2436,-1.2436,-1.2436,-1.2436,-1.2436,-1.2436,-1.2436,-1.2436,-1.2436,-1.2436,-1.2436,-1.2436,-1.2436,-1.2436,-1.2436,-1.2436,-1.2465,-1.2545,-1.271,-1.2928,-1.3475,-1.4366,-1.5487,-1.6452,-1.7578,-1.8532,-1.901,-1.9366,-1.9366,-1.9366,-1.9366,-1.9366,-1.9366,-1.9366,-1.9366,-1.9372,-1.9426,-1.9519,-1.978,-1.9993,-2.0261,-2.0536,-2.0821,-2.1005,-2.1128,-2.143,-2.1373,-2.1364,-2.1408,-2.1452,-2.1547,-2.1672,-2.1811,-2.2074,-2.2248,-2.2465,-2.279,-2.3489,-2.4024,-2.4506,-2.449,-2.4126,-2.4047,-2.3832,-2.3562,-2.3451,-2.3705,-2.4086,-2.4293,-2.4603,-2.4992,-2.5103,-2.5103,-2.5103,-2.5103,-2.5103,-2.5103,-2.5103,-2.5103,-2.5103,-2.5103,-2.5103,-2.5103,-2.5103,-2.5103,-2.5103,-2.5103,-2.5103,-2.5103,-2.5103,-2.5103,-2.5103,-0.6641,-0.6796,-0.8062,-0.8942,-0.9753,-1.1394,-1.2001,-1.1568,-1.1568,-1.1573,-1.1568,-1.1782,-1.1896,-1.1896,-1.1896,-1.2005,-1.2114,-1.211,-1.2219,-1.2327,-1.2436,-1.2436,-1.2436,-1.2436,-1.2436,-1.2436,-1.2436,-1.2436,-1.2436,-1.2436,-1.2436,-1.2436,-1.2436,-1.2436,-1.2436,-1.2436,-1.2436,-1.2436,-1.2436,-1.2521,-1.2663,-1.2847,-1.306,-1.349,-1.4275,-1.5376,-1.648,-1.7337,-1.8292,-1.9127,-1.9366,-1.9366,-1.9366,-1.9366,-1.9366,-1.9366,-1.9366,-1.9366,-1.9366,-1.9366,-1.9419,-1.9499,-1.9619,-1.974,-2.0023,-2.0239,-2.044,-2.0748,-2.0938,-2.1054,-2.1132,-2.1269,-2.1284,-2.135,-2.1452,-2.1605,-2.175,-2.1967,-2.2213,-2.2625,-2.3332,-2.3959,-2.4452,-2.4482,-2.4055,-2.4174,-2.4063,-2.3792,-2.3737,-2.3983,-2.415,-2.4356,-2.4658,-2.5056,-2.5103,-2.5103,-2.5103,-2.5103,-2.5103,-2.5103,-2.5103,-2.5103,-2.5103,-2.5103,-2.5103,-2.5103,-2.5103,-2.5103,-2.5103,-2.5103,-2.5103,-2.5103,-2.5103,-2.5103,-2.5151,-0.6575,-0.6738,-0.7713,-0.8906,-1.0222,-1.1376,-1.1896,-1.1891,-1.1891,-1.1896,-1.1896,-1.211,-1.2114,-1.2114,-1.2114,-1.2223,-1.2327,-1.2219,-1.2219,-1.2327,-1.2436,-1.2436,-1.2436,-1.2436,-1.2436,-1.2436,-1.2436,-1.2436,-1.2436,-1.2436,-1.2436,-1.2436,-1.2436,-1.2436,-1.2436,-1.2436,-1.2436,-1.2436,-1.2469,-1.2578,-1.2762,-1.297,-1.3173,-1.3503,-1.442,-1.5322,-1.6391,-1.722,-1.8175,-1.9127,-1.9366,-1.9366,-1.9366,-1.9366,-1.9366,-1.9366,-1.9366,-1.9366,-1.9366,-1.9366,-1.9366,-1.9366,-1.9366,-1.9466,-1.9629,-1.9863,-2.0136,-2.0319,-2.0637,-2.0838,-2.1081,-2.1211,-2.1211,-2.1218,-2.1269,-2.1313,-2.1421,-2.1643,-2.1989,-2.2538,-2.3108,-2.3708,-2.4049,-2.4102,-2.4134,-2.4309,-2.4277,-2.4094,-2.4078,-2.4261,-2.4364,-2.4492,-2.4785,-2.5103,-2.5103,-2.5103,-2.5103,-2.5103,-2.5103,-2.5103,-2.5103,-2.5103,-2.5103,-2.5103,-2.5103,-2.5103,-2.5103,-2.5103,-2.5103,-2.5103,-2.5103,-2.5103,-2.5103,-2.5103,-2.5183,-0.6502,-0.66,-0.7539,-0.8967,-1.0634,-1.1025,-1.1542,-1.2327,-1.2332,-1.2327,-1.2332,-1.2327,-1.2327,-1.2332,-1.2332,-1.2332,-1.2436,-1.2327,-1.2327,-1.2436,-1.2436,-1.2436,-1.2436,-1.2436,-1.2436,-1.2436,-1.2436,-1.2436,-1.2436,-1.2436,-1.2436,-1.2436,-1.2436,-1.2436,-1.2436,-1.2436,-1.2436,-1.2436,-1.2474,-1.2559,-1.2795,-1.2994,-1.3173,-1.3532,-1.405,-1.4878,-1.6166,-1.6991,-1.7707,-1.8771,-1.9366,-1.9366,-1.9366,-1.9366,-1.9366,-1.9366,-1.9366,-1.9366,-1.9366,-1.9366,-1.9366,-1.9366,-1.9366,-1.9392,-1.9522,-1.9638,-1.9836,-2.0162,-2.0385,-2.0723,-2.0967,-2.1089,-2.1211,-2.1211,-2.1233,-2.1335,-2.1531,-2.1683,-2.1978,-2.237,-2.2825,-2.3436,-2.3932,-2.4037,-2.4275,-2.4403,-2.4436,-2.4309,-2.4436,-2.4587,-2.4619,-2.4666,-2.4881,-2.5103,-2.5103,-2.5103,-2.5103,-2.5103,-2.5103,-2.5103,-2.5103,-2.5103,-2.5103,-2.5103,-2.5103,-2.5103,-2.5103,-2.5103,-2.5103,-2.5103,-2.5103,-2.5103,-2.5119,-2.5159,-2.5278,-0.6453,-0.6488,-0.7499,-0.8636,-0.9976,-1.0675,-1.1432,-1.2323,-1.2436,-1.2436,-1.2436,-1.2436,-1.2436,-1.2436,-1.2436,-1.2436,-1.2436,-1.2436,-1.2436,-1.2436,-1.2436,-1.2436,-1.2436,-1.2436,-1.2436,-1.2436,-1.2436,-1.2436,-1.2436,-1.2436,-1.2436,-1.2436,-1.2436,-1.2436,-1.2436,-1.2436,-1.2436,-1.2436,-1.246,-1.2635,-1.2942,-1.3065,-1.3216,-1.3485,-1.4047,-1.4753,-1.593,-1.6632,-1.7701,-1.901,-1.9366,-1.9366,-1.9366,-1.9366,-1.9366,-1.9366,-1.9366,-1.9366,-1.9366,-1.9366,-1.9366,-1.9366,-1.9366,-1.9366,-1.9482,-1.9482,-1.9597,-1.9938,-2.0277,-2.05,-2.0845,-2.1081,-2.1211,-2.1211,-2.1218,-2.1372,-2.1518,-2.1759,-2.1994,-2.2312,-2.261,-2.3052,-2.3718,-2.4078,-2.4215,-2.4464,-2.4482,-2.4563,-2.477,-2.4921,-2.4889,-2.4921,-2.4968,-2.5103,-2.5103,-2.5103,-2.5103,-2.5103,-2.5103,-2.5103,-2.5103,-2.5103,-2.5103,-2.5103,-2.5103,-2.5103,-2.5103,-2.5103,-2.5103,-2.5103,-2.5119,-2.5127,-2.5278,-2.5357,-2.5477,-0.6437,-0.6453,-0.7077,-0.7972,-0.9012,-0.9957,-1.0845,-1.176,-1.2223,-1.2436,-1.2436,-1.2436,-1.2436,-1.2436,-1.2436,-1.2436,-1.2436,-1.2436,-1.2436,-1.2436,-1.2436,-1.2436,-1.2436,-1.2436,-1.2436,-1.2436,-1.2436,-1.2436,-1.2436,-1.2436,-1.2436,-1.2436,-1.2436,-1.2436,-1.2436,-1.2436,-1.2436,-1.2436,-1.2441,-1.2682,-1.3022,-1.3107,-1.3282,-1.3561,-1.4047,-1.4753,-1.5461,-1.6284,-1.7461,-1.8532,-1.901,-1.9366,-1.9366,-1.9366,-1.9366,-1.9366,-1.9366,-1.9366,-1.9366,-1.9366,-1.9366,-1.9366,-1.9366,-1.9366,-1.9366,-1.9482,-1.9597,-1.9822,-2.0162,-2.05,-2.073,-2.096,-2.1203,-2.1211,-2.1247,-2.1342,-2.1518,-2.1679,-2.2075,-2.2436,-2.2652,-2.2818,-2.3312,-2.3807,-2.4086,-2.4462,-2.459,-2.4672,-2.4885,-2.498,-2.498,-2.5103,-2.5103,-2.5103,-2.5103,-2.5103,-2.5103,-2.5103,-2.5103,-2.5103,-2.5103,-2.5103,-2.5103,-2.5103,-2.5103,-2.5103,-2.5103,-2.5103,-2.5103,-2.5103,-2.5127,-2.5159,-2.5342,-2.5572,-2.581,-0.6437,-0.6453,-0.6548,-0.7179,-0.8141,-0.9136,-1.0158,-1.118,-1.1991,-1.2436,-1.2436,-1.2436,-1.2436,-1.2436,-1.2436,-1.2436,-1.2436,-1.2436,-1.2436,-1.2436,-1.2436,-1.2436,-1.2436,-1.2436,-1.2436,-1.2436,-1.2436,-1.2436,-1.2436,-1.2436,-1.2436,-1.2436,-1.2436,-1.2436,-1.2436,-1.2436,-1.2436,-1.246,-1.2526,-1.2715,-1.2913,-1.3084,-1.3334,-1.366,-1.4047,-1.4406,-1.5229,-1.6053,-1.6991,-1.8058,-1.8887,-1.9249,-1.9366,-1.9366,-1.9366,-1.9366,-1.9366,-1.9366,-1.9366,-1.9366,-1.9366,-1.9366,-1.9366,-1.9366,-1.9366,-1.9482,-1.9597,-1.9707,-2.0046,-2.0385,-2.0608,-2.096,-2.1089,-2.1269,-2.132,-2.1386,-2.1576,-2.1789,-2.2206,-2.2608,-2.2715,-2.2822,-2.3044,-2.342,-2.3852,-2.4363,-2.461,-2.4734,-2.4857,-2.4857,-2.4857,-2.498,-2.498,-2.5103,-2.5103,-2.5103,-2.5103,-2.5103,-2.5103,-2.5103,-2.5103,-2.5103,-2.5103,-2.5103,-2.5103,-2.5103,-2.5103,-2.5103,-2.5103,-2.5103,-2.5119,-2.5191,-2.5508,-2.5771,-2.6176,-0.6437,-0.6439,-0.6464,-0.705,-0.8004,-0.8978,-0.9985,-1.1014,-1.1932,-1.2436,-1.2332,-1.2327,-1.2436,-1.2436,-1.2436,-1.2436,-1.2436,-1.2436,-1.2436,-1.2436,-1.2436,-1.2436,-1.2436,-1.2436,-1.2436,-1.2436,-1.2436,-1.2436,-1.2436,-1.2436,-1.2436,-1.2436,-1.2436,-1.2436,-1.2436,-1.2441,-1.245,-1.2493,-1.2635,-1.2819,-1.2984,-1.3159,-1.3325,-1.3518,-1.3808,-1.4401,-1.4992,-1.5229,-1.6408,-1.7701,-1.8771,-1.9249,-1.9366,-1.9366,-1.9366,-1.9366,-1.9366,-1.9366,-1.9366,-1.9366,-1.9366,-1.9366,-1.9366,-1.9366,-1.9366,-1.9366,-1.9482,-1.9597,-1.9938,-2.027,-2.05,-2.0967,-2.1218,-2.1401,-2.1503,-2.1628,-2.1781,-2.2118,-2.2506,-2.2637,-2.2637,-2.2877,-2.3091,-2.3355,-2.3604,-2.3984,-2.4108,-2.4363,-2.461,-2.461,-2.4734,-2.4734,-2.4857,-2.498,-2.5103,-2.5103,-2.5103,-2.5103,-2.5103,-2.5103,-2.5103,-2.5103,-2.5103,-2.498,-2.498,-2.498,-2.5103,-2.498,-2.5103,-2.5103,-2.5103,-2.5222,-2.558,-2.5929,-2.6287]}]]